[[{"header":{"parameterUnit":"m.s-1","parameterCategory":1,"la1":30.6,"la2":29.2853,"lo1":-89.7004,"lo2":-87.6739,"dy":0.0162,"dx":0.0183,"nx":112,"ny":82,"refTime":"2026-04-16T12:00:00:Z","depth":0,"parameterNumber":2,"parameterNumberName":"U-component_of_WINDS"},"data":[0.0,0.0,0.0,0.0,0.0,0.0,0.0,0.0,0.0,0.0,0.0,0.0,0.0,0.0,0.0,0.0,0.0,0.0,0.0,0.0,0.0,0.0,0.0,0.0,0.0,0.0,0.0,0.0,0.0,0.0,0.0,0.0,0.0,0.0,0.0,0.0,0.0,0.0,0.0,0.0,0.0,0.0,0.0,0.0,0.0,0.0,0.0,0.0,0.0,0.0,0.0,0.0,0.0,0.0,0.0,0.0,0.0,0.0,0.0,0.0,0.0,0.0,0.0,0.0,0.0,0.0,0.0,0.0,0.0,0.0,0.0,0.0,0.0,0.0,0.0,0.0,0.0,0.0,0.0,0.0,0.0,0.0,0.0,0.0,0.0,0.0,0.0,0.0,0.0,0.0,0.0,-3.7885,-4.1724,-4.4367,-4.5055,-4.3643,-4.0745,-3.6093,0.0,0.0,0.0,0.0,0.0,0.0,0.0,0.0,0.0,0.0,0.0,0.0,0.0,0.0,0.0,0.0,0.0,0.0,0.0,0.0,0.0,0.0,0.0,0.0,0.0,0.0,0.0,0.0,0.0,0.0,0.0,0.0,0.0,0.0,0.0,0.0,0.0,0.0,0.0,0.0,0.0,0.0,0.0,0.0,0.0,0.0,0.0,0.0,0.0,0.0,0.0,0.0,0.0,0.0,0.0,0.0,0.0,0.0,0.0,0.0,0.0,0.0,0.0,0.0,0.0,0.0,0.0,0.0,0.0,0.0,0.0,0.0,0.0,0.0,0.0,0.0,0.0,0.0,0.0,0.0,0.0,0.0,0.0,0.0,0.0,0.0,0.0,0.0,0.0,0.0,0.0,0.0,0.0,0.0,0.0,0.0,0.0,0.0,0.0,0.0,0.0,0.0,0.0,0.0,-3.5002,-4.1361,-4.3282,-4.415,-4.4258,-4.281,-4.013,-3.6057,0.0,0.0,0.0,0.0,0.0,0.0,0.0,0.0,0.0,0.0,0.0,0.0,0.0,0.0,0.0,0.0,0.0,0.0,0.0,0.0,0.0,0.0,0.0,0.0,0.0,0.0,0.0,0.0,0.0,0.0,0.0,0.0,0.0,0.0,0.0,0.0,0.0,0.0,0.0,0.0,0.0,0.0,0.0,0.0,0.0,0.0,0.0,0.0,0.0,0.0,0.0,0.0,0.0,0.0,0.0,0.0,0.0,0.0,0.0,0.0,0.0,0.0,0.0,0.0,0.0,0.0,0.0,0.0,0.0,0.0,0.0,0.0,0.0,0.0,0.0,0.0,0.0,0.0,0.0,0.0,0.0,0.0,0.0,0.0,0.0,0.0,0.0,0.0,0.0,0.0,0.0,0.0,0.0,0.0,0.0,0.0,0.0,0.0,0.0,0.0,0.0,0.0,0.0,-3.4277,-3.716,-4.2937,-4.348,-4.3625,-4.4059,-4.223,-3.9551,-3.6021,-3.314,0.0,0.0,0.0,0.0,0.0,0.0,0.0,0.0,0.0,0.0,0.0,0.0,0.0,0.0,0.0,0.0,0.0,0.0,0.0,0.0,0.0,0.0,0.0,0.0,0.0,0.0,0.0,0.0,0.0,0.0,0.0,0.0,0.0,0.0,0.0,0.0,0.0,0.0,0.0,0.0,0.0,0.0,0.0,0.0,0.0,0.0,0.0,0.0,0.0,0.0,0.0,0.0,0.0,0.0,0.0,0.0,0.0,0.0,0.0,0.0,0.0,0.0,0.0,0.0,0.0,0.0,0.0,0.0,0.0,0.0,0.0,0.0,0.0,0.0,0.0,0.0,0.0,0.0,0.0,0.0,0.0,0.0,0.0,0.0,0.0,0.0,0.0,0.0,0.0,0.0,0.0,0.0,0.0,0.0,0.0,0.0,0.0,0.0,0.0,0.0,0.0,0.0,-3.733,-3.9604,-4.3409,-4.3281,-4.3155,-4.3751,-4.1452,-3.8754,-3.5967,-3.2415,0.0,0.0,0.0,0.0,0.0,0.0,0.0,0.0,0.0,0.0,0.0,0.0,0.0,0.0,0.0,0.0,0.0,0.0,0.0,0.0,0.0,0.0,0.0,0.0,0.0,0.0,0.0,0.0,0.0,0.0,0.0,0.0,0.0,0.0,0.0,0.0,0.0,0.0,0.0,0.0,0.0,0.0,0.0,0.0,0.0,0.0,0.0,0.0,0.0,0.0,0.0,0.0,0.0,0.0,0.0,0.0,0.0,0.0,0.0,0.0,0.0,0.0,0.0,0.0,0.0,0.0,0.0,0.0,0.0,0.0,0.0,0.0,0.0,0.0,0.0,0.0,0.0,0.0,0.0,0.0,0.0,0.0,0.0,0.0,0.0,0.0,0.0,0.0,0.0,0.0,0.0,0.0,0.0,0.0,0.0,0.0,0.0,0.0,0.0,0.0,0.0,0.0,-3.7749,-4.1245,-4.2811,-4.2937,-4.2919,-4.2992,-4.0147,-3.7631,-3.5912,-3.1387,0.0,0.0,0.0,0.0,0.0,0.0,0.0,0.0,0.0,0.0,0.0,0.0,0.0,0.0,0.0,0.0,0.0,0.0,0.0,0.0,0.0,0.0,0.0,0.0,0.0,0.0,0.0,0.0,0.0,0.0,0.0,0.0,0.0,0.0,0.0,0.0,0.0,0.0,0.0,0.0,0.0,0.0,0.0,0.0,0.0,0.0,0.0,0.0,0.0,0.0,0.0,0.0,0.0,0.0,0.0,0.0,0.0,0.0,0.0,0.0,0.0,0.0,0.0,0.0,0.0,0.0,0.0,0.0,0.0,0.0,0.0,0.0,0.0,0.0,0.0,0.0,0.0,0.0,0.0,0.0,0.0,0.0,0.0,0.0,0.0,0.0,0.0,0.0,0.0,0.0,0.0,0.0,0.0,0.0,0.0,0.0,0.0,0.0,0.0,0.0,0.0,0.0,-3.6911,-4.0296,0.0,-4.2901,-4.2701,-4.2194,-4.0184,-3.7612,-3.4498,0.0,0.0,0.0,0.0,0.0,0.0,0.0,0.0,0.0,0.0,0.0,0.0,0.0,0.0,0.0,0.0,0.0,0.0,0.0,0.0,0.0,0.0,0.0,0.0,0.0,0.0,0.0,0.0,0.0,0.0,0.0,0.0,0.0,0.0,0.0,0.0,0.0,0.0,0.0,0.0,0.0,0.0,0.0,0.0,0.0,0.0,0.0,0.0,0.0,0.0,0.0,0.0,0.0,0.0,0.0,0.0,0.0,0.0,0.0,0.0,0.0,0.0,0.0,0.0,0.0,0.0,0.0,0.0,0.0,0.0,0.0,0.0,0.0,0.0,0.0,0.0,0.0,0.0,0.0,0.0,0.0,0.0,0.0,0.0,0.0,0.0,0.0,0.0,0.0,0.0,0.0,0.0,0.0,0.0,0.0,0.0,0.0,0.0,0.0,0.0,0.0,0.0,-3.3134,-3.669,-3.9977,0.0,-4.2901,-4.2574,-4.1759,-3.9822,-3.7142,-3.3628,0.0,0.0,0.0,0.0,0.0,0.0,0.0,0.0,0.0,0.0,0.0,0.0,0.0,0.0,0.0,0.0,0.0,0.0,0.0,0.0,0.0,0.0,0.0,0.0,0.0,0.0,0.0,0.0,0.0,0.0,0.0,0.0,0.0,0.0,0.0,0.0,0.0,0.0,0.0,0.0,0.0,0.0,0.0,0.0,0.0,0.0,0.0,0.0,0.0,0.0,0.0,0.0,0.0,0.0,0.0,0.0,0.0,0.0,0.0,0.0,0.0,0.0,0.0,0.0,0.0,0.0,0.0,0.0,0.0,0.0,0.0,0.0,0.0,0.0,0.0,0.0,0.0,0.0,0.0,0.0,0.0,0.0,0.0,0.0,0.0,0.0,0.0,0.0,0.0,0.0,0.0,0.0,0.0,0.0,0.0,0.0,0.0,0.0,0.0,0.0,0.0,0.0,-3.325,-3.7327,-4.0726,-4.2667,-4.2883,-4.2538,-4.1741,-3.879,-3.5962,0.0,0.0,0.0,0.0,0.0,0.0,0.0,0.0,0.0,0.0,0.0,0.0,0.0,0.0,0.0,0.0,0.0,0.0,0.0,0.0,0.0,0.0,0.0,0.0,0.0,0.0,0.0,0.0,0.0,0.0,0.0,0.0,0.0,0.0,0.0,0.0,0.0,0.0,0.0,0.0,0.0,0.0,0.0,0.0,0.0,0.0,0.0,0.0,0.0,0.0,0.0,0.0,0.0,0.0,0.0,0.0,0.0,0.0,0.0,0.0,0.0,0.0,0.0,0.0,0.0,0.0,0.0,0.0,0.0,0.0,0.0,0.0,0.0,0.0,0.0,0.0,0.0,0.0,0.0,0.0,0.0,0.0,0.0,0.0,0.0,0.0,0.0,0.0,0.0,0.0,0.0,0.0,0.0,0.0,0.0,0.0,0.0,0.0,0.0,0.0,0.0,0.0,0.0,-3.2747,-3.6786,-3.9959,-4.1334,-4.1483,-4.1104,-4.0165,-3.7667,-3.4878,-3.189,0.0,0.0,0.0,0.0,0.0,0.0,0.0,0.0,0.0,0.0,0.0,0.0,0.0,0.0,0.0,0.0,0.0,0.0,0.0,0.0,0.0,0.0,0.0,0.0,0.0,0.0,0.0,0.0,0.0,0.0,0.0,0.0,0.0,0.0,0.0,0.0,0.0,0.0,0.0,0.0,0.0,0.0,0.0,0.0,0.0,0.0,0.0,0.0,0.0,0.0,0.0,0.0,0.0,0.0,0.0,0.0,0.0,0.0,0.0,0.0,0.0,0.0,0.0,0.0,0.0,0.0,0.0,0.0,0.0,0.0,0.0,0.0,0.0,0.0,0.0,0.0,0.0,0.0,0.0,0.0,0.0,0.0,0.0,0.0,0.0,0.0,0.0,0.0,0.0,0.0,0.0,0.0,0.0,0.0,0.0,0.0,0.0,0.0,0.0,0.0,0.0,0.0,-3.2524,-3.6283,-3.9291,-4.085,-4.1022,-4.0533,-3.927,-3.7231,-3.4513,-3.0951,0.0,0.0,0.0,0.0,0.0,0.0,0.0,0.0,0.0,0.0,0.0,0.0,0.0,0.0,0.0,0.0,0.0,0.0,0.0,0.0,0.0,0.0,0.0,0.0,0.0,0.0,0.0,0.0,0.0,0.0,0.0,0.0,0.0,0.0,0.0,0.0,0.0,0.0,0.0,0.0,0.0,0.0,0.0,0.0,0.0,0.0,0.0,0.0,0.0,0.0,0.0,0.0,0.0,0.0,0.0,0.0,0.0,0.0,0.0,0.0,0.0,0.0,0.0,0.0,0.0,0.0,0.0,0.0,0.0,0.0,0.0,0.0,0.0,0.0,0.0,0.0,0.0,0.0,0.0,0.0,0.0,0.0,0.0,0.0,0.0,0.0,0.0,0.0,0.0,0.0,0.0,0.0,0.0,0.0,0.0,0.0,0.0,0.0,0.0,0.0,0.0,0.0,-3.2322,-3.574,-3.8613,-4.0695,-4.0905,-4.0299,-3.8811,-3.7151,-3.4531,-3.0651,0.0,0.0,0.0,0.0,0.0,0.0,0.0,0.0,0.0,0.0,0.0,0.0,0.0,0.0,0.0,0.0,0.0,0.0,0.0,0.0,0.0,0.0,0.0,0.0,0.0,0.0,0.0,0.0,0.0,0.0,0.0,0.0,0.0,0.0,0.0,0.0,0.0,0.0,0.0,0.0,0.0,0.0,0.0,0.0,0.0,0.0,0.0,0.0,0.0,0.0,0.0,0.0,0.0,0.0,0.0,0.0,0.0,0.0,0.0,0.0,-3.619,0.0,0.0,0.0,0.0,0.0,0.0,0.0,0.0,0.0,0.0,0.0,0.0,0.0,0.0,0.0,0.0,0.0,0.0,0.0,0.0,0.0,0.0,0.0,0.0,0.0,0.0,0.0,0.0,0.0,0.0,0.0,0.0,0.0,0.0,0.0,0.0,0.0,0.0,0.0,0.0,0.0,-3.0984,-3.4817,-3.7629,-3.8584,-3.8682,-3.8452,-3.7913,-3.5794,-3.3598,-3.1456,-2.8136,0.0,0.0,0.0,0.0,0.0,0.0,0.0,0.0,0.0,0.0,0.0,0.0,0.0,0.0,0.0,0.0,0.0,0.0,0.0,0.0,0.0,0.0,0.0,0.0,0.0,0.0,0.0,0.0,0.0,0.0,0.0,0.0,0.0,0.0,0.0,0.0,0.0,0.0,0.0,0.0,0.0,0.0,0.0,0.0,0.0,0.0,0.0,0.0,0.0,0.0,0.0,0.0,0.0,0.0,0.0,0.0,0.0,0.0,0.0,0.0,-3.7375,0.0,0.0,0.0,0.0,0.0,0.0,0.0,0.0,0.0,0.0,0.0,0.0,0.0,0.0,0.0,0.0,0.0,0.0,0.0,0.0,0.0,0.0,0.0,0.0,0.0,0.0,0.0,0.0,0.0,0.0,0.0,0.0,0.0,0.0,0.0,0.0,0.0,0.0,0.0,0.0,-3.111,-3.4771,-3.7364,-3.806,-3.8141,-3.7773,-3.6856,-3.5249,-3.3424,-3.1384,-2.8355,0.0,0.0,0.0,0.0,0.0,0.0,0.0,0.0,0.0,0.0,0.0,0.0,0.0,0.0,0.0,0.0,0.0,0.0,0.0,0.0,0.0,0.0,0.0,0.0,0.0,0.0,0.0,0.0,0.0,0.0,0.0,0.0,0.0,0.0,0.0,0.0,0.0,0.0,0.0,0.0,0.0,0.0,0.0,0.0,0.0,0.0,0.0,0.0,0.0,0.0,0.0,0.0,0.0,0.0,-4.7064,-4.6967,-4.8411,-4.8694,-4.7813,-4.3431,-4.1855,-4.2102,0.0,0.0,0.0,0.0,0.0,0.0,0.0,0.0,0.0,0.0,0.0,0.0,0.0,0.0,0.0,0.0,0.0,0.0,0.0,0.0,0.0,0.0,0.0,0.0,0.0,-3.285,-3.2088,0.0,0.0,0.0,0.0,0.0,0.0,0.0,0.0,0.0,0.0,0.0,0.0,-3.1504,-3.4808,-3.7148,-3.7812,-3.7887,-3.7343,-3.601,-3.509,-3.3607,-3.125,-2.8827,-2.6367,0.0,0.0,0.0,0.0,0.0,0.0,0.0,0.0,0.0,0.0,0.0,0.0,0.0,0.0,0.0,0.0,0.0,0.0,0.0,0.0,0.0,0.0,0.0,0.0,0.0,0.0,0.0,0.0,0.0,0.0,0.0,0.0,-3.4618,-3.6294,0.0,0.0,0.0,0.0,0.0,0.0,0.0,0.0,0.0,0.0,0.0,0.0,0.0,0.0,-4.6071,-4.7811,-4.874,-4.8894,-5.1312,-5.2086,-5.1359,-5.1591,-5.2047,-5.2553,-5.1122,0.0,-4.4793,-4.2051,0.0,0.0,0.0,0.0,0.0,0.0,0.0,0.0,0.0,0.0,0.0,0.0,0.0,0.0,0.0,0.0,0.0,0.0,0.0,0.0,0.0,0.0,-3.7239,-3.575,-3.542,-3.5277,0.0,-3.1231,-2.7778,-2.6754,0.0,0.0,0.0,0.0,0.0,0.0,0.0,0.0,-3.0818,-3.3982,-3.6104,-3.6216,-3.6216,-3.6141,-3.5916,-3.509,-3.3832,-3.2048,-3.0849,-2.907,-2.6599,-2.4745,0.0,0.0,0.0,0.0,0.0,0.0,0.0,0.0,0.0,0.0,0.0,0.0,0.0,0.0,0.0,0.0,0.0,0.0,0.0,0.0,0.0,0.0,0.0,0.0,0.0,0.0,0.0,0.0,0.0,-3.4605,-3.6934,-3.76,-3.7779,-3.7461,0.0,0.0,0.0,0.0,0.0,0.0,0.0,0.0,0.0,-4.6264,-4.7514,-4.9204,-5.1409,-5.2182,-5.3033,-5.3973,-5.5103,-5.5683,-5.5788,-5.5296,-5.5277,-5.5567,-5.4233,-5.2539,-5.0445,-4.681,-4.3778,-4.1265,0.0,0.0,0.0,0.0,0.0,-3.7526,-3.8898,0.0,0.0,0.0,0.0,0.0,0.0,0.0,0.0,0.0,0.0,0.0,0.0,0.0,0.0,-3.7429,-3.7249,-3.7249,-3.7249,-3.5165,-3.2499,0.0,-2.9044,-2.7749,-2.4257,0.0,0.0,0.0,0.0,0.0,-3.2649,-3.4695,-3.6066,-3.6535,-3.6179,-3.5709,-3.5202,-3.4808,-3.3869,-3.2217,-3.1215,-2.9798,-2.7755,-2.5504,-2.374,0.0,0.0,0.0,0.0,0.0,0.0,0.0,0.0,0.0,0.0,0.0,0.0,0.0,0.0,0.0,0.0,0.0,0.0,0.0,0.0,0.0,0.0,0.0,0.0,0.0,0.0,0.0,0.0,-3.7444,-3.9383,-3.9493,-4.0654,-4.0711,0.0,0.0,0.0,0.0,0.0,0.0,-4.578,-4.6883,-4.8624,-5.1235,-5.2116,-5.3575,-5.5741,-5.576,-5.6399,-5.7637,-5.7637,-5.7965,-5.8574,-5.7695,-5.7299,-5.7222,-5.576,-5.4987,-5.4476,-5.0292,-4.7109,-4.4653,-4.2649,-4.1111,0.0,-4.1351,-4.1171,-4.0555,-4.2364,-4.2316,-4.1222,-3.9589,0.0,-3.7562,-3.4614,0.0,0.0,0.0,0.0,-3.5651,-3.6365,0.0,-3.8686,-3.865,-3.8638,-3.8638,-3.8638,-3.7981,-3.6366,0.0,-3.2668,-3.1692,-2.7336,0.0,0.0,0.0,0.0,-3.1598,-3.4264,-3.5353,-3.6122,-3.6735,-3.6066,-3.5296,-3.4669,-3.4612,-3.3869,-3.2217,-3.1432,-3.0305,-2.8652,-2.6293,-2.4893,-2.4533,0.0,0.0,0.0,0.0,0.0,0.0,0.0,0.0,0.0,0.0,0.0,0.0,0.0,0.0,0.0,0.0,0.0,0.0,0.0,0.0,0.0,0.0,0.0,0.0,0.0,0.0,0.0,0.0,0.0,-4.295,-4.522,0.0,0.0,0.0,0.0,-4.4272,-4.5084,-4.6689,-4.9301,-5.0983,-5.3053,-5.5606,-5.6525,-5.7443,-5.84,-5.8419,-5.8458,-5.8526,-5.8526,-5.8574,-5.8574,-5.7695,-5.7299,-5.7241,-5.6332,-5.5509,-5.4523,-5.1053,-4.9525,-4.9119,-4.6547,-4.5522,-4.5496,-4.5391,-4.472,-4.3828,-4.3764,-4.3081,-4.2363,-4.3056,-4.1692,-3.9435,-3.76,-3.5945,0.0,0.0,-3.6503,-3.7273,-3.8063,-3.8893,-3.9533,-3.9533,-3.9533,-3.9533,-3.9533,-3.8845,-3.7737,0.0,-3.5691,-3.4864,-3.218,0.0,-3.1523,-3.0762,-3.2113,-3.355,-3.447,-3.5353,-3.5916,-3.5953,-3.5184,-3.465,-3.4602,-3.4612,-3.3869,-3.2217,-3.2067,-3.1306,-2.9692,-2.7965,-2.663,-2.5723,-2.2338,0.0,0.0,0.0,0.0,0.0,0.0,0.0,0.0,0.0,0.0,0.0,0.0,0.0,0.0,0.0,0.0,0.0,0.0,0.0,0.0,0.0,0.0,0.0,0.0,0.0,0.0,0.0,0.0,-4.6413,-4.8333,0.0,-4.756,-4.7889,-4.8546,-4.9436,-5.079,-5.2472,-5.4476,-5.5161,-5.6418,-5.8449,-5.8275,-5.8797,-6.019,-5.9706,-5.9706,-6.0209,-6.0209,-6.0209,-6.0151,-5.8778,-5.8139,-5.8062,-5.6631,-5.5838,-5.5451,-5.371,-5.1989,-5.0376,-4.9455,-4.845,-4.7502,-4.7426,-4.7119,-4.6626,-4.5867,-4.5243,-4.4661,-4.3756,-4.2523,-4.1175,-4.0037,-3.9252,-3.8743,-3.849,-3.8606,-3.8853,-3.9118,-3.9395,-3.9589,-3.9589,-3.9589,-3.9589,-3.9589,-3.9364,-3.8969,-3.8387,-3.7411,-3.5878,-3.3381,-3.3832,-3.4264,-3.3419,-3.4264,-3.5503,-3.6817,-3.6348,-3.6104,-3.661,-3.5428,-3.4612,-3.4612,-3.4132,-3.3325,-3.2161,-3.1616,-3.0593,-2.8923,-2.7786,-2.6732,-2.5742,-2.2924,-2.0871,0.0,0.0,0.0,0.0,0.0,0.0,0.0,0.0,0.0,0.0,0.0,0.0,0.0,0.0,0.0,0.0,0.0,0.0,0.0,0.0,0.0,0.0,0.0,0.0,0.0,0.0,-4.8031,-4.9122,-5.1497,-5.2503,-5.1119,-5.1989,-5.2975,-5.3865,-5.4987,-5.6379,-5.8101,-5.8178,-5.8836,-6.0267,-5.9745,-5.9977,-6.1099,-6.0576,-6.0576,-6.1099,-6.1099,-6.1099,-6.1041,-5.9358,-5.8613,-5.8497,-5.6766,-5.6012,-5.5973,-5.5412,-5.3846,-5.1757,-5.1447,-5.048,-4.9243,-4.9243,-4.8971,-4.8401,-4.6959,-4.6123,-4.5414,-4.3925,-4.3063,-4.2448,-4.1643,-4.1398,-4.1192,-4.0321,-4.0071,-3.9995,-3.9677,-3.9589,-3.9589,-3.9589,-3.9589,-3.9589,-3.9589,-3.9364,-3.9157,-3.9157,-3.85,-3.7336,-3.539,-3.5972,-3.6423,-3.5559,-3.616,-3.7005,-3.7793,-3.6948,-3.6404,-3.6678,-3.5439,-3.4489,-3.4226,-3.3719,-3.2902,-3.1767,-3.0941,-2.9861,-2.8463,-2.7373,-2.6476,-2.5803,-2.3238,-2.1428,-2.0439,0.0,0.0,0.0,0.0,0.0,0.0,0.0,0.0,0.0,0.0,0.0,0.0,0.0,0.0,0.0,0.0,0.0,0.0,0.0,0.0,0.0,0.0,0.0,-4.3457,-4.7899,-5.1081,-5.1107,-5.4785,-5.6379,-5.3942,-5.518,-5.6467,-5.7318,-5.7396,-5.8159,-5.9841,-5.9938,-6.0286,-6.1079,-6.1099,-6.1099,-6.1099,-6.1099,-6.1099,-6.1099,-6.1099,-6.1099,-6.1002,-5.9339,-5.8593,-5.8449,-5.6747,-5.6012,-5.6012,-5.6012,-5.5006,-5.342,-5.2577,-5.1699,-5.0898,-5.0898,-5.0265,-4.9095,-4.6988,-4.5534,-4.4525,-4.3774,-4.3485,-4.3282,-4.2479,-4.2191,-4.1958,-4.1073,-4.0816,-4.0609,-3.9833,-3.9627,-3.9589,-3.9589,-3.9627,-3.9627,-3.9608,-3.8957,-3.8375,-3.8357,-3.9014,-3.9326,-3.845,-3.8319,-3.8075,-3.7298,-3.7812,0.0,-3.7242,-3.7091,-3.6761,-3.5972,-3.5108,-3.4282,-3.3502,-3.339,-3.2658,-3.1006,-3.0114,-2.927,-2.8388,-2.6829,-2.6,-2.5955,-2.3305,-2.1424,-2.0345,0.0,0.0,0.0,0.0,0.0,0.0,0.0,0.0,0.0,0.0,0.0,0.0,0.0,0.0,0.0,0.0,0.0,0.0,0.0,0.0,0.0,0.0,-4.6201,-4.7056,-5.0429,-5.3491,-5.5316,-5.7134,-5.8217,-5.8139,-5.8565,-5.8932,-5.9165,-5.9725,-6.0267,-6.0731,-6.077,-6.0867,-6.1099,-6.1099,-6.1099,-6.1099,-6.1099,-6.1099,-6.1099,-6.1099,-6.0789,-6.019,-5.9087,-5.8255,-5.7598,-5.6476,-5.6012,-5.6012,-5.6012,-5.5006,-5.3478,-5.3246,-5.2221,-5.0898,-5.0898,-5.0205,-4.9075,-4.7756,-4.6548,-4.5477,-4.4589,-4.4299,-4.4116,-4.3314,-4.3069,-4.2842,-4.1937,-4.1248,-4.0741,-4.0534,-4.004,-3.9589,-3.9589,-4.0059,-4.0309,-3.9721,-3.9858,-3.9934,-3.9364,-3.9439,-3.9326,-3.845,-3.8826,-3.9176,-3.8951,0.0,0.0,-3.8,-3.6948,-3.6141,-3.5916,-3.5108,-3.4508,-3.4282,-3.3156,-3.2011,0.0,-2.9542,-2.8397,-2.7552,-2.6537,-2.5651,-2.4935,-2.3598,-2.2385,0.0,0.0,0.0,0.0,0.0,0.0,0.0,0.0,0.0,0.0,0.0,0.0,0.0,0.0,0.0,0.0,0.0,0.0,0.0,0.0,0.0,0.0,-4.6715,-4.9639,-5.1557,-5.3715,-5.5915,-5.8139,-5.9126,-5.9841,-6.0344,-6.0402,-6.0402,-6.0402,-6.0847,-6.1099,-6.1099,-6.1099,-6.1099,-6.1099,-6.1099,-6.1099,-6.1099,-6.1099,-6.1099,-6.1099,-6.1099,-6.0673,-5.9861,-5.899,-5.812,0.0,-5.6371,-5.6012,-5.5973,-5.5644,-5.4716,0.0,0.0,0.0,0.0,0.0,-5.0214,-4.9134,-4.8109,-4.7003,-4.5937,-4.4989,-4.4646,-4.453,-4.4081,-4.3917,-4.3708,-4.2801,-4.1942,-4.1229,-4.0891,-4.0209,-3.9589,-3.9589,-3.9965,-4.0171,-3.9702,-3.9965,-4.0171,-3.9683,0.0,0.0,-3.892,-3.927,-3.9589,-3.9589,-3.8863,-3.8188,0.0,-3.6686,-3.5766,-3.539,-3.4902,-3.4451,-3.4132,-3.2874,0.0,0.0,0.0,-2.789,-2.6743,-2.6255,0.0,0.0,0.0,0.0,0.0,0.0,0.0,0.0,-2.1569,-2.1351,0.0,0.0,0.0,0.0,0.0,0.0,0.0,0.0,0.0,0.0,0.0,0.0,0.0,0.0,0.0,0.0,-4.997,-5.2776,-5.6129,-5.7107,-5.806,-5.9706,-6.0615,-6.1099,-6.1099,-6.1099,-6.1099,-6.1099,-6.1099,-6.1099,-6.1099,0.0,0.0,0.0,0.0,-6.1099,-6.1099,-6.1099,-6.1099,-6.1099,-6.1002,-6.0538,-5.9725,-5.8855,-5.7985,-5.7106,-5.6332,-5.6012,-5.5935,-5.5238,-5.4368,-5.3478,-5.3285,-5.226,-5.0898,-5.0898,-5.0323,0.0,0.0,0.0,0.0,-4.5268,-4.4794,-4.4619,-4.4672,-4.4646,-4.4428,-4.3659,-4.2806,-4.1948,-4.1154,-4.0328,-3.9702,-3.9627,-3.9664,-3.9702,-3.9627,-3.9664,-3.9702,-3.9627,-3.9589,-3.9589,-3.9589,-3.9589,-3.9589,-3.9589,-3.877,0.0,-3.7185,-3.631,-3.5465,-3.4677,0.0,0.0,-3.3607,-3.2649,-3.1767,-3.095,-2.9336,-2.7721,-2.6207,-2.6218,-2.5812,-2.4827,-2.4808,-2.5093,-2.5662,-2.5541,-2.545,-2.5377,-2.3089,-2.2709,0.0,0.0,0.0,0.0,0.0,0.0,0.0,0.0,0.0,0.0,0.0,0.0,0.0,0.0,0.0,-4.9219,-5.1786,-5.4589,-5.7994,-5.8445,-5.8793,-5.9782,-6.0615,-6.1099,-6.1099,-6.1099,-6.1099,-6.1099,-6.1099,-6.1099,-6.1099,-6.1099,0.0,-6.1099,-6.1099,-6.1099,-6.1099,-6.1099,-6.1099,-6.1099,0.0,0.0,-5.8816,-5.7946,-5.7076,-5.6235,-5.607,-5.6012,-5.5993,-5.5838,-5.4871,-5.3362,-5.195,-5.1188,-5.0898,-5.0898,-5.07,-5.0307,-4.9336,-4.8271,-4.7165,-4.6238,-4.5363,-4.4672,-4.4632,-4.4605,0.0,-4.4322,-4.3688,-4.2844,-4.1986,-4.1173,-4.0403,-3.9758,-4.0096,-4.0384,-3.9739,-4.0115,-4.0384,-3.9721,-3.9589,-3.9589,-3.9589,-3.9589,-3.9589,-3.9589,-3.8312,-3.7279,-3.7129,-3.5766,-3.4789,-3.4631,-3.4612,-3.4526,-3.4376,-3.2968,-3.1767,-3.095,-2.9336,-2.7965,-2.7017,-2.759,-2.7544,-2.6683,-2.6683,-2.6697,-2.6702,-2.6521,-2.6381,-2.6248,-2.5586,-2.5099,0.0,0.0,0.0,0.0,0.0,0.0,0.0,0.0,0.0,0.0,0.0,-4.285,-4.4159,0.0,-4.957,-5.1758,-5.3512,-5.563,-5.8599,-5.8912,-5.9282,-6.0457,-6.0911,-6.1099,-6.1099,-6.1099,-6.1099,-6.1099,-6.1099,-6.1099,-6.1099,-6.1099,-6.1099,-6.1099,-6.1099,-6.1099,-6.1099,-6.1099,-6.0905,-6.0499,-6.0093,-5.9223,-5.7927,-5.7492,-5.6815,-5.6012,-5.6012,-5.6012,-5.5935,-5.5084,-5.4,-5.2724,-5.1409,-5.0898,-5.0898,-5.0898,-5.0858,-5.0656,-4.9689,-4.8692,-4.7665,-4.6595,-4.5569,-4.472,-4.4627,-4.4578,-4.4537,-4.4515,-4.3933,-4.3106,-4.223,-4.1404,-4.0616,-3.9832,-3.9963,-4.0146,-3.9731,-3.997,-4.0121,-3.9683,-3.9589,-3.9589,-3.9589,-3.9589,-3.9458,-3.9014,-3.7899,-3.696,-3.6535,-3.539,-3.4612,-3.4612,-3.4612,-3.4612,-3.4612,-3.3062,-3.1579,-3.0377,-2.9504,-2.866,-2.7834,-2.8191,-2.8022,-2.7223,-2.7204,-2.7358,-2.7708,-2.753,-2.7557,-2.7797,-2.7627,-2.7077,0.0,0.0,0.0,0.0,0.0,0.0,0.0,0.0,-4.1673,-4.2653,-4.5233,-4.7558,-4.8437,-5.041,-5.2422,-5.4004,-5.5137,-5.6503,-5.8515,-5.8914,-5.9453,-6.0695,-6.1011,-6.1134,-6.1134,-6.1117,-6.1099,-6.1099,-6.1099,-6.1099,-6.1099,-6.1099,-6.1099,-6.1099,-6.1099,-6.1099,-6.1099,-6.0944,-6.0538,-5.9899,-5.9551,-5.8662,-5.728,-5.7125,-5.6661,-5.6012,-5.6012,-5.6012,-5.5877,-5.4194,-5.3091,-5.2337,-5.1312,-5.0898,-5.0898,-5.0898,-5.0898,-5.0774,-4.998,-4.9004,-4.7952,-4.6963,-4.5837,-4.4831,-4.4687,-4.4592,-4.4528,-4.4501,-4.404,-4.3372,-4.2508,-4.1694,-4.0904,-4.017,-3.9852,-3.971,-3.9712,-3.9703,-3.9681,-3.9602,-3.9589,-3.9589,-3.9589,-3.9458,-3.912,-3.8413,-3.7624,-3.681,-3.601,-3.5146,-3.4612,-3.4612,-3.4612,-3.4481,-3.4132,-3.2874,-3.141,-2.9795,-2.9701,-2.9382,-2.8679,-2.866,-2.8341,-2.7693,-2.7693,-2.8012,-2.866,-2.8493,-2.8651,-2.9104,-2.8962,-2.8433,-3.7052,-3.6292,-3.6376,-3.849,-3.9252,-4.0641,0.0,0.0,-4.7206,-4.8847,-5.0058,-5.1094,-5.1973,-5.3008,-5.4023,-5.5,-5.6543,-5.7715,-5.7988,-5.8598,-5.9042,-5.9167,-6.0417,-6.1281,-6.1281,-6.1159,-6.1099,-6.1099,-6.1099,-6.1099,-6.1099,-6.1099,-6.1099,-6.1099,-6.1099,-6.1099,-6.1099,-6.0383,-5.9996,-5.988,-5.8333,-5.7492,-5.726,-5.6487,-5.6089,-5.6012,-5.6012,-5.6012,-5.5877,-5.4194,-5.344,-5.3188,-5.1536,-5.0898,-5.0898,-5.0898,-5.0898,-5.0879,-5.0766,-4.9616,-4.8163,-4.7952,-4.6615,-4.503,-4.4843,-4.4681,-4.4578,-4.4528,-4.4522,-4.4365,-4.3548,-4.2749,-4.1959,-4.1215,-4.0359,-3.9689,-3.9693,-3.9703,-3.9681,-3.9602,-3.9589,-3.9589,-3.9589,-3.8957,-3.8413,-3.8319,-3.7624,-3.681,-3.601,-3.5146,-3.4612,-3.4612,-3.4612,-3.4001,-3.2499,-3.2217,-3.141,-2.9795,-2.9701,-2.9664,-2.9551,-2.9551,-2.9514,-2.942,-2.942,-2.9457,-2.9551,-2.9352,-2.9209,-2.9104,-2.8962,-2.8743,-4.0378,-3.9639,-3.9349,-4.0954,-4.2497,-4.4314,-4.6992,-4.8378,-4.9609,-5.1308,-5.2734,-5.3789,-5.4141,-5.4922,-5.5625,0.0,-5.668,-5.7324,-5.7832,-5.8162,-5.8324,-5.8203,-5.9211,-6.006,-6.0444,-6.0437,-6.0596,-6.106,-6.1099,-6.1099,-6.1099,-6.1099,-6.1099,-6.1099,-6.1099,-6.0886,-6.0402,-6.0074,-5.9397,-5.8391,-5.7647,-5.7028,-5.6525,-5.6158,-5.6012,-5.6012,-5.6012,-5.6012,-5.5877,-5.4194,-5.3498,-5.3323,-5.1575,-5.0898,-5.0898,-5.0898,-5.0898,-5.0898,-5.0898,-5.0109,-4.8968,-4.8364,-4.7231,-4.5955,-4.5197,-4.4843,-4.4694,-4.4592,-4.4632,-4.4504,-4.3706,-4.293,-4.2174,-4.1421,-4.0509,-3.9823,-3.9815,-3.9754,-3.9703,-3.9672,-3.9661,-3.9684,-3.9773,-3.9075,-3.8357,-3.7859,-3.6983,-3.6104,-3.524,-3.4827,-3.4612,-3.4612,-3.4612,-3.3907,-3.2236,-3.2105,-3.141,-2.9795,-2.9701,-2.9701,-2.9701,-2.9701,-2.9701,-2.9701,-2.9701,-2.9701,-2.9701,-2.9617,-2.9472,-2.9262,-2.9101,-2.8927,-4.2118,-4.1927,-4.2144,-4.3495,-4.5624,-4.7655,-4.8769,-5.0175,-5.1581,-5.2812,-5.4062,-5.4941,-5.4941,-5.5644,-5.623,-5.623,-5.664,-5.7109,-5.748,-5.7539,-5.7399,-5.7009,-5.7267,-5.784,-5.8736,-5.9261,-5.988,-6.0712,-6.077,-6.0867,-6.1099,-6.1099,-6.1099,-6.1099,-6.0886,-6.0499,-5.9899,-5.9416,-5.8546,-5.7299,-5.7048,-5.6603,-5.6012,-5.6012,-5.6012,-5.6012,-5.6012,-5.6012,-5.5877,-5.4194,-5.3498,-5.3323,-5.1575,-5.0898,-5.0898,-5.0898,-5.0898,-5.0898,-5.0898,-5.0391,-4.9555,-4.8578,-4.7629,-4.6651,-4.5572,-4.5074,-4.485,-4.47,-4.4706,-4.4612,-4.404,-4.3161,-4.2321,-4.1831,-4.0807,-3.9933,-3.9943,-3.9856,-3.9758,-3.977,-3.977,-3.9792,-3.9889,-3.9029,-3.813,-3.7485,-3.6386,-3.5413,-3.4754,-3.4676,-3.4645,-3.4634,-3.4612,-3.3907,-3.2236,-3.2105,-3.141,-2.9795,-2.9701,-2.9701,-2.9701,-2.9701,-2.9701,-2.9701,-2.9701,-2.9701,-2.9701,-2.9701,-2.9607,-2.9402,-2.9191,-2.9034,-4.1372,-4.2355,-4.4234,-4.6795,-4.8769,-5.0508,-5.2168,-5.3242,-5.3906,-5.3945,-5.4004,-5.4043,-5.4043,-5.4746,-5.5332,-5.5332,-5.6758,-5.7578,-5.6758,-5.664,-5.6242,-5.5205,-5.4418,-5.4527,0.0,-5.7656,-5.899,-5.9861,-5.9938,-6.0286,-6.106,-6.1099,-6.1099,-6.1099,-6.0344,-5.9919,-5.9899,-5.8217,-5.7357,-5.728,-5.6429,-5.6031,-5.6012,-5.6012,-5.6012,-5.6012,-5.6012,-5.6012,-5.5877,-5.4194,-5.3498,-5.3323,-5.1575,-5.0898,-5.0898,-5.0898,-5.0898,-5.0898,-5.0898,-5.041,-4.964,-4.8708,-4.7753,-4.6828,-4.5872,-4.5352,-4.5049,-4.4843,-4.4845,-4.4883,-4.4857,-4.3738,-4.2622,-4.2726,-4.1338,-4.0007,-4.0077,-3.9994,-3.9889,-3.9889,-3.9889,-3.99,-3.99,-3.8527,-3.7438,-3.7401,-3.5988,-3.4917,-3.4898,-3.483,-3.4768,-3.4697,-3.4645,-3.3907,-3.2236,-3.2105,-3.141,-2.9795,-2.9701,-2.9701,-2.9701,-2.9701,-2.9701,-2.9701,-2.9701,-2.9701,-2.9701,-2.9701,-2.9607,-2.9402,-2.9191,-2.9034,-4.3982,-4.5307,-4.661,-4.8788,-5.0563,-5.2098,-5.3281,-5.3789,-5.3848,-5.3262,-5.3144,-5.2969,-5.2383,-5.2988,-5.3769,-5.4336,-5.541,-5.6269,-5.6562,-5.6558,-5.5944,-5.4379,-5.4908,0.0,0.0,0.0,0.0,-5.8932,-5.9571,-6.0016,-6.0286,-6.0809,-6.0867,-6.0325,-6.0035,-5.9339,-5.8197,-5.7589,-5.7009,-5.6429,-5.6139,-5.6012,-5.6012,-5.6012,-5.6012,-5.6012,-5.6012,-5.6012,-5.5877,-5.4194,-5.3498,-5.3323,-5.1575,-5.0898,-5.0898,-5.0898,-5.0941,-5.0963,-5.0914,-5.0762,-5.0368,-4.8922,-4.825,-4.7692,-4.6148,-4.5558,-4.5371,-4.5077,-4.5082,-4.5135,-4.5061,-4.4268,-4.3411,-4.2918,-4.1846,-4.0784,-4.0231,-4.0036,-3.9975,-4.0026,-4.0036,-4.0057,-4.0147,-3.9214,-3.807,-3.6965,-3.5713,-3.4908,-3.4908,-3.4879,-3.485,-3.4831,-3.4319,-3.3544,-3.2411,-3.1723,-3.0894,-2.9775,-2.971,-2.9701,-2.9701,-2.9701,-2.9701,-2.9701,-2.9701,-2.9701,-2.9701,-2.9701,-2.9683,-2.9579,-2.9262,-2.9082,-4.6804,-4.8133,-4.9218,-5.1377,-5.2481,-5.3269,-5.4209,-5.3706,-5.279,-5.1972,-5.1308,-5.0605,-4.9746,-5.0293,-5.1367,-5.2832,-5.3808,-5.4883,-5.6387,-5.6277,-5.5591,-5.4375,-5.4858,-5.4937,0.0,0.0,0.0,-5.8004,-5.8642,-5.9106,-5.9416,-5.9919,-5.9977,-5.9455,-5.9126,-5.843,-5.7299,-5.699,-5.6545,-5.6012,-5.6012,-5.6012,-5.6012,-5.6012,-5.6012,-5.6012,-5.6012,-5.6012,-5.5877,-5.4194,-5.3498,-5.3323,-5.1575,-5.0906,-5.0941,-5.0941,-5.0971,-5.1039,-5.0956,-5.0986,-5.0815,-4.9421,-4.8768,-4.8257,-4.6738,-4.5965,-4.5587,-4.5361,-4.5323,-4.5333,-4.5208,-4.4618,-4.3827,-4.2995,-4.2086,-4.1177,-4.0338,-4.0127,-4.0087,-4.0157,-4.0166,-4.0205,-4.0291,-3.9317,-3.8075,-3.671,-3.5642,-3.501,-3.5011,-3.4992,-3.4955,-3.4936,-3.4197,-3.3345,-3.2465,-3.156,-3.0657,-2.9792,-2.97,-2.971,-2.9711,-2.9701,-2.9701,-2.9701,-2.9701,-2.9701,-2.9701,-2.9701,-2.9701,-2.9701,-2.9293,-2.9097,-4.9554,-5.0693,-5.197,-5.4336,-5.439,-5.406,-5.4814,-5.3032,-5.0995,-5.0175,-4.8613,-4.7129,-4.6269,-4.6855,-4.8281,-5.0801,-5.2051,-5.3594,-5.6172,-5.5807,-5.5196,0.0,0.0,0.0,0.0,0.0,0.0,-5.7106,0.0,-5.7656,-5.8488,-5.8593,-5.8593,-5.8526,-5.7733,-5.728,-5.7222,-5.6409,-5.6012,-5.6012,-5.6012,-5.6012,-5.6012,-5.6012,-5.6012,-5.6012,-5.6012,-5.6012,-5.5877,-5.4194,-5.3498,-5.3323,-5.1583,-5.0929,-5.1005,-5.1012,-5.1053,-5.1094,-5.1027,-5.1042,-5.0959,-5.0086,-4.9252,-4.8443,-4.7563,-4.6565,-4.5691,-4.5627,-4.5574,-4.55,-4.5371,-4.4758,-4.3934,-4.3024,-4.2134,-4.1255,-4.0463,-4.0253,-4.0215,-4.0291,-4.0301,-4.0282,-4.0244,-3.882,-3.7426,-3.6615,-3.5755,-3.5193,-3.5208,-3.5147,-3.5084,-3.502,-3.4196,-3.3306,-3.2491,-3.1567,-3.0682,-2.9864,-2.9735,-2.97,-2.9711,-2.9701,-2.9701,-2.9701,-2.9701,-2.9701,-2.9701,-2.9701,-2.9701,-2.9701,-2.9293,-2.9115,-5.1178,-5.283,-5.3922,-5.4066,-5.4363,-5.4196,-5.2586,-5.1233,-4.9737,-4.7658,-4.5875,-4.4433,-4.3555,-4.4648,0.0,-4.8242,-5.0898,0.0,-5.5351,-5.5864,0.0,-5.5084,0.0,-5.5222,-5.4832,-5.5335,0.0,0.0,-5.6932,-5.7396,-5.7617,-5.8255,-5.8294,-5.7656,-5.7415,-5.699,-5.6332,-5.61,-5.6012,-5.6012,-5.6012,-5.6012,-5.6012,-5.6012,-5.6012,-5.6012,-5.6012,-5.6012,-5.5877,-5.4194,-5.3498,-5.3332,-5.1633,-5.0978,-5.1012,-5.1053,-5.1088,-5.1102,-5.1076,-5.1082,-5.0959,-5.0086,-4.927,-4.8446,-4.755,-4.6665,-4.5904,-4.5768,-4.5766,-4.5764,-4.564,-4.5357,-4.4766,-4.3308,-4.268,-4.2048,-4.0607,-4.0291,-4.0272,-4.0301,-4.0301,-4.0091,-3.9451,-3.8419,-3.7426,-3.6615,-3.5755,-3.5201,-3.5193,-3.5176,-3.5168,-3.516,-3.3827,-3.2831,-3.2567,-3.1154,-3.017,-2.9887,-2.9753,-2.97,-2.9711,-2.9701,-2.9701,-2.9701,-2.9701,-2.9701,-2.9701,-2.9701,-2.9701,-2.9683,-2.9443,-2.9241,-5.2996,-5.4396,-5.5144,-5.4427,-5.4259,-5.354,-5.0661,-4.9106,-4.7423,-4.4546,-4.2925,-4.1777,-4.0898,-4.2108,-4.4076,0.0,0.0,0.0,-5.4818,-5.579,-5.6066,0.0,-5.5802,0.0,-5.5374,-5.5741,-5.6012,0.0,-5.6448,-5.6719,-5.6719,-5.7192,-5.723,-5.6738,-5.6719,-5.6504,-5.6057,-5.602,-5.602,-5.6037,-5.602,-5.6012,-5.6012,-5.6012,-5.6012,-5.6012,0.0,-5.5808,-5.5379,-5.4044,-5.3286,-5.2845,-5.1543,-5.1041,-5.1062,-5.1095,-5.1128,-5.1139,-5.1139,-5.1139,-5.1062,-5.057,-4.9592,-4.8522,-4.8014,-4.6996,-4.5986,-4.5917,-4.5911,-4.5925,-4.5812,-4.5739,-4.5216,-4.3425,-4.2945,-4.2403,-4.0664,-4.0301,-4.0301,-4.0301,-4.0301,-4.0014,-3.9145,-3.8285,-3.7426,-3.6615,-3.5755,-3.5209,-3.5209,-3.5209,-3.5209,-3.5209,-3.3692,-3.2665,-3.2615,-3.1028,-2.9999,-2.9912,-2.9798,-2.9718,-2.9711,-2.9701,-2.9701,-2.9701,-2.9701,-2.9701,-2.9701,-2.9701,-2.9701,-2.9701,-2.9482,-2.9283,-5.4716,-5.547,-5.578,-5.4851,-5.3962,-5.2415,-4.8947,-4.6858,-4.4743,-4.1568,-4.0168,-3.9296,-3.8555,-3.9637,-4.18,-4.5293,0.0,-5.079,-5.434,-5.5539,-5.6078,-5.6194,-5.6079,-5.6012,-5.6012,-5.6012,-5.6012,-5.6012,-5.6012,-5.6012,-5.6012,-5.6012,-5.6012,-5.6012,-5.6012,-5.6029,-5.609,-5.5913,-5.5913,-5.609,-5.5913,-5.5896,-5.6012,-5.6012,-5.5993,-5.602,0.0,0.0,-5.4742,-5.3755,-5.2925,-5.2225,-5.1418,-5.1108,-5.1095,-5.1101,-5.1159,-5.1202,-5.1202,-5.1202,-5.1183,-5.1066,-4.994,-4.858,-4.8463,-4.7279,-4.6002,-4.6002,-4.6002,-4.598,-4.5925,-4.5906,-4.5446,-4.3643,-4.3099,-4.2539,-4.0844,-4.0396,-4.0301,-4.0301,-4.0301,-3.9995,-3.9011,-3.819,-3.7387,-3.6462,-3.5679,-3.5209,-3.5209,-3.5209,-3.5209,-3.5209,-3.3807,-3.2798,-3.2622,-3.1173,-3.0171,-2.9937,-2.9859,-2.979,-2.9719,-2.9729,-2.9701,-2.9701,-2.9692,-2.9701,-2.9701,-2.9701,-2.9701,-2.9701,-2.9521,-2.9378,-5.5567,-5.5896,-5.5625,-5.4116,-5.3072,-5.1366,-4.7273,-4.5043,0.0,-4.042,-3.8653,-3.7566,-3.7466,-3.8211,-3.9992,-4.3475,-4.6186,-4.9285,-5.3424,-5.4644,-5.5385,0.0,-5.6079,-5.6012,-5.6012,0.0,0.0,0.0,0.0,0.0,-5.6012,-5.6012,-5.6012,-5.6012,-5.6012,-5.6012,-5.602,-5.5354,-5.5354,-5.6001,-5.5335,-5.5354,-5.6012,-5.6012,-5.6029,-5.6043,0.0,0.0,-5.4769,-5.316,-5.2431,-5.2212,-5.1406,-5.1089,-5.1101,-5.1165,-5.1196,-5.1202,-5.1202,-5.1202,-5.1086,-5.0367,-4.9435,-4.8463,-4.7745,-4.6812,-4.6002,-4.6002,-4.6002,-4.5997,-4.598,-4.5943,-4.5641,-4.4582,-4.3651,-4.2719,-4.1684,-4.0842,-4.0301,-4.0301,-4.0301,-3.9785,-3.819,-3.7789,-3.7177,-3.5649,-3.5305,-3.5209,-3.5209,-3.5209,-3.5209,-3.5209,-3.4331,-3.349,-3.2749,-3.1764,-3.0849,-3.011,-2.9999,-2.9934,-2.987,-2.9808,-2.9764,-2.9699,-2.9692,-2.9701,-2.9701,-2.9701,-2.9701,-2.9701,-2.9655,-2.9797,-5.578,-5.6012,-5.5606,-5.3923,-5.2492,-5.0306,-4.5606,0.0,0.0,-3.7564,-3.5979,-3.5266,-3.5765,-3.6883,-3.8698,-4.1653,-4.3897,-4.6756,-5.1066,-5.2324,-5.3485,-5.5268,-5.5772,-5.6012,0.0,0.0,0.0,0.0,0.0,0.0,-5.6012,-5.6012,-5.6012,-5.6012,-5.6012,-5.5808,-5.5388,-5.5401,-5.5438,-5.542,-5.5454,-5.5694,-5.6098,-5.6098,-5.5873,-5.5444,0.0,0.0,-5.3526,-5.2698,-5.2111,-5.1684,-5.1308,-5.1139,-5.1159,-5.1196,-5.1202,-5.1202,-5.1202,-5.0891,-5.0386,-4.9512,-4.893,-4.8444,-4.757,-4.6696,-4.6002,-4.6002,-4.6002,-4.6002,-4.6002,-4.5989,-4.571,-4.4808,-4.3438,-4.2074,-4.1201,-4.0649,-4.0301,-4.0301,-4.0301,-3.9747,-3.7999,-3.7693,-3.712,-3.5458,-3.5209,-3.5209,-3.5209,-3.5209,-3.5209,-3.5209,-3.4483,-3.3826,-3.3363,-3.2145,-3.1219,-3.0749,-3.0269,-2.9975,-2.9891,-2.9866,-2.9841,-2.9798,-2.9764,-2.9728,-2.971,-2.9701,-2.9701,-2.9701,-3.0133,-3.0088,-5.5528,-5.5741,-5.5374,-5.3884,-5.1912,-4.9126,-4.4375,-4.1228,-3.8397,-3.5166,-3.3842,-3.3548,-3.4428,-3.5486,-3.7193,-4.0068,-4.1648,-4.4047,-4.8534,-5.0016,-5.1621,0.0,-5.5238,0.0,-5.5993,0.0,0.0,0.0,0.0,0.0,0.0,-5.6012,-5.6012,-5.6012,-5.6012,-5.57,-5.5072,-5.5523,-5.554,-5.5171,-5.5626,-5.5878,-5.5928,-5.5928,-5.5443,-5.4636,0.0,0.0,0.0,-5.2208,-5.178,-5.1202,-5.1202,-5.1202,-5.1202,-5.1202,-5.1202,-5.1163,-5.0989,-5.0464,-4.9732,-4.8677,-4.8327,-4.8153,-4.7298,-4.654,-4.6002,-4.6002,-4.6002,-4.6002,-4.6002,-4.6002,-4.5728,-4.4588,-4.3011,-4.1505,-4.0595,-4.036,-4.0319,-4.0291,-4.0301,-3.9747,-3.7999,-3.7693,-3.712,-3.5458,-3.5209,-3.5209,-3.5209,-3.5209,-3.5209,-3.5209,-3.4636,-3.417,-3.3947,-3.2535,-3.1588,-3.1366,-3.0521,-3.0003,-2.9956,-2.9948,-2.9924,-2.9893,-2.9834,-2.9857,-2.9991,-2.9955,-2.9964,-2.9964,-3.0564,-3.0394,-5.4677,-5.4909,-5.4677,-5.373,-5.1041,-4.7683,-4.4105,0.0,-3.7596,-3.503,-3.3803,-3.349,-3.4345,-3.3938,-3.4841,-3.9029,-3.9791,-4.1622,-4.6705,-4.8793,-5.077,-5.3323,0.0,0.0,0.0,0.0,0.0,0.0,0.0,0.0,0.0,-5.6012,-5.6012,-5.6012,-5.6012,-5.599,-5.5982,-5.5265,-5.53,-5.6063,-5.5346,-5.5016,-5.5028,-5.5028,-5.4585,-5.3766,0.0,0.0,0.0,-5.1604,-5.1274,-5.1202,-5.1202,-5.1202,-5.1202,-5.1202,-5.1202,-5.1086,-5.0289,-4.9965,-4.9635,-4.7958,-4.7414,-4.7259,-4.6385,-4.606,-4.6002,-4.6002,-4.6002,-4.6002,-4.6002,-4.6002,-4.5553,-4.3838,-4.2672,-4.1674,-4.0627,-4.0397,-4.0366,-4.031,-4.0301,-3.9747,-3.7999,-3.7693,-3.712,-3.5458,-3.5209,-3.5209,-3.5209,-3.5209,-3.5209,-3.5209,-3.5133,-3.4789,-3.4044,-3.3119,-3.2271,-3.1527,-3.0667,-3.015,-3.0087,-3.0083,-3.0022,-2.9888,-2.9832,-3.0158,-3.0885,-3.0828,-3.0781,-3.0799,-3.0679,-3.0854,-5.2859,-5.3614,-5.3672,-5.2279,-4.9765,-4.6716,-4.3299,-3.9505,-3.6114,-3.4091,-3.2574,-3.1909,-3.2775,-3.2626,-3.3446,-3.6726,-3.6797,-3.8053,-4.2705,-4.4337,-4.6399,-4.9997,-5.2086,0.0,0.0,0.0,0.0,0.0,0.0,0.0,0.0,-5.6012,-5.6012,-5.6012,-5.6012,-5.5777,-5.5323,-5.5498,-5.5529,-5.5402,-5.5072,-5.4924,-5.4944,-5.442,-5.3715,-5.2893,0.0,0.0,0.0,-5.1338,-5.1202,-5.1202,-5.1202,-5.1202,-5.1202,-5.1202,-5.1202,-5.1086,-5.0198,-4.9557,-4.891,-4.7706,-4.6948,-4.6443,-4.6118,-4.6002,-4.6002,-4.6002,-4.6002,-4.6002,-4.6002,-4.5633,-4.4962,-4.3726,-4.2687,-4.175,-4.0829,-4.0508,-4.0389,-4.0368,-4.0327,-3.9747,-3.7999,-3.7693,-3.712,-3.5458,-3.5209,-3.5209,-3.5209,-3.5209,-3.5209,-3.5209,-3.5209,-3.4866,-3.4071,-3.3196,-3.2355,-3.156,-3.0682,-3.0171,-3.0101,-3.0094,-3.0068,-2.9964,-2.9893,-3.024,-3.1007,-3.0932,-3.1156,-3.1625,-3.1947,-3.1908,-5.0925,-5.1912,-5.2086,-5.084,-4.8244,-4.5272,-4.2634,-3.8568,-3.4923,-3.3441,-3.1779,-3.0877,-3.1734,-3.1695,-3.237,-3.4923,-3.4827,-3.5824,-3.9841,-4.1345,-4.3415,0.0,0.0,0.0,0.0,0.0,0.0,0.0,0.0,0.0,0.0,-5.5283,-5.5515,-5.601,-5.5777,-5.5377,-5.4839,-5.5207,-5.5101,-5.455,-5.4543,-5.4421,-5.4213,-5.3591,-5.2853,0.0,0.0,0.0,0.0,-5.1202,-5.1202,-5.1202,-5.1202,-5.1202,-5.1202,-5.1202,-5.1047,-5.0697,-4.9823,-4.893,-4.8075,-4.7201,-4.6502,-4.6002,-4.6002,-4.6002,-4.6002,-4.6002,-4.6002,-4.6002,-4.6002,-4.52,-4.4268,-4.3646,-4.2571,-4.1513,-4.0942,-4.0648,-4.0492,-4.0422,-4.036,-3.9764,-3.8007,-3.7693,-3.712,-3.5458,-3.5209,-3.5209,-3.5209,-3.5209,-3.5209,-3.5209,-3.4999,-3.4713,-3.4369,-3.3566,-3.2718,-3.1904,-3.1045,-3.0419,-3.0101,-3.0094,-3.0183,-3.0352,-3.0261,-3.0721,-3.1704,-3.1393,-3.1643,-3.2398,-3.2568,-3.2341,-4.903,-4.9726,-4.9745,-4.9726,-4.6498,-4.3118,-4.2296,-3.816,-3.4254,-3.3389,-3.1805,-3.0877,-3.1734,-3.1211,-3.1478,-3.409,-3.4497,-3.5674,-3.9038,-4.1007,-4.3028,0.0,0.0,0.0,0.0,0.0,0.0,0.0,0.0,0.0,0.0,0.0,-5.4393,-5.6059,-5.5257,-5.4831,-5.4892,-5.4122,-5.3715,-5.3714,-5.3714,-5.3261,-5.2426,-5.2426,0.0,0.0,0.0,0.0,0.0,-5.1202,-5.1202,-5.1202,-5.1202,-5.1202,-5.1202,-5.1202,-5.0658,-4.979,-4.891,-4.8036,-4.7181,-4.6307,-4.6021,-4.6002,-4.6002,-4.6002,-4.6002,-4.6002,-4.6002,-4.6002,-4.6002,-4.4753,-4.3505,-4.3505,-4.217,-4.0883,-4.0818,-4.0794,-4.072,-4.0454,-4.0406,-3.9827,-3.8006,-3.7693,-3.712,-3.5458,-3.5209,-3.5209,-3.5209,-3.5209,-3.5209,-3.5209,-3.4483,-3.4331,-3.5114,-3.4445,-3.3605,-3.2737,-3.1878,-3.1004,-3.014,-3.0098,-3.0437,-3.1174,-3.1069,-3.1779,-3.3378,-3.25,-3.2424,-3.3059,-3.2087,-3.183,-4.4279,-4.5344,-4.5944,-4.4782,-4.3046,-4.1211,-3.9827,-3.6905,-3.4254,-3.3369,-3.1805,-3.0692,-3.1018,-3.0824,-3.1463,-3.4063,-3.4496,-3.5485,0.0,0.0,0.0,0.0,0.0,0.0,0.0,0.0,0.0,0.0,0.0,0.0,0.0,0.0,-5.3797,-5.4374,-5.4122,-5.4008,-5.4084,-5.3831,-5.3696,-5.3695,-5.3106,-5.2659,-5.2387,-5.1824,0.0,0.0,0.0,0.0,0.0,-5.1202,-5.1202,-5.1202,-5.1202,-5.1202,-5.1125,-5.0522,-5.014,-4.9693,-4.8211,-4.7531,-4.7162,-4.6268,-4.6002,-4.6002,-4.6002,-4.6002,-4.6002,-4.6002,-4.6002,-4.5866,-4.5317,-4.4345,-4.3355,-4.2753,-4.1723,-4.0883,-4.0873,-4.0821,-4.0739,-4.0566,-4.0469,-4.0019,-3.8809,-3.8094,-3.733,-3.6252,-3.5583,-3.5209,-3.5209,-3.5209,-3.5209,-3.5209,-3.498,-3.4694,-3.4407,-3.3605,-3.2756,-3.1935,-3.2145,-3.1901,-3.1012,-3.1512,-3.1903,-3.2079,-3.1992,-3.2468,-3.3476,-3.316,-3.3239,-3.3698,-3.3256,-3.304,-4.1156,-4.2369,-4.2917,-4.1871,-4.0726,-3.9503,-3.8126,-3.5839,-3.377,-3.2895,-3.1588,-3.0614,-3.0645,-3.0653,-3.1262,-3.321,-3.3788,-3.4899,0.0,0.0,0.0,0.0,0.0,0.0,0.0,0.0,0.0,0.0,0.0,0.0,0.0,0.0,-5.2632,-5.2686,-5.2989,-5.3164,-5.321,-5.2913,-5.2757,-5.2756,-5.2212,-5.196,-5.1921,0.0,0.0,0.0,0.0,0.0,0.0,-5.1202,-5.1202,-5.1202,-5.1202,-5.1008,-5.0639,-5.0101,-4.9479,-4.8755,-4.7686,-4.7084,-4.6715,-4.6177,-4.6002,-4.6002,-4.6002,-4.6002,-4.6002,-4.6002,-4.5788,-4.5433,-4.4928,-4.3918,-4.2869,-4.233,-4.1529,-4.0907,-4.0907,-4.0842,-4.077,-4.0635,-4.0492,-4.0,-3.8732,-3.8056,-3.7311,-3.6175,-3.5545,-3.5209,-3.5209,-3.5209,-3.5209,-3.5209,-3.4923,-3.4674,-3.4464,-3.3968,-3.3291,-3.2497,-3.2917,-3.2787,-3.1897,-3.2332,-3.2722,-3.2988,-3.29,-3.3223,-3.3996,-3.3757,-3.3601,-3.3561,-3.3565,-3.352,0.0,-4.0294,-4.0336,-4.0278,-3.9081,-3.7729,-3.693,-3.4855,0.0,-3.2068,-3.1211,-3.0629,-3.0687,-3.0704,-3.1006,-3.1937,-3.2822,-3.4253,0.0,-3.8748,0.0,0.0,0.0,0.0,0.0,0.0,0.0,0.0,0.0,0.0,0.0,0.0,0.0,-5.119,-5.1923,-5.2318,-5.2318,-5.1573,-5.1202,-5.1202,-5.1202,-5.1202,-5.1202,0.0,0.0,0.0,0.0,0.0,0.0,-5.1047,-5.1027,-5.1027,-5.1027,-5.0522,-4.9809,-4.9751,-4.8696,-4.7293,-4.724,-4.6676,-4.6002,-4.6002,-4.6002,-4.5982,-4.5924,-4.5944,-4.5982,-4.5924,-4.5375,-4.4773,-4.4656,-4.3413,-4.2175,-4.2116,-4.149,-4.0907,-4.0878,-4.0837,-4.077,-4.0602,-4.0485,-3.9846,-3.8082,-3.7731,-3.7158,-3.5534,-3.5248,-3.5209,-3.5209,-3.5209,-3.5209,-3.5209,-3.4522,-3.4388,-3.5152,-3.5152,-3.4808,-3.4052,-3.4052,-3.3665,-3.2737,-3.2746,-3.3143,-3.388,-3.3752,-3.4045,-3.4788,-3.4257,-3.3616,-3.289,-3.3249,-3.3393,-3.4738,0.0,-3.5824,-3.515,-3.4736,-3.4423,0.0,-3.3196,-3.2225,-3.2016,-3.1286,-3.0871,-3.1546,-3.1131,-3.1402,-3.3534,-3.4628,-3.5848,-3.7739,0.0,0.0,0.0,0.0,0.0,0.0,0.0,0.0,0.0,0.0,0.0,0.0,0.0,0.0,-5.1121,-5.136,-5.1482,-5.1482,-5.1293,-5.1202,-5.1202,-5.1202,-5.1202,-5.1202,0.0,0.0,0.0,0.0,0.0,-5.0159,-4.9493,-4.9202,-4.9202,-4.9202,-4.9085,-4.8813,-4.8153,-4.7648,-4.7201,-4.654,-4.6177,-4.6002,-4.6002,-4.6002,-4.5885,-4.5258,-4.5511,-4.5866,-4.5258,-4.4948,-4.4481,-4.3166,-4.2505,-4.2039,-4.1354,-4.1043,-4.0893,-4.0826,-4.0812,-4.0726,-4.0492,-4.0422,-4.0038,-3.8885,-3.8132,-3.7368,-3.6347,-3.5621,-3.5209,-3.5209,-3.5209,-3.5209,-3.5209,-3.5037,-3.4999,-3.519,-3.4636,-3.4197,-3.4014,-3.4579,-3.4541,-3.3711,-3.4249,-3.4683,-3.4869,-3.4642,-3.4592,-3.4708,-3.4233,-3.3906,-3.3708,-3.35,-3.3393,-3.2051,-3.3254,-3.438,-3.3918,-3.3821,-3.3747,-3.3355,-3.2579,-3.1856,-3.1472,-3.1025,-3.0828,-3.1282,-3.1328,-3.1876,-3.3619,-3.4941,0.0,0.0,0.0,0.0,0.0,0.0,0.0,0.0,0.0,0.0,0.0,0.0,0.0,0.0,0.0,0.0,0.0,-5.0,-5.0381,-5.1139,-5.1177,-5.1202,-5.1202,-5.0794,-5.06,-5.0581,0.0,0.0,0.0,0.0,0.0,-4.9265,-4.8794,-4.8599,-4.8599,-4.8599,-4.8366,-4.7958,-4.7473,-4.7045,-4.6638,-4.6157,-4.6002,-4.6002,-4.6002,-4.5749,-4.5375,-4.4928,-4.4812,-4.4753,-4.4326,-4.3918,-4.3394,-4.2447,-4.1903,-4.1471,-4.1005,-4.0878,-4.0837,-4.0806,-4.0707,-4.0559,-4.043,-4.0375,-4.0076,-3.9154,-3.8285,-3.7426,-3.6615,-3.5755,-3.5209,-3.5209,-3.5209,-3.5209,-3.5209,-3.5209,-3.5209,-3.5209,-3.4808,-3.4541,-3.4541,-3.4961,-3.4999,-3.456,-3.498,-3.5196,-3.5155,-3.4927,-3.4772,-3.4747,-3.4245,-3.3998,-3.3985,-3.3591,-3.3393,-3.0831,-3.2551,-3.426,-3.4148,-3.4209,-3.4081,-3.3207,-3.2442,-3.1666,-3.0878,-3.0792,-3.0909,-3.0986,-3.1763,-3.2648,-3.3453,0.0,0.0,0.0,0.0,0.0,0.0,0.0,0.0,0.0,0.0,0.0,0.0,0.0,0.0,0.0,0.0,0.0,0.0,-4.8599,-4.9287,-5.07,-5.0763,-5.0872,-5.0989,-5.0114,-4.9693,-4.9673,-4.893,0.0,0.0,0.0,0.0,-4.8386,-4.825,-4.8191,-4.8191,-4.8191,-4.7745,-4.7104,-4.7104,-4.6638,-4.6002,-4.6002,-4.6002,-4.5982,-4.5866,-4.5356,-4.4753,-4.4481,-4.3899,-4.3277,-4.3141,-4.2675,-4.2175,-4.2039,-4.1451,-4.0907,-4.0907,-4.0853,-4.0812,-4.0782,-4.06,-4.0422,-4.0381,-4.0239,-3.9823,-3.8954,-3.8094,-3.7234,-3.6424,-3.566,-3.5209,-3.5209,-3.5209,-3.5209,-3.5209,-3.5209,-3.5209,-3.5209,-3.5209,-3.5209,-3.5209,-3.5209,-3.5201,-3.5193,-3.5193,-3.5151,-3.5075,-3.4879,-3.4782,-3.4778,-3.4281,-3.4036,-3.3985,-3.3633,-3.3422,-3.1534,-3.2543,-3.3231,-3.2547,-3.2905,-3.3188,-3.2369,-3.2047,-3.167,-3.0877,-3.1235,-3.1938,-3.2671,-3.3512,-3.4375,0.0,0.0,0.0,0.0,0.0,0.0,0.0,0.0,0.0,0.0,0.0,0.0,0.0,0.0,0.0,0.0,0.0,0.0,0.0,0.0,-4.8716,-4.8982,-4.8988,-4.9376,-5.0101,-4.9221,-4.8794,-4.8794,-4.8658,-4.8599,0.0,0.0,-4.7512,-4.7434,-4.6696,-4.641,-4.641,-4.641,-4.6313,-4.6191,-4.6191,-4.6118,-4.6002,-4.6002,-4.6002,-4.5885,-4.52,-4.4889,-4.452,-4.3049,-4.2505,-4.2248,-4.151,-4.1723,-4.2039,-4.1296,-4.1005,-4.0907,-4.0907,-4.0898,-4.0833,-4.0675,-4.0607,-4.0527,-4.0345,-3.9708,-3.8916,-3.8056,-3.7215,-3.6385,-3.5526,-3.5286,-3.5209,-3.5209,-3.5209,-3.5209,-3.5209,-3.5209,-3.5209,-3.5209,-3.5209,-3.5209,-3.5209,-3.5209,-3.5212,-3.5189,-3.5189,-3.511,-3.4936,-3.4851,-3.4762,-3.4708,-3.4397,-3.4173,-3.3998,-3.3766,-3.3563,-3.1138,-3.1852,-3.2512,-3.2629,-3.3289,-3.3809,-3.3448,-3.2986,-3.254,-3.2132,-3.2353,-3.2729,-3.3128,0.0,-3.5878,-3.8093,0.0,0.0,0.0,0.0,0.0,0.0,0.0,0.0,0.0,0.0,0.0,0.0,0.0,0.0,0.0,0.0,0.0,0.0,0.0,0.0,-4.79,-4.7434,-4.7861,-4.9182,-4.8308,-4.79,-4.7881,-4.7414,-4.7201,0.0,0.0,-4.6599,-4.656,-4.6177,-4.6002,-4.6002,-4.6002,-4.6002,-4.6002,-4.6002,-4.6002,-4.6002,-4.6002,-4.573,-4.5297,-4.4928,-4.4151,-4.3243,-4.2447,-4.1864,-4.1412,-4.1005,-4.1199,-4.1412,-4.1005,-4.0907,-4.0907,-4.0907,-4.0873,-4.0804,-4.0648,-4.0545,-4.0303,-3.9716,-3.9279,-3.8725,-3.7846,-3.7024,-3.6366,-3.5965,-3.5488,-3.5209,-3.5209,-3.5209,-3.5209,-3.5209,-3.5209,-3.5209,-3.5209,-3.5209,-3.5209,-3.5209,-3.5209,-3.5201,-3.5196,-3.5172,-3.5084,-3.4955,-3.485,-3.4769,-3.4697,-3.4439,-3.4197,-3.3998,-3.3775,-3.3591,-3.0607,-3.1122,-3.1792,-3.2678,-3.3555,-3.4301,-3.4717,-3.4162,-3.3627,-3.3774,-3.3956,-3.4098,-3.4099,-3.5626,0.0,-4.0652,0.0,0.0,0.0,0.0,0.0,0.0,0.0,0.0,0.0,0.0,0.0,0.0,0.0,0.0,0.0,0.0,0.0,0.0,0.0,0.0,-4.6987,-4.6327,-4.6773,-4.8289,-4.7414,-4.7007,-4.6968,-4.6307,-4.6002,-4.6002,-4.6002,-4.6002,-4.6002,-4.6002,-4.6002,-4.6002,-4.6002,-4.6002,-4.6002,-4.6002,-4.6002,-4.5963,-4.5788,-4.5317,-4.4734,-4.4326,-4.3302,-4.2155,-4.1961,-4.1432,-4.0907,-4.0907,-4.0907,-4.0907,-4.0907,-4.0907,-4.0907,-4.0907,-4.0858,-4.0781,-4.0622,-4.0369,-3.9925,-3.9162,-3.8686,-3.8209,-3.7521,-3.6738,-3.6194,-3.6194,-3.5621,-3.5209,-3.5209,-3.5209,-3.5209,-3.5209,-3.5209,-3.5209,-3.5209,-3.5209,-3.5209,-3.5209,-3.5209,-3.5201,-3.5193,-3.5145,-3.5075,-3.4983,-3.4859,-3.4759,-3.4697,-3.4484,-3.4245,-3.3998,-3.3842,-3.3647,-3.0388,-3.0651,-3.091,-3.1772,-3.2653,-3.3717,-3.5348,-3.5033,-3.4641,-3.5456,-3.6202,-3.6731,-3.6731,-3.8769,-4.0784,0.0,0.0,0.0,0.0,0.0,0.0,0.0,0.0,0.0,0.0,0.0,0.0,0.0,0.0,0.0,0.0,0.0,0.0,0.0,0.0,0.0,-4.6099,-4.6041,-4.6463,-4.737,-4.6502,-4.6099,-4.6099,-4.6041,-4.6002,-4.6002,-4.6002,-4.6002,-4.6002,-4.6002,-4.6002,-4.6002,-4.6002,-4.6002,-4.6002,-4.6002,-4.6002,-4.5885,-4.5142,-4.4851,-4.452,-4.2913,-4.2311,-4.2058,-4.1238,-4.0946,-4.0907,-4.0907,-4.0907,-4.0907,-4.0907,-4.0907,-4.0907,-4.0907,-4.0903,-4.0839,-4.0636,-3.997,-3.9295,-3.9045,-3.7742,-3.6653,-3.6596,-3.587,-3.5278,-3.5278,-3.5248,-3.5209,-3.5209,-3.5209,-3.5209,-3.5209,-3.5209,-3.5209,-3.5209,-3.5209,-3.5209,-3.5209,-3.5209,-3.5204,-3.5208,-3.52,-3.5092,-3.4917,-3.4841,-3.4781,-3.4697,-3.4623,-3.4374,-3.3998,-3.3985,-3.378,-2.9753,-3.0225,-3.0813,-3.1675,-3.2551,-3.365,-3.5345,-3.6352,-3.7147,-3.7948,-3.8806,-3.9412,-3.9372,0.0,-4.1309,0.0,0.0,0.0,0.0,0.0,0.0,0.0,0.0,0.0,0.0,0.0,0.0,0.0,0.0,0.0,0.0,0.0,0.0,0.0,0.0,0.0,0.0,-4.6002,-4.6177,-4.6482,-4.6157,-4.6002,-4.6002,-4.6002,-4.6002,-4.6002,-4.6002,-4.6002,-4.6002,-4.6002,-4.6002,-4.6002,-4.6002,-4.6002,-4.6002,-4.6002,-4.5691,-4.52,-4.4909,-4.4093,-4.3068,-4.2408,-4.1825,-4.1335,-4.1005,-4.0907,-4.0907,-4.0907,-4.0907,-4.0907,-4.0907,-4.0907,-4.0907,-4.0907,-4.0907,-4.0878,-4.0757,-4.0404,-3.9755,-3.855,-3.7734,-3.6929,-3.587,-3.5411,-3.5209,-3.5209,-3.5209,-3.5209,-3.5209,-3.5209,-3.5209,-3.5209,-3.5209,-3.5209,-3.5209,-3.5209,-3.5209,-3.5209,-3.5209,-3.5201,-3.5204,-3.5198,-3.5147,-3.502,-3.4917,-3.4841,-3.4821,-3.4759,-3.4572,-3.4305,-3.4136,-3.3881,-2.9435,-2.9965,-3.0804,-3.1689,-3.2759,-3.4057,-3.5727,-3.7279,-3.8748,-4.0089,-4.0856,-4.1265,-4.125,-4.1251,0.0,0.0,0.0,0.0,0.0,0.0,0.0,0.0,0.0,0.0,0.0,0.0,0.0,0.0,0.0,0.0,0.0,0.0,0.0,0.0,0.0,0.0,0.0,-4.5356,-4.5356,-4.5613,-4.5613,-4.5749,-4.6002,-4.6002,-4.6002,-4.6002,-4.6002,-4.6002,-4.6002,-4.6002,-4.6002,-4.6002,-4.6002,-4.5846,-4.5613,-4.5613,-4.5103,-4.4345,-4.4074,-4.3204,-4.2155,-4.1883,-4.1393,-4.0907,-4.0907,-4.0907,-4.0907,-4.0907,-4.0907,-4.0907,-4.0907,-4.0907,-4.0907,-4.0907,-4.0907,-4.0811,-4.0469,-4.0089,-3.9352,-3.7786,-3.7174,-3.6623,-3.5755,-3.5602,-3.5602,-3.5602,-3.5602,-3.5507,-3.5248,-3.5209,-3.5209,-3.5209,-3.5209,-3.5209,-3.5209,-3.5209,-3.5209,-3.5209,-3.5209,-3.5209,-3.5209,-3.5196,-3.5181,-3.5138,-3.502,-3.4945,-3.4936,-3.4831,-3.4708,-3.4495,-3.4221,-3.3959,-2.9537,-2.9934,-3.0805,-3.1687,-3.3231,-3.4967,-3.6642,-3.771,-3.9088,-4.1683,-4.2153,-4.2122,-4.2183,-4.2153,0.0,0.0,0.0,0.0,0.0,0.0,0.0,0.0,0.0,0.0,0.0,0.0,0.0,0.0,0.0,0.0,0.0,0.0,0.0,0.0,0.0,0.0,0.0,-4.3938,-4.3938,-4.4792,-4.4792,-4.52,-4.5982,-4.5982,-4.6002,-4.5982,-4.6002,-4.6002,-4.6002,-4.6002,-4.6002,-4.6002,-4.6002,-4.5511,-4.4792,-4.4792,-4.4248,-4.3355,-4.25,-4.2194,-4.2058,-4.1179,-4.0907,-4.0907,-4.0907,-4.0907,-4.0907,-4.0907,-4.0907,-4.0907,-4.0907,-4.0907,-4.0907,-4.0907,-4.0907,-4.0636,-3.9699,-3.8761,-3.7816,-3.6805,-3.5852,-3.5496,-3.6347,-3.65,-3.65,-3.65,-3.6481,-3.6175,-3.5297,-3.5209,-3.5209,-3.5209,-3.5209,-3.5209,-3.5209,-3.5209,-3.5209,-3.5209,-3.5209,-3.5209,-3.5209,-3.5209,-3.5204,-3.52,-3.5138,-3.5075,-3.5001,-3.486,-3.4701,-3.4495,-3.4221,-3.3959,-2.8674,-2.9513,-3.0955,-3.2444,-3.456,-3.686,-3.9154,-4.038,-4.1606,-4.3566,-4.2998,-4.2188,-4.2194,-4.2175,0.0,0.0,0.0,0.0,0.0,0.0,0.0,0.0,0.0,0.0,0.0,0.0,0.0,0.0,0.0,0.0,0.0,0.0,0.0,0.0,0.0,0.0,0.0,0.0,-4.3622,-4.3899,-4.3899,-4.4015,-4.4287,-4.5453,-4.5691,-4.5181,-4.5749,-4.6002,-4.6002,-4.6002,-4.6002,-4.6002,-4.6002,-4.5511,-4.4792,-4.4792,-4.386,-4.2539,-4.2291,-4.1806,-4.1238,-4.0985,-4.0907,-4.0907,-4.0907,-4.0907,-4.0907,-4.0907,-4.0907,-4.0907,-4.0907,-4.0907,-4.0907,-4.0907,-4.0907,-4.067,-3.983,-3.9356,-3.8626,-3.7057,-3.6933,-3.6971,-3.6574,-3.65,-3.65,-3.65,-3.5984,-3.5488,-3.5229,-3.5209,-3.5209,-3.5209,-3.5209,-3.5209,-3.5209,-3.5209,-3.5209,-3.5209,-3.5209,-3.5209,-3.5209,-3.5209,-3.5201,-3.5204,-3.5181,-3.5155,-3.5138,-3.5011,-3.4851,-3.4693,-3.4333,-3.4074,-2.9227,-3.0317,-3.2019,-3.3766,-3.5611,-3.7757,-4.0663,-4.2028,-4.307,-4.445,-4.3382,-4.2198,-4.2209,-4.2204,0.0,0.0,0.0,0.0,0.0,0.0,0.0,0.0,0.0,0.0,0.0,0.0,0.0,0.0,0.0,0.0,0.0,0.0,0.0,0.0,0.0,0.0,0.0,0.0,0.0,-4.2986,-4.2986,-4.2792,-4.2539,-4.4598,-4.5433,-4.5297,-4.5788,-4.6002,-4.5982,-4.5672,-4.5511,-4.5491,-4.5142,-4.4501,-4.3763,-4.3763,-4.2869,-4.1684,-4.1684,-4.1335,-4.0907,-4.0907,-4.0907,-4.0907,-4.0907,-4.0907,-4.0907,-4.0907,-4.0907,-4.0907,-4.0907,-4.0655,-4.0422,-4.0422,-4.0422,-4.0092,-3.8926,-3.8554,-3.8028,-3.6562,-3.6887,-3.721,-3.6602,-3.6767,-3.6863,-3.6557,-3.5755,-3.5209,-3.5209,-3.5209,-3.5209,-3.5209,-3.5209,-3.5209,-3.5209,-3.5209,-3.5209,-3.5209,-3.5209,-3.5209,-3.5209,-3.5209,-3.5209,-3.5209,-3.5206,-3.52,-3.52,-3.5048,-3.4908,-3.4783,-3.4435,-3.4221,-3.0462,-3.1715,-3.3432,-3.533,-3.6644,-3.8272,-4.1408,-4.2712,-4.3524,-4.4388,0.0,-4.2101,-4.2189,0.0,0.0,0.0,0.0,0.0,0.0,0.0,0.0,0.0,0.0,0.0,0.0,0.0,0.0,0.0,0.0,0.0,0.0,0.0,0.0,0.0,0.0,0.0,0.0,0.0,0.0,0.0,-4.2116,-4.1704,-4.1102,-4.3646,-4.52,-4.5885,-4.5808,-4.5769,-4.573,-4.4986,-4.4676,-4.4598,-4.3821,-4.2966,-4.2194,-4.2194,-4.1646,-4.0907,-4.0907,-4.0907,-4.0907,-4.0907,-4.0907,-4.0907,-4.0907,-4.0907,-4.0907,-4.0907,-4.0907,-4.0907,-4.0907,-4.0305,-3.9679,-3.9601,-3.9582,-3.914,-3.7469,-3.6993,-3.6646,-3.5674,-3.6111,-3.6592,-3.6506,-3.712,-3.7311,-3.65,-3.5698,-3.5209,-3.5209,-3.5209,-3.5209,-3.5209,-3.5209,-3.5209,-3.5209,-3.5209,-3.5209,-3.5209,-3.5209,-3.5209,-3.5209,-3.5209,-3.5209,-3.5209,-3.5206,-3.52,-3.5191,-3.4992,-3.486,-3.4773,-3.452,-3.4351,-2.9384,-3.081,-3.2827,-3.595,-3.8877,-4.1219,-4.1997,-4.2313,-4.2507,-4.2651,-4.1883,-4.1388,0.0,0.0,0.0,0.0,0.0,0.0,0.0,0.0,0.0,0.0,0.0,0.0,0.0,0.0,0.0,0.0,0.0,0.0,0.0,0.0,0.0,0.0,0.0,0.0,-4.3505,-4.2442,-4.2019,0.0,-4.151,-4.1432,-4.2,-4.3918,-4.4889,-4.5025,-4.4326,-4.4035,-4.4015,-4.386,-4.3782,-4.3763,-4.3563,-4.2966,-4.2194,-4.2194,-4.1646,-4.0907,-4.0907,-4.0907,-4.0907,-4.0907,-4.0907,-4.0907,-4.0907,-4.0907,-4.0907,-4.0907,-4.0907,-4.0907,-4.0907,-4.0305,-3.9528,-3.8829,-3.8678,-3.8382,-3.7333,-3.7087,-3.675,-3.5705,-3.619,-3.6699,-3.6523,-3.6634,-3.6462,-3.5602,-3.5316,-3.5209,-3.5209,-3.5209,-3.5209,-3.5209,-3.5209,-3.5209,-3.5209,-3.5209,-3.5209,-3.5209,-3.5209,-3.5209,-3.5209,-3.5209,-3.5209,-3.5209,-3.5206,-3.5147,-3.5029,-3.4945,-3.484,-3.4718,-3.4506,-3.4351,-2.8851,-3.0525,-3.273,-3.6656,-3.9279,-4.1006,-4.1429,-4.1556,-4.1562,-4.1526,-4.1189,0.0,0.0,0.0,0.0,0.0,0.0,0.0,0.0,0.0,0.0,0.0,0.0,0.0,0.0,0.0,0.0,0.0,0.0,0.0,0.0,0.0,0.0,0.0,0.0,0.0,-4.2889,-4.2015,-4.1587,-4.1568,-4.1121,-4.1354,-4.2233,-4.3569,-4.419,-4.4151,-4.3704,-4.3505,-4.3466,-4.3044,-4.2889,-4.283,-4.2422,-4.1976,-4.1587,-4.1587,-4.1296,-4.0907,-4.0907,-4.0907,-4.0907,-4.0907,-4.0907,-4.0907,-4.0907,-4.0907,-4.0907,-4.0907,-4.0907,-4.081,-4.0422,-3.9703,-3.8868,-3.7974,-3.778,-3.7547,-3.6673,-3.6479,-3.6293,-3.5709,-3.6253,-3.6613,-3.6075,-3.5911,-3.5717,-3.5267,-3.5209,-3.5209,-3.5209,-3.5209,-3.5209,-3.5209,-3.5209,-3.5209,-3.5209,-3.5209,-3.5209,-3.5209,-3.5209,-3.5209,-3.5209,-3.5209,-3.5209,-3.5209,-3.5206,-3.5174,-3.5111,-3.5001,-3.4889,-3.4781,-3.4666,-3.455,-2.7988,-3.0297,-3.3001,-3.7068,-3.8722,-3.9591,-4.041,-4.0639,-4.0738,-4.0873,0.0,0.0,0.0,0.0,0.0,0.0,0.0,0.0,0.0,0.0,0.0,0.0,0.0,0.0,0.0,0.0,0.0,0.0,0.0,0.0,0.0,0.0,0.0,0.0,0.0,-4.2427,-4.2427,-4.1568,-4.1121,-4.1121,-4.0966,-4.1276,-4.2,-4.2714,-4.3141,-4.3277,-4.3122,-4.3044,-4.3005,-4.2267,-4.1981,-4.1903,-4.1179,-4.0907,-4.0907,-4.0907,-4.0907,-4.0907,-4.0907,-4.0907,-4.0907,-4.0907,-4.0907,-4.0907,-4.0907,-4.0907,-4.0907,-4.0907,-4.0907,-4.0752,-4.0092,-3.9159,-3.8212,-3.7508,-3.7081,-3.6673,-3.595,-3.5795,-3.5773,-3.5703,-3.6161,-3.6291,-3.5494,-3.5273,-3.5209,-3.5209,-3.5209,-3.5209,-3.5209,-3.5209,-3.5209,-3.5209,-3.5209,-3.5209,-3.5209,-3.5209,-3.5209,-3.5209,-3.5209,-3.5209,-3.5209,-3.5209,-3.5209,-3.5209,-3.5206,-3.52,-3.5191,-3.5066,-3.4974,-3.4908,-3.484,-3.4798,-2.5499,-2.9399,-3.3606,-3.645,-3.7821,-3.8699,0.0,0.0,-4.0063,0.0,0.0,0.0,0.0,0.0,0.0,0.0,0.0,0.0,0.0,0.0,0.0,0.0,0.0,0.0,0.0,0.0,0.0,0.0,0.0,0.0,0.0,0.0,-4.3505,-4.3505,-4.3394,0.0,-4.3335,-4.2461,-4.2039,-4.2019,-4.1257,-4.0966,-4.1082,-4.1199,-4.1665,-4.233,-4.1587,-4.1257,-4.1238,-4.1121,-4.1063,-4.1063,-4.0946,-4.0907,-4.0907,-4.0907,-4.0907,-4.0907,-4.0907,-4.0907,-4.0907,-4.0907,-4.0907,-4.0907,-4.0907,-4.0907,-4.0907,-4.0907,-4.0907,-4.0888,-4.0771,-3.9587,-3.8367,-3.8251,-3.7061,-3.5931,-3.5834,-3.5795,-3.5773,-3.5703,-3.5643,-3.5506,-3.5269,-3.5218,-3.5209,-3.5209,-3.5209,-3.5209,-3.5209,-3.5209,-3.5209,-3.5209,-3.5209,-3.5209,-3.5209,-3.5209,-3.5209,-3.5209,-3.5209,-3.5209,-3.5209,-3.5209,-3.5209,-3.5209,-3.5206,-3.5164,-3.5101,-3.5048,-3.4974,-3.4908,-3.4898,-3.4889,-2.6688,-3.0014,-3.3151,-3.6222,-3.7327,-3.7846,-3.8671,-3.8927,-3.9217,0.0,0.0,0.0,0.0,0.0,0.0,0.0,0.0,0.0,0.0,0.0,0.0,0.0,0.0,0.0,0.0,0.0,0.0,0.0,0.0,0.0,0.0,-4.2034,-4.2034,-4.2034,-4.2034,0.0,-4.2034,-4.1665,-4.1471,-4.1471,-4.1116,-4.0964,-4.095,-4.0968,-4.1131,-4.1451,-4.1063,-4.0907,-4.0907,-4.0907,-4.0907,-4.0907,-4.0907,-4.0907,-4.0907,-4.0907,-4.0907,-4.0907,-4.0907,-4.0907,-4.0907,-4.0907,-4.0907,-4.0907,-4.0907,-4.0907,-4.0907,-4.0907,-4.0907,-4.0791,-4.0344,-3.9684,-3.9004,-3.8523,-3.78,-3.712,-3.6634,-3.6144,-3.5765,-3.5626,-3.5527,-3.539,-3.5223,-3.5209,-3.5209,-3.5209,-3.5209,-3.5209,-3.5209,-3.5209,-3.5209,-3.5209,-3.5209,-3.5209,-3.5209,-3.5209,-3.5209,-3.5209,-3.5209,-3.5209,-3.5209,-3.5209,-3.5209,-3.5209,-3.5204,-3.5187,-3.517,-3.5126,-3.51,-3.5066,-3.502,-3.4992,-2.6876,-2.9175,-3.1106,-3.4545,-3.5591,-3.6114,0.0,0.0,0.0,0.0,0.0,0.0,0.0,0.0,0.0,0.0,0.0,0.0,0.0,0.0,0.0,0.0,0.0,0.0,0.0,0.0,0.0,0.0,0.0,0.0,-4.0907,-4.0907,-4.0907,-4.0907,-4.0907,-4.0907,-4.0907,-4.0907,-4.0907,-4.0907,-4.0961,-4.0991,-4.1006,-4.0995,-4.0961,-4.0917,-4.0912,-4.0907,-4.0907,-4.0907,-4.0907,-4.0907,-4.0907,-4.0907,-4.0907,-4.0907,-4.0907,-4.0907,-4.0907,-4.0907,-4.0907,-4.0907,-4.0907,-4.0907,-4.0907,-4.0907,-4.0907,-4.0907,-4.0907,-4.0752,-4.0169,-3.9854,-3.9548,-3.8887,-3.8387,-3.7901,-3.7236,-3.6595,-3.6066,-3.5879,-3.5823,-3.5778,-3.5575,-3.5362,-3.5209,-3.5209,-3.5209,-3.5209,-3.5209,-3.5209,-3.5209,-3.5209,-3.5209,-3.5209,-3.5209,-3.5209,-3.5209,-3.5209,-3.5209,-3.5209,-3.5209,-3.5209,-3.5209,-3.5209,-3.5209,-3.5209,-3.5209,-3.5209,-3.5212,-3.5198,-3.5145,-3.511,-2.3817,-2.5179,-2.6671,-3.0168,-3.1608,-3.283,0.0,0.0,0.0,0.0,0.0,0.0,0.0,0.0,0.0,0.0,0.0,0.0,0.0,0.0,0.0,0.0,0.0,0.0,0.0,0.0,0.0,0.0,0.0,0.0,-4.0907,-4.0907,-4.0907,-4.0907,-4.0907,-4.0907,-4.0907,-4.0907,-4.0907,-4.0907,-4.0978,-4.101,-4.1006,-4.101,-4.101,-4.0982,-4.0936,-4.0907,-4.0907,-4.0907,-4.0907,-4.0907,-4.0907,-4.0907,-4.0907,-4.0907,-4.0907,-4.0907,-4.0907,-4.0907,-4.0907,-4.0907,-4.0907,-4.0907,-4.0907,-4.0907,-4.0907,-4.0907,-4.0907,-4.0888,-4.0849,-4.0266,-3.9679,-3.964,-3.8363,-3.7159,-3.712,-3.7061,-3.6978,-3.678,-3.673,-3.6664,-3.6474,-3.5755,-3.5209,-3.5209,-3.5209,-3.5209,-3.5209,-3.5209,-3.5209,-3.5209,-3.5209,-3.5209,-3.5209,-3.5209,-3.5209,-3.5209,-3.5209,-3.5209,-3.5209,-3.5209,-3.5209,-3.5209,-3.5209,-3.5209,-3.5209,-3.5209,-3.5201,-3.5201,-3.5201,-3.5201,-2.3733,-2.4917,0.0,-2.9142,-3.0928,-3.2365,-3.3845,0.0,0.0,0.0,0.0,0.0,0.0,0.0,0.0,0.0,0.0,0.0,0.0,0.0,0.0,0.0,0.0,0.0,0.0,0.0,0.0,0.0,0.0,0.0,-4.0907,-4.0907,-4.0907,-4.0907,-4.0907,-4.0907,-4.0907,-4.0907,-4.0907,-4.0907,-4.0976,-4.0999,-4.1007,-4.1003,-4.0989,-4.1008,-4.0972,-4.0955,-4.0954,-4.0954,-4.0954,-4.0967,-4.0956,-4.0941,-4.0907,-4.0907,-4.0926,-4.0952,-4.0952,-4.0949,-4.0953,-4.0953,-4.0953,-4.0953,-4.0953,-4.0953,-4.0953,-4.0953,-4.0964,-4.0953,-4.0956,-4.0749,-4.0522,-4.0485,-3.9606,-3.8771,-3.8771,-3.7897,-3.7211,-3.7559,-3.7186,-3.6907,-3.722,-3.6576,-3.6023,-3.6023,-3.5564,-3.5209,-3.5209,-3.5209,-3.5209,-3.5209,-3.5209,-3.5209,-3.5209,-3.5209,-3.5209,-3.5209,-3.5209,-3.5209,-3.5209,-3.5209,-3.5209,-3.5209,-3.5209,-3.5209,-3.5209,-3.5209,-3.5209,-3.5209,-3.5209,-3.5209,-2.2605,-2.3622,-2.4907,0.0,0.0,-3.0026,-3.2341,0.0,0.0,0.0,0.0,0.0,0.0,0.0,0.0,0.0,0.0,0.0,0.0,0.0,0.0,0.0,0.0,0.0,0.0,0.0,0.0,0.0,0.0,0.0,-4.0072,-4.0344,-4.0499,-4.0499,-4.0752,-4.0907,-4.0907,-4.0921,-4.093,-4.093,-4.1009,-4.1036,-4.1026,-4.1013,-4.0998,-4.0992,-4.1001,-4.0995,-4.099,-4.0998,-4.0991,-4.1005,-4.1006,-4.0968,-4.0932,-4.0932,-4.0953,-4.0995,-4.0995,-4.099,-4.099,-4.099,-4.099,-4.099,-4.099,-4.099,-4.099,-4.1003,-4.0997,-4.1002,-4.0992,-4.0971,-4.0891,-4.0562,-4.0305,-4.0033,-3.9757,-3.879,-3.8093,-3.8496,-3.8067,-3.7769,-3.8129,-3.7479,-3.6806,-3.6538,-3.6003,-3.5526,-3.5248,-3.5209,-3.5209,-3.5209,-3.5209,-3.5209,-3.5209,-3.5209,-3.5209,-3.5209,-3.5209,-3.5209,-3.5209,-3.5209,-3.5209,-3.5209,-3.5209,-3.5209,-3.5209,-3.5209,-3.5209,-3.5209,-3.5209,-3.5157,0.0,0.0,0.0,0.0,0.0,0.0,0.0,0.0,0.0,0.0,0.0,0.0,0.0,0.0,0.0,0.0,0.0,0.0,0.0,0.0,0.0,0.0,0.0,0.0,0.0,0.0,0.0,0.0,0.0,-3.9295,-3.8445,-3.9198,-3.966,-3.966,-4.0422,-4.0849,-4.0869,-4.0932,-4.0976,-4.1,-4.1075,-4.1098,-4.1081,-4.1039,-4.0994,-4.0998,-4.0996,-4.0995,-4.0991,-4.0991,-4.0998,-4.0994,-4.0992,-4.099,-4.099,-4.099,-4.099,-4.0994,-4.0994,-4.0994,-4.0994,-4.0994,-4.0994,-4.0994,-4.0994,-4.0994,-4.099,-4.0997,-4.099,-4.1002,-4.0999,-4.095,-4.0694,-3.9912,-4.0325,-4.0694,-3.9893,-3.9737,-3.9699,-3.9558,-3.9412,-3.9287,-3.9246,-3.8388,-3.7434,-3.6653,-3.6481,-3.6156,-3.5305,-3.5209,-3.5209,-3.5209,-3.5209,-3.5209,-3.5209,-3.5209,-3.5209,-3.5209,-3.5209,-3.5209,-3.5209,-3.5209,-3.5209,-3.5209,-3.5209,-3.5209,-3.5209,-3.5209,-3.5209,-3.5209,-3.5209,-3.5098,-2.0509,0.0,0.0,0.0,0.0,0.0,0.0,0.0,0.0,0.0,0.0,0.0,0.0,0.0,0.0,0.0,0.0,0.0,0.0,0.0,0.0,0.0,0.0,0.0,0.0,0.0,0.0,0.0,0.0,-3.8659,-3.8406,-3.8639,-3.8751,-3.8751,-3.8989,-3.9392,-4.0033,-4.0057,-4.0376,-4.1,-4.1013,-4.1026,-4.103,-4.1013,-4.1035,-4.1063,-4.1072,-4.106,-4.1074,-4.1074,-4.1032,-4.0991,-4.1042,-4.1042,-4.099,-4.099,-4.1025,-4.1064,-4.1064,-4.1076,-4.1074,-4.1074,-4.1074,-4.1074,-4.1074,-4.1074,-4.107,-4.1079,-4.1061,-4.1052,-4.1007,-4.095,-4.0849,-4.0616,-4.0733,-4.0849,-4.0616,-4.0577,-4.0534,-4.0469,-3.9905,-3.9586,-4.0004,-3.8826,-3.7734,-3.7424,-3.6337,-3.5469,-3.5229,-3.5209,-3.5209,-3.5209,-3.5209,-3.5209,-3.5209,-3.5209,-3.5209,-3.5209,-3.5209,-3.5209,-3.5209,-3.5209,-3.5209,-3.5209,-3.5209,-3.5209,-3.5209,-3.5209,-3.5209,-3.5209,-3.5209,-3.516,-2.1072,-2.1584,-2.2327,-2.2682,0.0,0.0,0.0,-2.6048,0.0,0.0,0.0,0.0,0.0,0.0,0.0,0.0,0.0,0.0,0.0,0.0,0.0,0.0,0.0,0.0,0.0,0.0,0.0,0.0,-3.7644,-3.7862,-3.7862,-3.7855,-3.7868,-3.7868,-3.8233,-3.8685,-3.919,-3.9192,-3.9446,-3.9954,-3.9963,-3.9958,-3.996,-3.9957,-3.9986,-4.004,-4.0396,-4.0549,-4.0552,-4.0566,-4.0758,-4.1054,-4.1078,-4.109,-4.103,-4.103,-4.1079,-4.109,-4.109,-4.1099,-4.1109,-4.1109,-4.1109,-4.1109,-4.1109,-4.1109,-4.1108,-4.1097,-4.1096,-4.1087,-4.1048,-4.0996,-4.0932,-4.0939,-4.093,-4.0921,-4.0912,-4.0907,-4.0893,-4.0842,-4.0416,-4.0048,-4.0041,-3.913,-3.8182,-3.7365,-3.6389,-3.5602,-3.5248,-3.5209,-3.5209,-3.5209,-3.5209,-3.5209,-3.5209,-3.5209,-3.5209,-3.5209,-3.5209,-3.5209,-3.5209,-3.5209,-3.5209,-3.5209,-3.5209,-3.5209,-3.5209,-3.5209,-3.5209,-3.5209,-3.5209,-3.5193,-2.1867,-2.2483,-2.327,-2.387,0.0,0.0,-2.5407,-2.4536,0.0,0.0,0.0,0.0,0.0,0.0,0.0,0.0,0.0,0.0,0.0,0.0,0.0,0.0,0.0,0.0,0.0,0.0,0.0,-3.5795,-3.6522,-3.6973,-3.6973,-3.6969,-3.6972,-3.6972,-3.7777,-3.826,-3.8357,-3.8362,-3.8404,-3.8503,-3.8496,-3.849,-3.8508,-3.8509,-3.8497,-3.8534,-3.9316,-3.9708,-3.9789,-3.9692,-4.0229,-4.1087,-4.0898,-4.093,-4.1093,-4.0992,-4.1012,-4.1109,-4.1109,-4.1109,-4.1109,-4.1109,-4.1109,-4.1109,-4.1109,-4.1109,-4.1106,-4.1095,-4.1096,-4.1095,-4.1092,-4.1033,-4.1006,-4.1007,-4.0929,-4.0831,-4.077,-4.0684,-4.0625,-4.0625,-4.0659,-4.0424,-3.9638,-3.9186,-3.8408,-3.6834,-3.6465,-3.6097,-3.5305,-3.5209,-3.5209,-3.5209,-3.5209,-3.5209,-3.5209,-3.5209,-3.5209,-3.5209,-3.5209,-3.5209,-3.5209,-3.5209,-3.5209,-3.5209,-3.5209,-3.5209,-3.5209,-3.5209,-3.5209,-3.5209,-3.5209,-3.5201,-2.2935,-2.3384,-2.3753,-2.2529,0.0,0.0,-2.2199,-2.2396,0.0,0.0,0.0,0.0,0.0,0.0,0.0,0.0,0.0,0.0,0.0,0.0,0.0,0.0,0.0,0.0,0.0,0.0,-3.5795,-3.5795,-3.6005,-3.6124,-3.6124,-3.6135,-3.6134,-3.6134,-3.6315,-3.6746,-3.7448,-3.7448,-3.7805,-3.8495,-3.8505,-3.8498,-3.8507,-3.8497,-3.8494,-3.8514,-3.8678,-3.9143,-3.9747,-3.9034,-3.9689,-4.095,-3.955,-3.986,-4.101,-4.0314,-4.0503,-4.1109,-4.1109,-4.1109,-4.1109,-4.1109,-4.1109,-4.1109,-4.1109,-4.1109,-4.1106,-4.1105,-4.1108,-4.1092,-4.1039,-4.1013,-4.1007,-4.1003,-4.0464,-3.9948,-3.9938,-3.9388,-3.8899,-3.8899,-3.944,-3.9835,-3.9553,-3.8293,-3.7179,-3.669,-3.6043,-3.5511,-3.5237,-3.5209,-3.5209,-3.5209,-3.5209,-3.5209,-3.5209,-3.5209,-3.5209,-3.5209,-3.5209,-3.5209,-3.5209,-3.5209,-3.5209,-3.5209,-3.5209,-3.5209,-3.5209,-3.5209,-3.5209,-3.5209,-3.5209,-3.5204,-2.3986,-2.4277,-2.4744,-2.385,0.0,0.0,0.0,0.0,-2.2102,0.0,0.0,0.0,0.0,0.0,0.0,0.0,0.0,0.0,0.0,0.0,0.0,0.0,0.0,0.0,0.0,0.0,-3.4738,-3.5166,-3.5226,-3.5441,-3.5885,-3.5894,-3.5909,-3.5909,-3.5921,-3.6159,-3.6608,-3.6593,-3.6816,-3.7245,-3.7216,-3.7198,-3.7194,-3.7194,-3.7194,-3.7233,-3.7662,-3.811,-3.848,-3.8032,-3.8611,-3.9767,-3.9311,-3.9687,-4.0446,-4.0452,-4.0717,-4.1109,-4.1109,-4.1109,-4.1109,-4.1109,-4.1109,-4.1109,-4.1109,-4.1109,-4.1008,-4.0569,-4.0758,-4.1085,-4.1059,-4.0738,-4.0398,-4.0393,-3.9736,-3.9101,-3.9101,-3.8728,-3.8396,-3.8404,-3.8401,-3.8382,-3.8312,-3.752,-3.6732,-3.6221,-3.5752,-3.54,-3.5304,-3.5304,-3.5267,-3.5209,-3.5209,-3.5209,-3.5209,-3.5209,-3.5209,-3.5209,-3.5209,-3.5209,-3.5209,-3.5209,-3.5209,-3.5209,-3.5209,-3.5209,-3.5209,-3.5209,-3.5209,-3.5209,-3.5209,-3.5193,0.0,0.0,0.0,0.0,0.0,-2.3034,0.0,0.0,0.0,-2.3207,0.0,0.0,0.0,0.0,0.0,0.0,0.0,0.0,0.0,0.0,0.0,0.0,0.0,0.0,0.0,0.0,-3.3238,-3.426,-3.4043,-3.4392,-3.5605,-3.5667,-3.5758,-3.5912,-3.5967,-3.5994,-3.5999,-3.5996,-3.599,-3.5987,-3.5923,-3.5908,-3.5908,-3.5908,-3.5908,-3.5947,-3.6649,-3.7038,-3.7194,-3.7019,-3.7467,-3.8294,-3.8846,-3.9353,-3.9862,-4.0398,-4.0819,-4.1109,-4.1109,-4.1109,-4.107,-4.0894,-4.0855,-4.0855,-4.0855,-4.0973,-4.0953,-4.0249,-4.0444,-4.0855,-4.0855,-4.0205,-3.9572,-3.9564,-3.8909,-3.8271,-3.828,-3.8088,-3.7936,-3.7923,-3.7357,-3.6923,-3.7066,-3.6861,-3.6464,-3.5799,-3.5601,-3.5502,-3.5425,-3.5404,-3.5362,-3.5248,-3.5229,-3.5209,-3.5209,-3.5209,-3.5209,-3.5209,-3.5209,-3.5209,-3.5209,-3.5209,-3.5209,-3.5209,-3.5209,-3.5209,-3.5209,-3.5209,-3.5209,-3.5209,-3.5209,-3.5209,0.0,0.0,0.0,0.0,-2.5928,0.0,0.0,0.0,-2.2377,-2.1187,0.0,0.0,0.0,0.0,0.0,0.0,0.0,0.0,0.0,0.0,0.0,0.0,0.0,0.0,0.0,0.0,0.0,-3.3323,-3.2068,-3.229,-3.4714,-3.4832,-3.5191,-3.595,-3.5991,-3.6001,-3.5993,-3.5995,-3.5965,-3.5907,-3.5892,-3.5908,-3.5908,-3.5908,-3.5908,-3.5908,-3.6006,-3.6493,-3.7136,-3.6376,-3.6551,-3.7278,-3.6616,-3.7758,-3.9725,-3.9042,-3.9775,-4.1109,-4.1109,-4.1109,-4.0973,-4.019,-3.9956,-3.9956,-3.9956,-4.0483,-4.109,-4.0973,-4.0464,-3.9956,-3.9956,-3.9351,-3.8746,-3.8744,-3.8074,-3.7445,-3.743,-3.6813,-3.625,-3.6192,-3.6094,-3.6252,-3.6977,-3.6451,-3.5872,-3.5725,-3.5699,-3.5621,-3.5507,-3.5441,-3.539,-3.539,-3.5267,-3.5209,-3.5209,-3.5209,-3.5209,-3.5209,-3.5209,-3.5209,-3.5209,-3.5209,-3.5209,-3.5209,-3.5209,-3.5209,-3.5209,-3.5209,-3.5209,-3.5209,-3.5209,-3.5209,0.0,0.0,0.0,0.0,0.0,0.0,-2.2549,0.0,-2.1481,0.0,0.0,0.0,0.0,0.0,0.0,0.0,0.0,0.0,0.0,0.0,0.0,0.0,0.0,0.0,0.0,0.0,0.0,0.0,0.0,-3.0977,-3.3075,-3.4156,-3.4861,-3.5232,-3.5738,-3.6002,-3.5995,-3.5995,-3.5964,-3.5901,-3.5909,-3.5908,-3.5908,-3.5908,-3.5908,-3.5908,-3.5908,-3.6103,-3.6415,-3.6045,-3.6123,-3.6418,-3.6043,-3.6884,-3.8376,-3.9023,-3.9425,-3.9723,-4.0171,-4.0036,-3.9587,-3.9216,-3.9099,-3.9,-3.8492,-3.8961,-3.9645,-3.9645,-3.9391,-3.9214,-3.9683,-3.8824,-3.7849,-3.7849,-3.7181,-3.6555,-3.6558,-3.6256,-3.5974,-3.5903,-3.5908,-3.6011,-3.6354,-3.6068,-3.5782,-3.5761,-3.575,-3.5715,-3.5636,-3.5582,-3.5528,-3.5414,-3.5343,-3.5286,-3.5209,-3.5209,-3.5209,-3.5209,-3.5209,-3.5209,-3.5209,-3.5209,-3.5209,-3.5209,-3.5209,-3.5209,-3.5209,-3.5209,-3.5209,-3.5209,-3.5209,-3.5209,-2.8978,0.0,0.0,0.0,0.0,0.0,0.0,0.0,0.0,0.0,0.0,0.0,0.0,0.0,0.0,0.0,0.0,0.0,0.0,0.0,0.0,0.0,0.0,0.0,0.0,0.0,0.0,0.0,0.0,0.0,-3.1602,-3.3163,-3.4217,-3.4686,-3.5543,-3.6004,-3.5996,-3.5994,-3.5962,-3.591,-3.5904,-3.5908,-3.5908,-3.5908,-3.5908,-3.5908,-3.5908,-3.5908,-3.5908,-3.5908,-3.5908,-3.5908,-3.5908,-3.6282,-3.7022,-3.8534,-3.8865,-3.8657,-3.9242,-3.8927,-3.824,-3.824,-3.824,-3.8123,-3.7497,-3.7908,-3.8591,-3.8591,-3.8435,-3.8376,-3.8961,-3.8024,-3.6931,-3.6931,-3.6461,-3.5992,-3.5992,-3.6006,-3.5983,-3.5932,-3.5924,-3.5925,-3.5908,-3.5868,-3.5814,-3.5795,-3.5795,-3.5775,-3.5736,-3.5717,-3.5636,-3.55,-3.5431,-3.5362,-3.5267,-3.5229,-3.5209,-3.5209,-3.5209,-3.5209,-3.5209,-3.5209,-3.5209,-3.5209,-3.5209,-3.5209,-3.5209,-3.5209,-3.5209,-3.5209,-3.5209,-3.5209,0.0,0.0,0.0,-2.6475,0.0,0.0,0.0,0.0,-2.2687,0.0,0.0,0.0,0.0,0.0,-2.2649,-2.183,0.0,0.0,0.0,0.0,0.0,0.0,0.0,0.0,0.0,0.0,0.0,0.0,0.0,0.0,-3.0625,-3.1699,-3.2968,-3.4647,-3.5543,-3.6009,-3.5992,-3.5991,-3.5975,-3.5892,-3.5889,-3.5908,-3.5908,-3.5908,-3.5908,-3.5908,-3.5908,-3.5908,-3.5908,-3.5908,-3.5908,-3.5908,-3.5908,-3.5914,-3.604,-3.6944,-3.7807,-3.8513,-3.8533,-3.8018,-3.734,-3.734,-3.734,-3.734,-3.7301,-3.7908,-3.8591,-3.8591,-3.7986,-3.734,-3.7379,-3.6714,-3.6031,-3.6031,-3.6012,-3.5992,-3.5992,-3.5992,-3.5992,-3.5992,-3.5992,-3.5971,-3.5911,-3.5894,-3.5872,-3.5814,-3.5795,-3.5795,-3.5795,-3.5736,-3.5693,-3.5685,-3.5521,-3.5409,-3.539,-3.5267,-3.5209,-3.5209,-3.5209,-3.5209,-3.5209,-3.5209,-3.5209,-3.5209,-3.5209,-3.5209,-3.5209,-3.5209,-3.5209,-3.5209,-3.5209,-3.5209,0.0,0.0,-3.015,-2.7832,0.0,0.0,0.0,0.0,0.0,0.0,0.0,0.0,0.0,0.0,-2.2707,-2.183,-2.1981,0.0,0.0,0.0,0.0,0.0,0.0,0.0,0.0,0.0,0.0,0.0,0.0,0.0,0.0,-3.0157,-3.1777,-3.2949,-3.4385,-3.5429,-3.5991,-3.5961,-3.5917,-3.5908,-3.5908,-3.5908,-3.5908,-3.5908,-3.5908,-3.5908,-3.5908,-3.5908,-3.5908,-3.5908,-3.5908,-3.5908,-3.5908,-3.5897,-3.6012,-3.6875,-3.7044,-3.6853,-3.6846,-3.6662,-3.6441,-3.6441,-3.6441,-3.6441,-3.6441,-3.6656,-3.7009,-3.7575,-3.7106,-3.6578,-3.7145,-3.6656,-3.5992,-3.5992,-3.5992,-3.5992,-3.5992,-3.5992,-3.5992,-3.5992,-3.5992,-3.5992,-3.5973,-3.5929,-3.5878,-3.5803,-3.5795,-3.5795,-3.5795,-3.5775,-3.5756,-3.5698,-3.565,-3.554,-3.5414,-3.5286,-3.5209,-3.5209,-3.5209,-3.5209,-3.5209,-3.5209,-3.5209,-3.5209,-3.5209,-3.5209,-3.5209,-3.5209,-3.5209,-3.5209,-3.5209,-3.5209,-3.0694,-3.0694,0.0,0.0,-2.7288,0.0,-2.3911,0.0,0.0,0.0,0.0,0.0,0.0,0.0,-2.3286,-2.2724,-2.2155,-2.1496,0.0,0.0,0.0,0.0,0.0,0.0,0.0,0.0,-2.3654,-2.512,-2.4164,0.0,0.0,0.0,-3.0899,-3.2052,-3.3784,-3.5117,-3.5991,-3.5935,-3.5906,-3.5908,-3.5908,-3.5908,-3.5908,-3.5908,-3.5908,-3.5908,-3.5908,-3.5908,-3.5908,-3.5908,-3.5908,-3.5908,-3.5908,-3.5908,-3.5972,-3.6525,-3.6429,-3.5996,-3.6009,-3.5999,-3.5992,-3.5992,-3.5992,-3.5992,-3.5992,-3.5992,-3.6129,-3.6677,-3.6422,-3.6129,-3.6696,-3.6422,-3.5992,-3.5992,-3.5992,-3.5992,-3.5992,-3.5992,-3.5992,-3.5992,-3.5992,-3.5992,-3.5992,-3.5942,-3.5888,-3.5846,-3.5814,-3.5795,-3.5795,-3.5795,-3.5775,-3.5736,-3.5717,-3.5614,-3.543,-3.5324,-3.5248,-3.5209,-3.5209,-3.5209,-3.5209,-3.5209,-3.5209,-3.5209,-3.5209,-3.5209,-3.5209,-3.5209,-3.5209,-3.5209,-3.5209,-3.5057]},{"header":{"parameterUnit":"m.s-1","parameterCategory":1,"la1":30.6,"la2":29.2853,"lo1":-89.7004,"lo2":-87.6739,"dy":0.0162,"dx":0.0183,"nx":112,"ny":82,"refTime":"2026-04-16T12:00:00:Z","depth":0,"parameterNumber":3,"parameterNumberName":"V-component_of_WINDS"},"data":[0.0,0.0,0.0,0.0,0.0,0.0,0.0,0.0,0.0,0.0,0.0,0.0,0.0,0.0,0.0,0.0,0.0,0.0,0.0,0.0,0.0,0.0,0.0,0.0,0.0,0.0,0.0,0.0,0.0,0.0,0.0,0.0,0.0,0.0,0.0,0.0,0.0,0.0,0.0,0.0,0.0,0.0,0.0,0.0,0.0,0.0,0.0,0.0,0.0,0.0,0.0,0.0,0.0,0.0,0.0,0.0,0.0,0.0,0.0,0.0,0.0,0.0,0.0,0.0,0.0,0.0,0.0,0.0,0.0,0.0,0.0,0.0,0.0,0.0,0.0,0.0,0.0,0.0,0.0,0.0,0.0,0.0,0.0,0.0,0.0,0.0,0.0,0.0,0.0,0.0,0.0,-1.4448,-1.6488,-1.7925,-1.8203,-1.7633,-1.6462,-1.4629,0.0,0.0,0.0,0.0,0.0,0.0,0.0,0.0,0.0,0.0,0.0,0.0,0.0,0.0,0.0,0.0,0.0,0.0,0.0,0.0,0.0,0.0,0.0,0.0,0.0,0.0,0.0,0.0,0.0,0.0,0.0,0.0,0.0,0.0,0.0,0.0,0.0,0.0,0.0,0.0,0.0,0.0,0.0,0.0,0.0,0.0,0.0,0.0,0.0,0.0,0.0,0.0,0.0,0.0,0.0,0.0,0.0,0.0,0.0,0.0,0.0,0.0,0.0,0.0,0.0,0.0,0.0,0.0,0.0,0.0,0.0,0.0,0.0,0.0,0.0,0.0,0.0,0.0,0.0,0.0,0.0,0.0,0.0,0.0,0.0,0.0,0.0,0.0,0.0,0.0,0.0,0.0,0.0,0.0,0.0,0.0,0.0,0.0,0.0,0.0,0.0,0.0,0.0,0.0,-1.4097,-1.6554,-1.7377,-1.7838,-1.7882,-1.7296,-1.6265,-1.4614,0.0,0.0,0.0,0.0,0.0,0.0,0.0,0.0,0.0,0.0,0.0,0.0,0.0,0.0,0.0,0.0,0.0,0.0,0.0,0.0,0.0,0.0,0.0,0.0,0.0,0.0,0.0,0.0,0.0,0.0,0.0,0.0,0.0,0.0,0.0,0.0,0.0,0.0,0.0,0.0,0.0,0.0,0.0,0.0,0.0,0.0,0.0,0.0,0.0,0.0,0.0,0.0,0.0,0.0,0.0,0.0,0.0,0.0,0.0,0.0,0.0,0.0,0.0,0.0,0.0,0.0,0.0,0.0,0.0,0.0,0.0,0.0,0.0,0.0,0.0,0.0,0.0,0.0,0.0,0.0,0.0,0.0,0.0,0.0,0.0,0.0,0.0,0.0,0.0,0.0,0.0,0.0,0.0,0.0,0.0,0.0,0.0,0.0,0.0,0.0,0.0,0.0,0.0,-1.3329,-1.4591,-1.7293,-1.7567,-1.7625,-1.7801,-1.7062,-1.603,-1.4599,-1.3389,0.0,0.0,0.0,0.0,0.0,0.0,0.0,0.0,0.0,0.0,0.0,0.0,0.0,0.0,0.0,0.0,0.0,0.0,0.0,0.0,0.0,0.0,0.0,0.0,0.0,0.0,0.0,0.0,0.0,0.0,0.0,0.0,0.0,0.0,0.0,0.0,0.0,0.0,0.0,0.0,0.0,0.0,0.0,0.0,0.0,0.0,0.0,0.0,0.0,0.0,0.0,0.0,0.0,0.0,0.0,0.0,0.0,0.0,0.0,0.0,0.0,0.0,0.0,0.0,0.0,0.0,0.0,0.0,0.0,0.0,0.0,0.0,0.0,0.0,0.0,0.0,0.0,0.0,0.0,0.0,0.0,0.0,0.0,0.0,0.0,0.0,0.0,0.0,0.0,0.0,0.0,0.0,0.0,0.0,0.0,0.0,0.0,0.0,0.0,0.0,0.0,0.0,-1.4423,-1.5203,-1.7428,-1.7432,-1.7381,-1.7677,-1.6748,-1.5707,-1.4577,-1.3097,0.0,0.0,0.0,0.0,0.0,0.0,0.0,0.0,0.0,0.0,0.0,0.0,0.0,0.0,0.0,0.0,0.0,0.0,0.0,0.0,0.0,0.0,0.0,0.0,0.0,0.0,0.0,0.0,0.0,0.0,0.0,0.0,0.0,0.0,0.0,0.0,0.0,0.0,0.0,0.0,0.0,0.0,0.0,0.0,0.0,0.0,0.0,0.0,0.0,0.0,0.0,0.0,0.0,0.0,0.0,0.0,0.0,0.0,0.0,0.0,0.0,0.0,0.0,0.0,0.0,0.0,0.0,0.0,0.0,0.0,0.0,0.0,0.0,0.0,0.0,0.0,0.0,0.0,0.0,0.0,0.0,0.0,0.0,0.0,0.0,0.0,0.0,0.0,0.0,0.0,0.0,0.0,0.0,0.0,0.0,0.0,0.0,0.0,0.0,0.0,0.0,0.0,-1.4585,-1.5833,-1.7188,-1.7293,-1.7286,-1.7315,-1.617,-1.5204,-1.4555,-1.2721,0.0,0.0,0.0,0.0,0.0,0.0,0.0,0.0,0.0,0.0,0.0,0.0,0.0,0.0,0.0,0.0,0.0,0.0,0.0,0.0,0.0,0.0,0.0,0.0,0.0,0.0,0.0,0.0,0.0,0.0,0.0,0.0,0.0,0.0,0.0,0.0,0.0,0.0,0.0,0.0,0.0,0.0,0.0,0.0,0.0,0.0,0.0,0.0,0.0,0.0,0.0,0.0,0.0,0.0,0.0,0.0,0.0,0.0,0.0,0.0,0.0,0.0,0.0,0.0,0.0,0.0,0.0,0.0,0.0,0.0,0.0,0.0,0.0,0.0,0.0,0.0,0.0,0.0,0.0,0.0,0.0,0.0,0.0,0.0,0.0,0.0,0.0,0.0,0.0,0.0,0.0,0.0,0.0,0.0,0.0,0.0,0.0,0.0,0.0,0.0,0.0,0.0,-1.4261,-1.5418,0.0,-1.7279,-1.7252,-1.7047,-1.6235,-1.5196,-1.3938,0.0,0.0,0.0,0.0,0.0,0.0,0.0,0.0,0.0,0.0,0.0,0.0,0.0,0.0,0.0,0.0,0.0,0.0,0.0,0.0,0.0,0.0,0.0,0.0,0.0,0.0,0.0,0.0,0.0,0.0,0.0,0.0,0.0,0.0,0.0,0.0,0.0,0.0,0.0,0.0,0.0,0.0,0.0,0.0,0.0,0.0,0.0,0.0,0.0,0.0,0.0,0.0,0.0,0.0,0.0,0.0,0.0,0.0,0.0,0.0,0.0,0.0,0.0,0.0,0.0,0.0,0.0,0.0,0.0,0.0,0.0,0.0,0.0,0.0,0.0,0.0,0.0,0.0,0.0,0.0,0.0,0.0,0.0,0.0,0.0,0.0,0.0,0.0,0.0,0.0,0.0,0.0,0.0,0.0,0.0,0.0,0.0,0.0,0.0,0.0,0.0,0.0,-1.2927,-1.3855,-1.5046,0.0,-1.7279,-1.7201,-1.6925,-1.6089,-1.5006,-1.3587,0.0,0.0,0.0,0.0,0.0,0.0,0.0,0.0,0.0,0.0,0.0,0.0,0.0,0.0,0.0,0.0,0.0,0.0,0.0,0.0,0.0,0.0,0.0,0.0,0.0,0.0,0.0,0.0,0.0,0.0,0.0,0.0,0.0,0.0,0.0,0.0,0.0,0.0,0.0,0.0,0.0,0.0,0.0,0.0,0.0,0.0,0.0,0.0,0.0,0.0,0.0,0.0,0.0,0.0,0.0,0.0,0.0,0.0,0.0,0.0,0.0,0.0,0.0,0.0,0.0,0.0,0.0,0.0,0.0,0.0,0.0,0.0,0.0,0.0,0.0,0.0,0.0,0.0,0.0,0.0,0.0,0.0,0.0,0.0,0.0,0.0,0.0,0.0,0.0,0.0,0.0,0.0,0.0,0.0,0.0,0.0,0.0,0.0,0.0,0.0,0.0,0.0,-1.2514,-1.354,-1.4823,-1.7022,-1.7271,-1.7186,-1.6917,-1.5672,-1.4484,0.0,0.0,0.0,0.0,0.0,0.0,0.0,0.0,0.0,0.0,0.0,0.0,0.0,0.0,0.0,0.0,0.0,0.0,0.0,0.0,0.0,0.0,0.0,0.0,0.0,0.0,0.0,0.0,0.0,0.0,0.0,0.0,0.0,0.0,0.0,0.0,0.0,0.0,0.0,0.0,0.0,0.0,0.0,0.0,0.0,0.0,0.0,0.0,0.0,0.0,0.0,0.0,0.0,0.0,0.0,0.0,0.0,0.0,0.0,0.0,0.0,0.0,0.0,0.0,0.0,0.0,0.0,0.0,0.0,0.0,0.0,0.0,0.0,0.0,0.0,0.0,0.0,0.0,0.0,0.0,0.0,0.0,0.0,0.0,0.0,0.0,0.0,0.0,0.0,0.0,0.0,0.0,0.0,0.0,0.0,0.0,0.0,0.0,0.0,0.0,0.0,0.0,0.0,-1.1556,-1.2487,-1.371,-1.5763,-1.5976,-1.6036,-1.6177,-1.5218,-1.4092,-1.2884,0.0,0.0,0.0,0.0,0.0,0.0,0.0,0.0,0.0,0.0,0.0,0.0,0.0,0.0,0.0,0.0,0.0,0.0,0.0,0.0,0.0,0.0,0.0,0.0,0.0,0.0,0.0,0.0,0.0,0.0,0.0,0.0,0.0,0.0,0.0,0.0,0.0,0.0,0.0,0.0,0.0,0.0,0.0,0.0,0.0,0.0,0.0,0.0,0.0,0.0,0.0,0.0,0.0,0.0,0.0,0.0,0.0,0.0,0.0,0.0,0.0,0.0,0.0,0.0,0.0,0.0,0.0,0.0,0.0,0.0,0.0,0.0,0.0,0.0,0.0,0.0,0.0,0.0,0.0,0.0,0.0,0.0,0.0,0.0,0.0,0.0,0.0,0.0,0.0,0.0,0.0,0.0,0.0,0.0,0.0,0.0,0.0,0.0,0.0,0.0,0.0,0.0,-1.0883,-1.1833,-1.3004,-1.4767,-1.4981,-1.4953,-1.4927,-1.4245,-1.3205,-1.1803,0.0,0.0,0.0,0.0,0.0,0.0,0.0,0.0,0.0,0.0,0.0,0.0,0.0,0.0,0.0,0.0,0.0,0.0,0.0,0.0,0.0,0.0,0.0,0.0,0.0,0.0,0.0,0.0,0.0,0.0,0.0,0.0,0.0,0.0,0.0,0.0,0.0,0.0,0.0,0.0,0.0,0.0,0.0,0.0,0.0,0.0,0.0,0.0,0.0,0.0,0.0,0.0,0.0,0.0,0.0,0.0,0.0,0.0,0.0,0.0,0.0,0.0,0.0,0.0,0.0,0.0,0.0,0.0,0.0,0.0,0.0,0.0,0.0,0.0,0.0,0.0,0.0,0.0,0.0,0.0,0.0,0.0,0.0,0.0,0.0,0.0,0.0,0.0,0.0,0.0,0.0,0.0,0.0,0.0,0.0,0.0,0.0,0.0,0.0,0.0,0.0,0.0,-1.0307,-1.1354,-1.25,-1.3913,-1.4085,-1.3925,-1.3506,-1.2928,-1.2017,-1.0629,0.0,0.0,0.0,0.0,0.0,0.0,0.0,0.0,0.0,0.0,0.0,0.0,0.0,0.0,0.0,0.0,0.0,0.0,0.0,0.0,0.0,0.0,0.0,0.0,0.0,0.0,0.0,0.0,0.0,0.0,0.0,0.0,0.0,0.0,0.0,0.0,0.0,0.0,0.0,0.0,0.0,0.0,0.0,0.0,0.0,0.0,0.0,0.0,0.0,0.0,0.0,0.0,0.0,0.0,0.0,0.0,0.0,0.0,0.0,0.0,-0.6544,0.0,0.0,0.0,0.0,0.0,0.0,0.0,0.0,0.0,0.0,0.0,0.0,0.0,0.0,0.0,0.0,0.0,0.0,0.0,0.0,0.0,0.0,0.0,0.0,0.0,0.0,0.0,0.0,0.0,0.0,0.0,0.0,0.0,0.0,0.0,0.0,0.0,0.0,0.0,0.0,0.0,-0.9141,-1.0231,-1.1325,-1.2397,-1.2475,-1.2679,-1.3054,-1.2369,-1.161,-1.087,-1.0067,0.0,0.0,0.0,0.0,0.0,0.0,0.0,0.0,0.0,0.0,0.0,0.0,0.0,0.0,0.0,0.0,0.0,0.0,0.0,0.0,0.0,0.0,0.0,0.0,0.0,0.0,0.0,0.0,0.0,0.0,0.0,0.0,0.0,0.0,0.0,0.0,0.0,0.0,0.0,0.0,0.0,0.0,0.0,0.0,0.0,0.0,0.0,0.0,0.0,0.0,0.0,0.0,0.0,0.0,0.0,0.0,0.0,0.0,0.0,0.0,-0.6801,0.0,0.0,0.0,0.0,0.0,0.0,0.0,0.0,0.0,0.0,0.0,0.0,0.0,0.0,0.0,0.0,0.0,0.0,0.0,0.0,0.0,0.0,0.0,0.0,0.0,0.0,0.0,0.0,0.0,0.0,0.0,0.0,0.0,0.0,0.0,0.0,0.0,0.0,0.0,0.0,-0.8921,-0.997,-1.0846,-1.1455,-1.1524,-1.1593,-1.1709,-1.1156,-1.0579,-0.9971,-0.9556,0.0,0.0,0.0,0.0,0.0,0.0,0.0,0.0,0.0,0.0,0.0,0.0,0.0,0.0,0.0,0.0,0.0,0.0,0.0,0.0,0.0,0.0,0.0,0.0,0.0,0.0,0.0,0.0,0.0,0.0,0.0,0.0,0.0,0.0,0.0,0.0,0.0,0.0,0.0,0.0,0.0,0.0,0.0,0.0,0.0,0.0,0.0,0.0,0.0,0.0,0.0,0.0,0.0,0.0,-0.6562,-0.6549,-0.6804,-0.7169,-0.7626,-0.683,-0.691,-0.7661,0.0,0.0,0.0,0.0,0.0,0.0,0.0,0.0,0.0,0.0,0.0,0.0,0.0,0.0,0.0,0.0,0.0,0.0,0.0,0.0,0.0,0.0,0.0,0.0,0.0,-0.9226,-0.905,0.0,0.0,0.0,0.0,0.0,0.0,0.0,0.0,0.0,0.0,0.0,0.0,-0.9034,-0.9981,-1.0608,-1.0842,-1.0864,-1.0708,-1.0326,-1.0062,-0.9637,-0.8998,-0.8986,-0.8663,0.0,0.0,0.0,0.0,0.0,0.0,0.0,0.0,0.0,0.0,0.0,0.0,0.0,0.0,0.0,0.0,0.0,0.0,0.0,0.0,0.0,0.0,0.0,0.0,0.0,0.0,0.0,0.0,0.0,0.0,0.0,0.0,-0.4289,-0.4577,0.0,0.0,0.0,0.0,0.0,0.0,0.0,0.0,0.0,0.0,0.0,0.0,0.0,0.0,-0.6475,-0.6719,-0.685,-0.6872,-0.7211,-0.732,-0.7161,-0.7193,-0.7315,-0.7503,-0.7299,0.0,-0.8251,-0.7936,0.0,0.0,0.0,0.0,0.0,0.0,0.0,0.0,0.0,0.0,0.0,0.0,0.0,0.0,0.0,0.0,0.0,0.0,0.0,0.0,0.0,0.0,-1.0284,-1.0167,-1.0115,-1.0116,0.0,-0.8992,-0.7998,-0.7672,0.0,0.0,0.0,0.0,0.0,0.0,0.0,0.0,-0.8873,-0.9744,-1.0353,-1.0385,-1.0385,-1.0363,-1.0299,-1.0062,-0.9701,-0.919,-0.9321,-0.9061,-0.8259,-0.8219,0.0,0.0,0.0,0.0,0.0,0.0,0.0,0.0,0.0,0.0,0.0,0.0,0.0,0.0,0.0,0.0,0.0,0.0,0.0,0.0,0.0,0.0,0.0,0.0,0.0,0.0,0.0,0.0,0.0,-0.3332,-0.4167,-0.4992,-0.4974,-0.4849,0.0,0.0,0.0,0.0,0.0,0.0,0.0,0.0,0.0,-0.6502,-0.673,-0.6915,-0.7225,-0.7334,-0.7453,-0.7645,-0.7744,-0.7826,-0.7778,-0.7771,-0.7769,-0.7809,-0.7622,-0.7735,-0.799,-0.7833,-0.7375,-0.6767,0.0,0.0,0.0,0.0,0.0,-0.7763,-0.8446,0.0,0.0,0.0,0.0,0.0,0.0,0.0,0.0,0.0,0.0,0.0,0.0,0.0,0.0,-1.0689,-1.0681,-1.0681,-1.0681,-1.0083,-0.9319,0.0,-0.8328,-0.7957,-0.6956,0.0,0.0,0.0,0.0,0.0,-0.9362,-0.9949,-1.0342,-1.0476,-1.0374,-1.0239,-1.0094,-0.9981,-0.9712,-0.9238,-0.9395,-0.9217,-0.8618,-0.8348,-0.8203,0.0,0.0,0.0,0.0,0.0,0.0,0.0,0.0,0.0,0.0,0.0,0.0,0.0,0.0,0.0,0.0,0.0,0.0,0.0,0.0,0.0,0.0,0.0,0.0,0.0,0.0,0.0,0.0,-0.3399,-0.4226,-0.5419,-0.5578,-0.545,0.0,0.0,0.0,0.0,0.0,0.0,-0.6434,-0.6589,-0.6834,-0.7201,-0.7382,-0.7529,-0.7834,-0.7837,-0.7926,-0.81,-0.81,-0.8147,-0.8167,-0.8108,-0.8117,-0.8106,-0.7837,-0.7728,-0.7717,-0.7572,-0.7198,-0.6723,-0.6898,-0.6741,0.0,-0.6966,-0.7538,-0.8159,-0.9053,-0.9721,-1.0182,-0.9871,0.0,-0.9278,-0.859,0.0,0.0,0.0,0.0,-0.9345,-1.0,0.0,-1.0911,-1.1037,-1.1079,-1.1079,-1.1079,-1.0891,-1.0428,0.0,-0.9367,-0.9087,-0.7838,0.0,0.0,0.0,0.0,-0.906,-0.9825,-1.0137,-1.0358,-1.049,-1.0342,-1.0121,-0.99,-0.9884,-0.9712,-0.9238,-0.9348,-0.9229,-0.876,-0.8322,-0.8269,-0.8657,0.0,0.0,0.0,0.0,0.0,0.0,0.0,0.0,0.0,0.0,0.0,0.0,0.0,0.0,0.0,0.0,0.0,0.0,0.0,0.0,0.0,0.0,0.0,0.0,0.0,0.0,0.0,0.0,0.0,-0.5941,-0.6355,0.0,0.0,0.0,0.0,-0.6222,-0.6336,-0.6562,-0.6929,-0.7165,-0.7456,-0.7815,-0.8007,-0.8073,-0.8143,-0.8145,-0.8151,-0.8225,-0.8225,-0.8167,-0.8167,-0.8108,-0.8117,-0.8108,-0.798,-0.7801,-0.7663,-0.7232,-0.7015,-0.6958,-0.6594,-0.6448,-0.6495,-0.7189,-0.7885,-0.8619,-0.9602,-1.0392,-1.1005,-1.1135,-1.0637,-0.9924,-0.9768,-0.938,0.0,0.0,-0.9866,-1.038,-1.0601,-1.0969,-1.1289,-1.1289,-1.1289,-1.1289,-1.1289,-1.1139,-1.0821,0.0,-1.0234,-0.9997,-0.9227,0.0,-0.9039,-0.8857,-0.9246,-0.962,-0.9884,-1.0137,-1.0299,-1.0309,-1.0089,-0.9895,-0.9922,-0.9884,-0.9712,-0.9238,-0.9195,-0.9014,-0.8549,-0.8052,-0.7888,-0.8049,-0.7285,0.0,0.0,0.0,0.0,0.0,0.0,0.0,0.0,0.0,0.0,0.0,0.0,0.0,0.0,0.0,0.0,0.0,0.0,0.0,0.0,0.0,0.0,0.0,0.0,0.0,0.0,0.0,0.0,-0.642,-0.6793,0.0,-0.6684,-0.673,-0.6823,-0.6948,-0.7138,-0.7375,-0.7717,-0.7752,-0.7929,-0.8214,-0.819,-0.8263,-0.8459,-0.8391,-0.8391,-0.8462,-0.8462,-0.8462,-0.8454,-0.8261,-0.8171,-0.816,-0.7959,-0.7847,-0.7793,-0.7548,-0.7307,-0.7136,-0.695,-0.6809,-0.6676,-0.6929,-0.7516,-0.8326,-0.928,-1.0237,-1.1083,-1.1622,-1.1394,-1.084,-1.0634,-1.0472,-1.0336,-1.0448,-1.0616,-1.0821,-1.1033,-1.1203,-1.1305,-1.1305,-1.1305,-1.1305,-1.1305,-1.1241,-1.1128,-1.0962,-1.0683,-1.0288,-0.9572,-0.9701,-0.9825,-0.9583,-0.9825,-1.018,-1.0557,-1.0423,-1.0353,-1.0498,-1.0159,-0.9884,-0.9884,-0.9787,-0.9556,-0.9222,-0.9066,-0.8809,-0.8328,-0.7968,-0.7887,-0.8055,-0.7504,-0.7237,0.0,0.0,0.0,0.0,0.0,0.0,0.0,0.0,0.0,0.0,0.0,0.0,0.0,0.0,0.0,0.0,0.0,0.0,0.0,0.0,0.0,0.0,0.0,0.0,0.0,0.0,-0.5791,-0.6794,-0.7295,-0.7437,-0.7184,-0.7307,-0.7445,-0.757,-0.7728,-0.7924,-0.8166,-0.8176,-0.8269,-0.847,-0.8397,-0.8429,-0.8587,-0.8513,-0.8513,-0.8587,-0.8587,-0.8587,-0.8579,-0.8342,-0.8172,-0.8156,-0.7978,-0.7872,-0.7867,-0.7788,-0.7568,-0.7274,-0.723,-0.7095,-0.6921,-0.6921,-0.7428,-0.8263,-0.9501,-1.0595,-1.1534,-1.1821,-1.1791,-1.1523,-1.1207,-1.1141,-1.123,-1.1229,-1.1254,-1.1233,-1.1283,-1.1305,-1.1305,-1.1305,-1.1305,-1.1305,-1.1305,-1.1241,-1.1182,-1.1182,-1.0994,-1.0662,-1.0148,-1.0315,-1.0444,-1.0196,-1.0369,-1.0611,-1.0837,-1.0595,-1.0439,-1.0474,-1.012,-0.989,-0.9814,-0.9669,-0.9473,-0.9109,-0.8872,-0.8598,-0.8229,-0.7849,-0.7717,-0.7858,-0.755,-0.7536,-0.7795,0.0,0.0,0.0,0.0,0.0,0.0,0.0,0.0,0.0,0.0,0.0,0.0,0.0,0.0,0.0,0.0,0.0,0.0,0.0,0.0,0.0,0.0,0.0,-0.452,-0.5404,-0.6272,-0.7126,-0.776,-0.7924,-0.7581,-0.7755,-0.7999,-0.8119,-0.813,-0.8174,-0.841,-0.8424,-0.8473,-0.8584,-0.8587,-0.8587,-0.8587,-0.8587,-0.8587,-0.8587,-0.8587,-0.8587,-0.8573,-0.8339,-0.817,-0.8214,-0.7975,-0.7872,-0.7872,-0.7872,-0.7731,-0.7508,-0.7331,-0.7266,-0.721,-0.721,-0.7624,-0.8491,-1.0309,-1.1617,-1.2296,-1.1781,-1.1804,-1.1952,-1.1482,-1.1502,-1.1685,-1.1729,-1.1704,-1.1645,-1.1375,-1.1316,-1.1305,-1.1305,-1.1316,-1.1316,-1.1311,-1.1171,-1.1004,-1.0999,-1.1187,-1.123,-1.1025,-1.0988,-1.0918,-1.0651,-1.0842,0.0,-1.0635,-1.0592,-1.0541,-1.0315,-1.0067,-0.983,-0.9646,-0.9614,-0.9403,-0.8927,-0.8635,-0.8393,-0.8207,-0.7693,-0.7394,-0.7412,-0.7404,-0.7666,-0.8194,0.0,0.0,0.0,0.0,0.0,0.0,0.0,0.0,0.0,0.0,0.0,0.0,0.0,0.0,0.0,0.0,0.0,0.0,0.0,0.0,0.0,0.0,-0.3687,-0.4013,-0.5801,-0.728,-0.7774,-0.803,-0.8182,-0.8171,-0.8231,-0.8282,-0.8315,-0.8394,-0.847,-0.8535,-0.8541,-0.8554,-0.8587,-0.8587,-0.8587,-0.8587,-0.8587,-0.8587,-0.8587,-0.8587,-0.8543,-0.8459,-0.8304,-0.8187,-0.8095,-0.7937,-0.7872,-0.7872,-0.7872,-0.7731,-0.7516,-0.7483,-0.7339,-0.721,-0.721,-0.8008,-0.9262,-0.9988,-1.1175,-1.2292,-1.2209,-1.2233,-1.2234,-1.191,-1.1843,-1.1932,-1.1976,-1.1828,-1.1682,-1.1623,-1.1434,-1.1305,-1.1305,-1.1439,-1.1558,-1.1343,-1.1429,-1.1451,-1.1241,-1.1262,-1.123,-1.1025,-1.1133,-1.1187,-1.1123,0.0,0.0,-1.0896,-1.0595,-1.0363,-1.0299,-1.0067,-0.9895,-0.983,-0.9507,-0.9179,0.0,-0.8506,-0.8176,-0.7933,-0.7578,-0.7477,-0.7623,-0.7384,-0.7517,0.0,0.0,0.0,0.0,0.0,0.0,0.0,0.0,0.0,0.0,0.0,0.0,0.0,0.0,0.0,0.0,0.0,0.0,0.0,0.0,0.0,0.0,-0.1989,-0.3254,-0.3831,-0.612,-0.7858,-0.8171,-0.831,-0.841,-0.8481,-0.8489,-0.8489,-0.8489,-0.8552,-0.8587,-0.8587,-0.8587,-0.8587,-0.8587,-0.8587,-0.8587,-0.8587,-0.8587,-0.8587,-0.8587,-0.8587,-0.8527,-0.8413,-0.8291,-0.8168,0.0,-0.7985,-0.7872,-0.7867,-0.782,-0.769,0.0,0.0,0.0,0.0,0.0,-0.7953,-0.9051,-0.9624,-1.069,-1.1773,-1.2002,-1.2224,-1.2349,-1.2069,-1.2076,-1.2173,-1.2222,-1.2027,-1.1822,-1.1725,-1.1482,-1.1305,-1.1305,-1.1413,-1.1472,-1.1337,-1.1413,-1.1472,-1.1332,0.0,0.0,-1.116,-1.1214,-1.1305,-1.1305,-1.1144,-1.095,0.0,-1.0519,-1.0256,-1.0148,-1.0008,-0.9879,-0.9787,-0.9427,0.0,0.0,0.0,-0.803,-0.7637,-0.7498,0.0,0.0,0.0,0.0,0.0,0.0,0.0,0.0,-0.8605,-0.8626,0.0,0.0,0.0,0.0,0.0,0.0,0.0,0.0,0.0,0.0,0.0,0.0,0.0,0.0,0.0,0.0,-0.1036,-0.242,-0.3679,-0.6191,-0.8031,-0.8391,-0.8519,-0.8587,-0.8587,-0.8587,-0.8587,-0.8587,-0.8587,-0.8587,-0.8587,0.0,0.0,0.0,0.0,-0.8587,-0.8587,-0.8587,-0.8587,-0.8587,-0.8573,-0.8508,-0.8394,-0.8272,-0.8149,-0.8089,-0.798,-0.7872,-0.7861,-0.7763,-0.7641,-0.7516,-0.7489,-0.7345,-0.721,-0.721,-0.7633,0.0,0.0,0.0,0.0,-1.1392,-1.1898,-1.2322,-1.2127,-1.2224,-1.2425,-1.2416,-1.2274,-1.2078,-1.1801,-1.1564,-1.1337,-1.1316,-1.1327,-1.1337,-1.1316,-1.1327,-1.1337,-1.1316,-1.1305,-1.1305,-1.1305,-1.1305,-1.1305,-1.1305,-1.1117,0.0,-1.0619,-1.0412,-1.0169,-0.9943,0.0,0.0,-0.9637,-0.9362,-0.9109,-0.8911,-0.8446,-0.7982,-0.7453,-0.7487,-0.7554,-0.7709,-0.7703,-0.8032,-0.868,-0.9202,-0.9452,-0.9425,-0.9066,-0.9175,0.0,0.0,0.0,0.0,0.0,0.0,0.0,0.0,0.0,0.0,0.0,0.0,0.0,0.0,0.0,0.0107,-0.1073,-0.2085,-0.2469,-0.4921,-0.7089,-0.8269,-0.8519,-0.8587,-0.8587,-0.8587,-0.8587,-0.8587,-0.8587,-0.8587,-0.8587,-0.8587,0.0,-0.8587,-0.8587,-0.8587,-0.8587,-0.8587,-0.8587,-0.8587,0.0,0.0,-0.8266,-0.8144,-0.8021,-0.7966,-0.788,-0.7872,-0.7869,-0.7847,-0.7712,-0.75,-0.7301,-0.7251,-0.721,-0.721,-0.7747,-0.8475,-0.8699,-0.9711,-1.0943,-1.1047,-1.1573,-1.2127,-1.2273,-1.237,0.0,-1.2657,-1.2527,-1.2285,-1.2089,-1.1806,-1.1585,-1.1354,-1.145,-1.158,-1.1348,-1.1455,-1.158,-1.1343,-1.1305,-1.1305,-1.1305,-1.1305,-1.1305,-1.1305,-1.0941,-1.0646,-1.0603,-1.0256,-0.9976,-0.9889,-0.9884,-0.99,-0.9857,-0.9453,-0.9109,-0.8911,-0.8446,-0.8052,-0.7747,-0.7944,-0.7963,-0.7777,-0.7777,-0.8003,-0.8451,-0.9003,-0.9407,-0.9716,-1.0079,-1.0141,0.0,0.0,0.0,0.0,0.0,0.0,0.0,0.0,0.0,0.0,0.0,0.0374,0.0289,0.0,0.0108,0.0,-0.0584,-0.1275,-0.1982,-0.3281,-0.4991,-0.7156,-0.8087,-0.8587,-0.8587,-0.8587,-0.8587,-0.8587,-0.8587,-0.8587,-0.8587,-0.8587,-0.8587,-0.8587,-0.8587,-0.8587,-0.8587,-0.8587,-0.856,-0.8503,-0.8446,-0.8323,-0.8141,-0.8144,-0.8048,-0.7872,-0.7872,-0.7872,-0.7861,-0.7741,-0.7589,-0.741,-0.7225,-0.721,-0.721,-0.721,-0.7487,-0.791,-0.8259,-0.897,-0.9752,-1.0543,-1.1151,-1.1722,-1.2219,-1.2467,-1.2613,-1.2764,-1.2597,-1.2361,-1.2159,-1.1921,-1.1551,-1.1093,-1.113,-1.1275,-1.1018,-1.1179,-1.1363,-1.1332,-1.1305,-1.1305,-1.1305,-1.1305,-1.1268,-1.1187,-1.0823,-1.0554,-1.0476,-1.0148,-0.9884,-0.9884,-0.9884,-0.9884,-0.9884,-0.948,-0.9055,-0.8711,-0.8495,-0.8252,-0.8014,-0.8117,-0.8068,-0.7806,-0.7801,-0.7974,-0.8306,-0.8812,-0.9354,-0.9912,-1.0433,-1.0666,0.0,0.0,0.0,0.0,0.0,0.0,0.0,0.0,0.0727,0.0512,0.0345,0.0259,0.0264,0.011,0.0,0.0,0.0,-0.037,-0.1532,-0.1929,-0.3051,-0.5644,-0.7289,-0.8184,-0.8184,-0.8454,-0.8587,-0.8587,-0.8587,-0.8587,-0.8587,-0.8587,-0.8587,-0.8587,-0.8587,-0.8587,-0.8587,-0.8565,-0.8508,-0.8418,-0.8369,-0.8244,-0.8114,-0.8092,-0.8026,-0.7872,-0.7872,-0.7872,-0.7853,-0.7616,-0.7462,-0.7355,-0.7211,-0.721,-0.721,-0.721,-0.721,-0.7249,-0.7804,-0.8091,-0.8455,-0.9768,-1.053,-1.1126,-1.1922,-1.2419,-1.2716,-1.2813,-1.2576,-1.2283,-1.2039,-1.1759,-1.1392,-1.067,-1.0725,-1.0873,-1.0641,-1.0824,-1.1051,-1.1262,-1.1305,-1.1305,-1.1305,-1.1268,-1.1171,-1.1015,-1.0789,-1.0512,-1.0326,-1.0078,-0.9884,-0.9884,-0.9884,-0.9847,-0.9787,-0.9427,-0.9007,-0.8544,-0.8517,-0.8425,-0.8257,-0.8252,-0.816,-0.7941,-0.7941,-0.8032,-0.8252,-0.8745,-0.9344,-1.0021,-1.0541,-1.095,0.1172,0.1109,0.0873,0.0672,0.0642,0.0532,0.0,0.0,0.0309,0.0107,0.0055,0.0056,0.0057,0.0,0.0,0.0,0.0,-0.0063,-0.019,-0.1343,-0.2642,-0.4202,-0.5684,-0.6644,-0.6644,-0.7848,-0.8587,-0.8587,-0.8587,-0.8587,-0.8587,-0.8587,-0.8587,-0.8587,-0.8587,-0.8587,-0.8587,-0.8486,-0.8432,-0.8416,-0.8198,-0.8144,-0.8111,-0.8002,-0.7883,-0.7872,-0.7872,-0.7872,-0.7853,-0.7616,-0.751,-0.7475,-0.73,-0.721,-0.721,-0.721,-0.721,-0.7207,-0.7304,-0.7471,-0.779,-0.8455,-0.9325,-1.0293,-1.1077,-1.1868,-1.2467,-1.2716,-1.2452,-1.1991,-1.172,-1.1305,-1.0851,-1.0372,-1.0485,-1.0727,-1.0636,-1.0824,-1.1051,-1.1262,-1.1305,-1.1305,-1.1305,-1.1171,-1.1015,-1.0988,-1.0789,-1.0512,-1.0326,-1.0078,-0.9884,-0.9884,-0.9884,-0.975,-0.9319,-0.9238,-0.9007,-0.8544,-0.8517,-0.8506,-0.8474,-0.8474,-0.8463,-0.8436,-0.8436,-0.8447,-0.8474,-0.9009,-0.9526,-1.0021,-1.0541,-1.1069,0.1013,0.0865,0.0687,0.0491,0.0464,0.0435,0.0205,0.0264,0.0271,0.0056,0.0,0.0,0.0,0.0,0.0,0.0,0.0,0.0,0.0,-0.0508,-0.1336,-0.2605,-0.414,-0.5717,-0.7422,-0.8091,-0.8516,-0.8581,-0.8587,-0.8587,-0.8587,-0.8587,-0.8587,-0.8587,-0.8587,-0.8557,-0.8489,-0.8443,-0.8348,-0.8206,-0.8166,-0.8078,-0.8007,-0.7955,-0.7872,-0.7872,-0.7872,-0.7872,-0.7853,-0.7616,-0.7519,-0.7494,-0.7306,-0.721,-0.721,-0.721,-0.721,-0.721,-0.721,-0.721,-0.7318,-0.7768,-0.8381,-0.9141,-1.0175,-1.1077,-1.1819,-1.2419,-1.2273,-1.1925,-1.166,-1.1153,-1.0564,-0.9944,-1.0053,-1.0299,-1.025,-1.0559,-1.0824,-1.0862,-1.0906,-1.0819,-1.0564,-1.0379,-1.0188,-1.0012,-1.0256,-1.0353,-1.0105,-0.9986,-0.9884,-0.9884,-0.9884,-0.9723,-0.9244,-0.9206,-0.9007,-0.8544,-0.8517,-0.8517,-0.8517,-0.8517,-0.8517,-0.8517,-0.8517,-0.8517,-0.8517,-0.8738,-0.9081,-0.9614,-1.0091,-1.0636,0.0965,0.0732,0.0598,0.0332,0.0299,0.026,0.0213,0.0274,0.0225,0.0058,0.0,0.0,0.0,0.0,0.0,0.0,0.0,0.0,0.0,0.0,-0.0564,-0.2178,-0.3315,-0.5124,-0.7994,-0.8329,-0.8416,-0.8532,-0.8541,-0.8554,-0.8587,-0.8587,-0.8587,-0.8587,-0.8557,-0.8503,-0.8418,-0.835,-0.8228,-0.8117,-0.8081,-0.8018,-0.7872,-0.7872,-0.7872,-0.7872,-0.7872,-0.7872,-0.7853,-0.7616,-0.7519,-0.7494,-0.7306,-0.721,-0.721,-0.721,-0.721,-0.721,-0.721,-0.7026,-0.6799,-0.7152,-0.7544,-0.8069,-0.9065,-1.0096,-1.113,-1.1873,-1.1927,-1.1745,-1.1543,-1.0961,-1.0209,-0.9561,-0.9656,-0.9864,-0.982,-1.0168,-1.0467,-1.0424,-1.0424,-1.0337,-1.0038,-0.9776,-0.9507,-0.9346,-0.9622,-0.9779,-0.9597,-0.9657,-0.9771,-0.9809,-0.9884,-0.9723,-0.9244,-0.9206,-0.9007,-0.8544,-0.8517,-0.8517,-0.8517,-0.8517,-0.8517,-0.8517,-0.8517,-0.8517,-0.8517,-0.8517,-0.877,-0.9306,-0.9767,-1.0281,0.1083,0.0832,0.0627,0.0357,0.016,0.0,0.0,0.0,0.0,0.0,0.0,0.0,0.0,0.0,0.0,0.0,0.0,0.0,0.0,0.0,-0.092,-0.3437,-0.3805,-0.489,0.0,-0.8103,-0.8291,-0.8413,-0.8424,-0.8473,-0.8581,-0.8587,-0.8587,-0.8587,-0.8481,-0.8421,-0.8418,-0.8182,-0.8125,-0.8114,-0.7993,-0.7875,-0.7872,-0.7872,-0.7872,-0.7872,-0.7872,-0.7872,-0.7853,-0.7616,-0.7519,-0.7494,-0.7306,-0.721,-0.721,-0.721,-0.721,-0.721,-0.721,-0.6748,-0.615,-0.6358,-0.6711,-0.7103,-0.7522,-0.897,-1.0556,-1.1077,-1.1233,-1.1243,-1.1184,-1.05,-0.9693,-0.9228,-0.9354,-0.9559,-0.9345,-0.9694,-1.0038,-1.0038,-1.0038,-0.9994,-0.9994,-0.9606,-0.9291,-0.9282,-0.8973,-0.8746,-0.8742,-0.9089,-0.9397,-0.9582,-0.9771,-0.9723,-0.9244,-0.9206,-0.9007,-0.8544,-0.8517,-0.8517,-0.8517,-0.8517,-0.8517,-0.8517,-0.8517,-0.8517,-0.8517,-0.8517,-0.877,-0.9306,-0.9767,-1.0281,0.048,-0.0692,-0.1679,-0.0266,-0.0607,-0.108,-0.0174,0.0,0.0,0.0,0.0,0.0,0.0,0.0,0.0,0.0,0.0,0.0,0.0,-0.074,-0.1893,-0.3505,-0.4563,0.0,0.0,0.0,0.0,-0.8282,-0.8372,-0.8435,-0.8473,-0.8546,-0.8554,-0.8478,-0.8437,-0.8339,-0.8179,-0.8158,-0.8075,-0.7993,-0.7952,-0.7872,-0.7872,-0.7872,-0.7872,-0.7872,-0.7872,-0.7872,-0.7853,-0.7616,-0.7519,-0.7494,-0.7306,-0.721,-0.721,-0.721,-0.7046,-0.6879,-0.7099,-0.6908,-0.6463,-0.6224,-0.6245,-0.6438,-0.6897,-0.7624,-0.8563,-0.9993,-1.0149,-1.0006,-1.0507,-1.0118,-0.9475,-0.9171,-0.9229,-0.9322,-0.9288,-0.9519,-0.9689,-0.9563,-0.9519,-0.9432,-0.913,-0.8828,-0.8571,-0.8322,-0.8533,-0.8703,-0.8703,-0.8818,-0.8932,-0.9008,-0.8956,-0.8831,-0.8609,-0.8612,-0.8531,-0.8327,-0.8414,-0.8517,-0.8517,-0.8517,-0.8517,-0.8517,-0.8517,-0.8517,-0.8517,-0.8517,-0.8582,-0.8797,-0.9614,-1.0085,-0.1072,-0.2207,-0.3118,-0.1738,-0.2005,-0.2326,-0.1005,-0.0703,-0.0518,-0.0113,0.0,0.0,0.0,0.0,0.0,0.0,0.0,0.0,0.0,-0.1167,-0.2427,-0.3564,-0.492,-0.6259,0.0,0.0,0.0,-0.8152,-0.8242,-0.8307,-0.835,-0.8421,-0.8429,-0.8356,-0.831,-0.8212,-0.8117,-0.8073,-0.801,-0.7872,-0.7872,-0.7872,-0.7872,-0.7872,-0.7872,-0.7872,-0.7872,-0.7872,-0.7853,-0.7616,-0.7519,-0.7494,-0.7306,-0.7154,-0.7046,-0.7046,-0.6824,-0.6606,-0.6935,-0.6712,-0.6352,-0.6013,-0.588,-0.5872,-0.6205,-0.6665,-0.7322,-0.8612,-0.8913,-0.8966,-0.9764,-0.9535,-0.9116,-0.909,-0.9138,-0.9176,-0.9081,-0.9218,-0.9301,-0.9087,-0.9043,-0.8959,-0.8656,-0.8357,-0.8093,-0.7845,-0.8065,-0.8284,-0.8365,-0.8441,-0.8513,-0.8589,-0.8487,-0.8352,-0.8245,-0.8236,-0.8214,-0.8122,-0.8306,-0.8414,-0.8484,-0.8517,-0.8517,-0.8517,-0.8517,-0.8517,-0.8517,-0.8517,-0.8517,-0.8517,-0.9518,-0.9983,-0.3357,-0.36,-0.3805,-0.3859,-0.3923,-0.3602,-0.2333,-0.191,-0.1447,-0.0328,-0.0053,0.0,0.0,0.0,0.0,0.0,0.0,0.0,0.0,-0.1218,-0.2531,0.0,0.0,0.0,0.0,0.0,0.0,-0.8089,0.0,-0.8103,-0.822,-0.817,-0.817,-0.8225,-0.8114,-0.8114,-0.8106,-0.7991,-0.7872,-0.7872,-0.7872,-0.7872,-0.7872,-0.7872,-0.7872,-0.7872,-0.7872,-0.7872,-0.7853,-0.7616,-0.7519,-0.7494,-0.7249,-0.6988,-0.6715,-0.6659,-0.6495,-0.633,-0.6548,-0.6267,-0.5806,-0.5707,-0.5612,-0.5466,-0.5419,-0.6027,-0.6778,-0.7074,-0.7524,-0.8074,-0.8871,-0.8852,-0.8689,-0.8949,-0.91,-0.9099,-0.8693,-0.874,-0.8823,-0.8656,-0.8612,-0.8608,-0.86,-0.8251,-0.7955,-0.7824,-0.7641,-0.7561,-0.7765,-0.7953,-0.814,-0.8327,-0.8328,-0.8266,-0.8063,-0.8054,-0.8042,-0.8002,-0.8107,-0.8306,-0.8484,-0.8517,-0.8517,-0.8517,-0.8517,-0.8517,-0.8517,-0.8517,-0.8517,-0.8517,-0.9518,-0.999,-0.3916,-0.5203,-0.6203,-0.4314,-0.4517,-0.4861,-0.3389,-0.2405,-0.1683,-0.13,-0.055,0.0,0.0,0.0,0.0,0.0,0.0,0.0,0.0,-0.1951,0.0,-0.3791,0.0,-0.7454,-0.7706,-0.7777,0.0,0.0,-0.8065,-0.813,-0.8098,-0.8187,-0.8193,-0.8103,-0.8133,-0.8073,-0.798,-0.7947,-0.7872,-0.7872,-0.7872,-0.7872,-0.7872,-0.7872,-0.7872,-0.7872,-0.7872,-0.7872,-0.7853,-0.7616,-0.7519,-0.7436,-0.7027,-0.6768,-0.6659,-0.6495,-0.6216,-0.5935,-0.5989,-0.5933,-0.5806,-0.5707,-0.545,-0.5252,-0.5365,-0.5368,-0.5484,-0.6381,-0.6534,-0.6686,-0.7484,-0.81,-0.8398,-0.8222,-0.8683,-0.9034,-0.8677,-0.8656,-0.8652,-0.8612,-0.8612,-0.8567,-0.8385,-0.8166,-0.7955,-0.7824,-0.7641,-0.7522,-0.7561,-0.7638,-0.7676,-0.7714,-0.7499,-0.7391,-0.7406,-0.7444,-0.7522,-0.7764,-0.8042,-0.8306,-0.8484,-0.8517,-0.8517,-0.8517,-0.8517,-0.8517,-0.8517,-0.8517,-0.8517,-0.8511,-0.9177,-0.9678,-0.5687,-0.6679,-0.7444,-0.5901,-0.6002,-0.61,-0.4488,-0.3326,-0.233,-0.1458,-0.0609,0.0046,0.0134,-0.0322,-0.0721,0.0,0.0,0.0,-0.1675,-0.3473,-0.4782,0.0,-0.6605,0.0,-0.7782,-0.7834,-0.7872,0.0,-0.7996,-0.8034,-0.8034,-0.8038,-0.8043,-0.8037,-0.8034,-0.7878,-0.7691,-0.7811,-0.7811,-0.7689,-0.7811,-0.7872,-0.7872,-0.7872,-0.7872,-0.7872,0.0,-0.7781,-0.7598,-0.7415,-0.7193,-0.6957,-0.6671,-0.6437,-0.627,-0.6161,-0.5882,-0.5601,-0.5601,-0.5601,-0.5592,-0.5594,-0.5376,-0.51,-0.5258,-0.5043,-0.4935,-0.5536,-0.5586,-0.5639,-0.6489,-0.6989,-0.7415,-0.7804,-0.825,-0.8579,-0.8597,-0.8612,-0.8612,-0.8612,-0.8612,-0.8551,-0.8321,-0.8138,-0.7955,-0.7824,-0.7641,-0.7484,-0.7484,-0.7484,-0.7484,-0.7484,-0.72,-0.7055,-0.7193,-0.7128,-0.7237,-0.7666,-0.7949,-0.8242,-0.8484,-0.8517,-0.8517,-0.8517,-0.8517,-0.8517,-0.8517,-0.8517,-0.8517,-0.8517,-0.9049,-0.955,-0.769,-0.7796,-0.7839,-0.7709,-0.7584,-0.7075,-0.5523,-0.446,-0.3276,-0.1679,-0.0789,-0.0257,-0.0042,-0.0951,-0.1734,-0.1879,0.0,-0.3607,-0.38,-0.4981,-0.5894,-0.5906,-0.7072,-0.7872,-0.7872,-0.7872,-0.7872,-0.7872,-0.7872,-0.7872,-0.7872,-0.7872,-0.7872,-0.7872,-0.7872,-0.775,-0.7447,-0.7734,-0.7734,-0.7447,-0.7734,-0.7856,-0.7872,-0.7872,-0.7869,-0.7811,0.0,0.0,-0.7207,-0.7077,-0.6792,-0.6412,-0.6256,-0.6049,-0.5822,-0.5766,-0.5603,-0.5382,-0.5382,-0.5382,-0.538,-0.5367,-0.5249,-0.5106,-0.5094,-0.4969,-0.4784,-0.4784,-0.4784,-0.4985,-0.5639,-0.5942,-0.6286,-0.7352,-0.7745,-0.798,-0.8403,-0.854,-0.8612,-0.8612,-0.8612,-0.8547,-0.8292,-0.8117,-0.7947,-0.7792,-0.7624,-0.7484,-0.7484,-0.7484,-0.7484,-0.7484,-0.7224,-0.7084,-0.7158,-0.7018,-0.7104,-0.7568,-0.7792,-0.8052,-0.8382,-0.842,-0.8447,-0.8447,-0.8479,-0.8517,-0.8517,-0.8517,-0.8517,-0.8517,-0.899,-0.951,-0.7809,-0.7856,-0.7818,-0.7606,-0.7459,-0.7105,-0.6329,-0.5281,0.0,-0.367,-0.2745,-0.1969,-0.1595,-0.1961,-0.2315,-0.2278,-0.2774,-0.3284,-0.3736,-0.4901,-0.576,0.0,-0.7072,-0.7872,-0.7872,0.0,0.0,0.0,0.0,0.0,-0.7872,-0.7872,-0.7872,-0.7872,-0.7872,-0.7872,-0.7811,-0.778,-0.778,-0.7808,-0.7777,-0.778,-0.7872,-0.7872,-0.775,-0.7503,0.0,0.0,-0.6846,-0.6645,-0.6496,-0.6353,-0.6027,-0.5877,-0.5766,-0.5547,-0.5437,-0.5382,-0.5382,-0.5382,-0.5369,-0.5294,-0.5196,-0.5094,-0.5018,-0.492,-0.4784,-0.4784,-0.4784,-0.4834,-0.4985,-0.5489,-0.6009,-0.6117,-0.706,-0.7869,-0.7773,-0.8217,-0.8612,-0.8612,-0.8612,-0.8502,-0.8117,-0.8032,-0.7902,-0.7577,-0.7504,-0.7484,-0.7484,-0.7484,-0.7484,-0.7484,-0.7297,-0.7119,-0.7036,-0.6969,-0.6945,-0.7021,-0.7237,-0.7498,-0.7829,-0.7987,-0.8149,-0.8236,-0.8409,-0.8517,-0.8517,-0.8517,-0.8517,-0.8517,-0.8608,-0.9288,-0.7839,-0.7872,-0.7815,-0.7578,-0.7377,-0.707,-0.641,0.0,0.0,-0.3782,-0.2871,-0.2157,-0.1992,-0.2579,-0.3173,-0.3461,-0.4034,-0.4708,-0.5367,-0.6077,-0.6567,-0.6786,-0.7466,-0.7872,0.0,0.0,0.0,0.0,0.0,0.0,-0.7872,-0.7872,-0.7872,-0.7872,-0.7872,-0.7781,-0.7538,-0.7725,-0.7606,-0.7296,-0.7485,-0.7456,-0.7385,-0.7385,-0.7294,-0.7115,0.0,0.0,-0.6394,-0.6237,-0.6052,-0.5832,-0.5676,-0.5601,-0.5603,-0.5437,-0.5382,-0.5382,-0.5382,-0.5349,-0.5296,-0.5204,-0.5143,-0.5092,-0.5,-0.4908,-0.4784,-0.4784,-0.4784,-0.4784,-0.4784,-0.5087,-0.5461,-0.575,-0.6783,-0.7703,-0.759,-0.8086,-0.8612,-0.8612,-0.8612,-0.8494,-0.8077,-0.8012,-0.789,-0.7537,-0.7484,-0.7484,-0.7484,-0.7484,-0.7484,-0.7484,-0.733,-0.7229,-0.7244,-0.7053,-0.6992,-0.7205,-0.7197,-0.7335,-0.7591,-0.7689,-0.7787,-0.7949,-0.8149,-0.8279,-0.8344,-0.8447,-0.8517,-0.8517,-0.8641,-0.9271,-0.7804,-0.7834,-0.7782,-0.7573,-0.7296,-0.6904,-0.6187,-0.5108,-0.4078,-0.3619,-0.2886,-0.2383,-0.2407,-0.3144,-0.395,-0.4432,-0.5206,-0.5995,-0.6767,-0.7029,-0.7255,0.0,-0.7763,0.0,-0.7869,0.0,0.0,0.0,0.0,0.0,0.0,-0.7872,-0.7872,-0.7872,-0.7872,-0.7704,-0.725,-0.7556,-0.7435,-0.6774,-0.7076,-0.7109,-0.6867,-0.6867,-0.6808,-0.6648,0.0,0.0,0.0,-0.5891,-0.5671,-0.5382,-0.5382,-0.5382,-0.5382,-0.5382,-0.5382,-0.5377,-0.5359,-0.5304,-0.5172,-0.5116,-0.5079,-0.5061,-0.4971,-0.4892,-0.4784,-0.4784,-0.4784,-0.4784,-0.4784,-0.4784,-0.4958,-0.5623,-0.6476,-0.7225,-0.7432,-0.7937,-0.8432,-0.8564,-0.8612,-0.8494,-0.8077,-0.8012,-0.789,-0.7537,-0.7484,-0.7484,-0.7484,-0.7484,-0.7484,-0.7484,-0.7362,-0.7302,-0.7409,-0.7101,-0.7039,-0.7313,-0.7152,-0.7134,-0.733,-0.7363,-0.7461,-0.7661,-0.7889,-0.8105,-0.8282,-0.8483,-0.8592,-0.8592,-0.8909,-0.9474,-0.7684,-0.7717,-0.7684,-0.7551,-0.7173,-0.6648,-0.6002,0.0,-0.4866,-0.4301,-0.4038,-0.3853,-0.3761,-0.4054,-0.4394,-0.4576,-0.5106,-0.5711,-0.6304,-0.6749,-0.7135,-0.7494,0.0,0.0,0.0,0.0,0.0,0.0,0.0,0.0,0.0,-0.7872,-0.7872,-0.7872,-0.7872,-0.7744,-0.737,-0.7276,-0.7158,-0.6884,-0.6796,-0.6755,-0.6818,-0.6818,-0.6581,-0.6185,0.0,0.0,0.0,-0.5481,-0.5446,-0.5382,-0.5382,-0.5382,-0.5382,-0.5382,-0.5382,-0.5369,-0.5286,-0.5196,-0.5162,-0.5041,-0.4983,-0.4967,-0.4875,-0.479,-0.4784,-0.4784,-0.4784,-0.4784,-0.4784,-0.4784,-0.4939,-0.548,-0.5665,-0.6042,-0.7255,-0.7533,-0.7801,-0.8476,-0.8612,-0.8494,-0.8077,-0.8012,-0.789,-0.7537,-0.7484,-0.7484,-0.7484,-0.7484,-0.7484,-0.7484,-0.7468,-0.7395,-0.7236,-0.7077,-0.6933,-0.6773,-0.6589,-0.6581,-0.6773,-0.6876,-0.7138,-0.7521,-0.7819,-0.8187,-0.8565,-0.8767,-0.8863,-0.8868,-0.9343,-1.0025,-0.7429,-0.7535,-0.7543,-0.7347,-0.6994,-0.6514,-0.5989,-0.5332,-0.4755,-0.4412,-0.4108,-0.3918,-0.3915,-0.4006,-0.4218,-0.4591,-0.4804,-0.5137,-0.5859,-0.6182,-0.6521,-0.7027,-0.732,0.0,0.0,0.0,0.0,0.0,0.0,0.0,0.0,-0.7872,-0.7872,-0.7872,-0.7872,-0.7715,-0.7283,-0.7306,-0.7064,-0.6496,-0.6457,-0.6379,-0.6199,-0.614,-0.5942,-0.5734,0.0,0.0,0.0,-0.5396,-0.5382,-0.5382,-0.5382,-0.5382,-0.5382,-0.5382,-0.5382,-0.5369,-0.5221,-0.5154,-0.5141,-0.5014,-0.4934,-0.4881,-0.4796,-0.4784,-0.4784,-0.4784,-0.4784,-0.4784,-0.4784,-0.4746,-0.4775,-0.4934,-0.5241,-0.5636,-0.6147,-0.6915,-0.7577,-0.7893,-0.8296,-0.8494,-0.8077,-0.8012,-0.789,-0.7537,-0.7484,-0.7484,-0.7484,-0.7484,-0.7484,-0.7484,-0.7484,-0.7411,-0.7203,-0.7094,-0.6914,-0.6708,-0.6522,-0.6482,-0.6708,-0.6741,-0.6942,-0.7297,-0.7661,-0.8032,-0.8417,-0.876,-0.8971,-0.9106,-0.9805,-1.0445,-0.7157,-0.7296,-0.732,-0.7202,-0.6727,-0.6262,-0.5802,-0.512,-0.452,-0.4254,-0.4008,-0.3825,-0.3896,-0.3892,-0.401,-0.452,-0.4508,-0.4716,-0.5466,-0.5719,-0.6005,0.0,0.0,0.0,0.0,0.0,0.0,0.0,0.0,0.0,0.0,-0.7585,-0.7617,-0.7747,-0.7715,-0.7475,-0.6916,-0.6962,-0.6705,-0.6034,-0.6094,-0.596,-0.5698,-0.5633,-0.5555,0.0,0.0,0.0,0.0,-0.5382,-0.5382,-0.5382,-0.5382,-0.5382,-0.5382,-0.5382,-0.5365,-0.5328,-0.5237,-0.5143,-0.5053,-0.4961,-0.4888,-0.4784,-0.4784,-0.4784,-0.4784,-0.4784,-0.4784,-0.4784,-0.4784,-0.4751,-0.4653,-0.4587,-0.4897,-0.5189,-0.5345,-0.6166,-0.7003,-0.7401,-0.7937,-0.8226,-0.8035,-0.8012,-0.789,-0.7537,-0.7484,-0.7484,-0.7484,-0.7484,-0.7484,-0.7484,-0.7439,-0.7378,-0.7305,-0.7135,-0.6992,-0.6781,-0.6599,-0.6535,-0.6708,-0.6741,-0.6968,-0.7357,-0.772,-0.8124,-0.8606,-0.8854,-0.9186,-0.9597,-1.0308,-1.0939,-0.6891,-0.6989,-0.6991,-0.6989,-0.638,-0.5724,-0.5381,-0.477,-0.4206,-0.3878,-0.38,-0.3825,-0.3896,-0.3832,-0.39,-0.4261,-0.4312,-0.4499,-0.5139,-0.5444,-0.5808,0.0,0.0,0.0,0.0,0.0,0.0,0.0,0.0,0.0,0.0,0.0,-0.6859,-0.738,-0.7336,-0.6975,-0.6315,-0.6166,-0.5942,-0.5586,-0.5586,-0.5598,-0.551,-0.551,0.0,0.0,0.0,0.0,0.0,-0.5382,-0.5382,-0.5382,-0.5382,-0.5382,-0.5382,-0.5382,-0.5324,-0.5178,-0.5141,-0.5049,-0.4959,-0.4867,-0.4786,-0.4784,-0.4784,-0.4784,-0.4784,-0.4784,-0.4784,-0.4784,-0.4784,-0.4704,-0.4621,-0.4621,-0.4432,-0.4523,-0.5238,-0.5416,-0.5813,-0.7224,-0.7489,-0.7606,-0.7948,-0.8012,-0.789,-0.7537,-0.7484,-0.7484,-0.7484,-0.7484,-0.7484,-0.7484,-0.733,-0.7297,-0.7464,-0.7322,-0.7143,-0.6996,-0.6812,-0.6696,-0.6716,-0.6811,-0.7167,-0.7773,-0.8107,-0.8627,-0.9296,-0.9243,-0.9643,-1.0503,-1.0775,-1.1625,-0.6026,-0.6171,-0.6253,-0.6095,-0.5667,-0.5243,-0.4978,-0.4572,-0.4206,-0.3876,-0.38,-0.3734,-0.3466,-0.3614,-0.3863,-0.3994,-0.4159,-0.4436,0.0,0.0,0.0,0.0,0.0,0.0,0.0,0.0,0.0,0.0,0.0,0.0,0.0,0.0,-0.6903,-0.6857,-0.6825,-0.6631,-0.6162,-0.6133,-0.594,-0.5584,-0.5582,-0.5535,-0.5506,-0.5447,0.0,0.0,0.0,0.0,0.0,-0.5382,-0.5382,-0.5382,-0.5382,-0.5382,-0.5373,-0.531,-0.5215,-0.5168,-0.5067,-0.4996,-0.4957,-0.4863,-0.4784,-0.4784,-0.4784,-0.4784,-0.4784,-0.4784,-0.4784,-0.477,-0.4763,-0.4661,-0.4557,-0.4493,-0.4385,-0.4342,-0.4612,-0.5057,-0.568,-0.6561,-0.7136,-0.7643,-0.8116,-0.8097,-0.7935,-0.7747,-0.7604,-0.7484,-0.7484,-0.7484,-0.7484,-0.7484,-0.7435,-0.7374,-0.7313,-0.7143,-0.7,-0.6824,-0.6869,-0.689,-0.684,-0.7022,-0.7329,-0.7776,-0.8125,-0.8548,-0.9087,-0.9352,-1.0122,-1.1316,-1.1817,-1.2518,-0.551,-0.5578,-0.5603,-0.5466,-0.5181,-0.4894,-0.4724,-0.444,-0.4146,-0.3893,-0.3809,-0.3725,-0.3458,-0.356,-0.3735,-0.3894,-0.3999,-0.4246,0.0,0.0,0.0,0.0,0.0,0.0,0.0,0.0,0.0,0.0,0.0,0.0,0.0,0.0,-0.6462,-0.6178,-0.6272,-0.6292,-0.6063,-0.5912,-0.572,-0.5545,-0.5488,-0.5461,-0.5457,0.0,0.0,0.0,0.0,0.0,0.0,-0.5382,-0.5382,-0.5382,-0.5382,-0.5361,-0.5322,-0.5211,-0.5146,-0.5124,-0.5012,-0.4949,-0.491,-0.4802,-0.4784,-0.4784,-0.4784,-0.4784,-0.4784,-0.4784,-0.4762,-0.4775,-0.4722,-0.4616,-0.4506,-0.4402,-0.4365,-0.43,-0.43,-0.4879,-0.5594,-0.6254,-0.7003,-0.7639,-0.81,-0.8089,-0.7931,-0.7731,-0.7596,-0.7484,-0.7484,-0.7484,-0.7484,-0.7484,-0.7423,-0.737,-0.7326,-0.722,-0.7114,-0.6907,-0.6997,-0.7044,-0.6999,-0.7205,-0.7517,-0.792,-0.8279,-0.867,-0.9109,-0.9959,-1.0796,-1.1597,-1.2508,-1.3119,0.0,-0.5171,-0.4997,-0.499,-0.4799,-0.4591,-0.4534,-0.428,0.0,-0.3902,-0.3832,-0.3761,-0.3768,-0.3634,-0.3567,-0.3851,-0.3848,-0.4054,0.0,-0.5101,0.0,0.0,0.0,0.0,0.0,0.0,0.0,0.0,0.0,0.0,0.0,0.0,0.0,-0.5493,-0.5801,-0.5961,-0.5961,-0.5591,-0.5382,-0.5382,-0.5382,-0.5382,-0.5382,0.0,0.0,0.0,0.0,0.0,0.0,-0.5365,-0.5363,-0.5363,-0.5363,-0.531,-0.518,-0.5174,-0.5118,-0.5023,-0.4965,-0.4906,-0.4784,-0.4784,-0.4784,-0.4782,-0.4776,-0.4778,-0.4782,-0.4776,-0.4769,-0.4706,-0.4694,-0.4563,-0.4386,-0.438,-0.4361,-0.43,-0.4387,-0.4924,-0.5594,-0.634,-0.7048,-0.761,-0.7964,-0.802,-0.7898,-0.7553,-0.7492,-0.7484,-0.7484,-0.7484,-0.7484,-0.7484,-0.7338,-0.7309,-0.7472,-0.7472,-0.7399,-0.7199,-0.7199,-0.7233,-0.7183,-0.741,-0.769,-0.8056,-0.8494,-0.8924,-0.9322,-1.0925,-1.1616,-1.1445,-1.2846,-1.3492,-0.4112,0.0,-0.424,-0.4121,-0.3958,-0.377,0.0,-0.3672,-0.3565,-0.3506,-0.353,-0.3551,-0.349,-0.3512,-0.3543,-0.3636,-0.3869,-0.4203,-0.4676,0.0,0.0,0.0,0.0,0.0,0.0,0.0,0.0,0.0,0.0,0.0,0.0,0.0,0.0,-0.6107,-0.5738,-0.5525,-0.5525,-0.5448,-0.5382,-0.5382,-0.5382,-0.5382,-0.5382,0.0,0.0,0.0,0.0,0.0,-0.5217,-0.5202,-0.5171,-0.5171,-0.5171,-0.5159,-0.513,-0.5061,-0.5008,-0.4961,-0.4892,-0.4802,-0.4784,-0.4784,-0.4784,-0.4772,-0.4757,-0.4783,-0.477,-0.4757,-0.4724,-0.4675,-0.4489,-0.4421,-0.4372,-0.4346,-0.4314,-0.4433,-0.5013,-0.5282,-0.5769,-0.7003,-0.7401,-0.7647,-0.8132,-0.8105,-0.7943,-0.7767,-0.7612,-0.7484,-0.7484,-0.7484,-0.7484,-0.7484,-0.7447,-0.7439,-0.748,-0.7362,-0.7269,-0.7191,-0.735,-0.7342,-0.7204,-0.7397,-0.761,-0.785,-0.8557,-0.9148,-0.9544,-1.0999,-1.1675,-1.1648,-1.2901,-1.3492,-0.3545,-0.3679,-0.3803,-0.3715,-0.3704,-0.3659,-0.3653,-0.3568,-0.3524,-0.3447,-0.3398,-0.341,-0.3564,-0.35,-0.3526,-0.3756,-0.4058,0.0,0.0,0.0,0.0,0.0,0.0,0.0,0.0,0.0,0.0,0.0,0.0,0.0,0.0,0.0,0.0,0.0,-0.5421,-0.5351,-0.5601,-0.5435,-0.5382,-0.5382,-0.5339,-0.5318,-0.5316,0.0,0.0,0.0,0.0,0.0,-0.5124,-0.5128,-0.5108,-0.5108,-0.5108,-0.5084,-0.5041,-0.499,-0.4945,-0.4902,-0.48,-0.4784,-0.4784,-0.4784,-0.4758,-0.4769,-0.4722,-0.471,-0.4704,-0.4659,-0.4616,-0.4561,-0.4415,-0.4358,-0.4359,-0.431,-0.4567,-0.4924,-0.5327,-0.5902,-0.6605,-0.7356,-0.7757,-0.8063,-0.8278,-0.8138,-0.7955,-0.7824,-0.7641,-0.7484,-0.7484,-0.7484,-0.7484,-0.7484,-0.7484,-0.7484,-0.7484,-0.7399,-0.7342,-0.7342,-0.7431,-0.7439,-0.7346,-0.7435,-0.7642,-0.7915,-0.8627,-0.9155,-0.9473,-1.0962,-1.1706,-1.1744,-1.2936,-1.3492,-0.3377,-0.3457,-0.3639,-0.3589,-0.3747,-0.3845,-0.3747,-0.3732,-0.3643,-0.3484,-0.3372,-0.3385,-0.3736,-0.3654,-0.3648,-0.3996,0.0,0.0,0.0,0.0,0.0,0.0,0.0,0.0,0.0,0.0,0.0,0.0,0.0,0.0,0.0,0.0,0.0,0.0,-0.5108,-0.5289,-0.5665,-0.5447,-0.5347,-0.5359,-0.5267,-0.5168,-0.5166,-0.5143,0.0,0.0,0.0,0.0,-0.5086,-0.5071,-0.5065,-0.5065,-0.5065,-0.5018,-0.4951,-0.4951,-0.4902,-0.4784,-0.4784,-0.4784,-0.4782,-0.477,-0.4767,-0.4704,-0.4675,-0.4614,-0.4549,-0.4534,-0.4485,-0.4386,-0.4372,-0.4357,-0.43,-0.43,-0.479,-0.5282,-0.5505,-0.6476,-0.7401,-0.7621,-0.8141,-0.851,-0.828,-0.8097,-0.7914,-0.7784,-0.762,-0.7484,-0.7484,-0.7484,-0.7484,-0.7484,-0.7484,-0.7484,-0.7484,-0.7484,-0.7484,-0.7484,-0.7484,-0.7522,-0.7561,-0.7561,-0.7753,-0.8178,-0.8737,-0.9117,-0.9359,-1.085,-1.1595,-1.1744,-1.2826,-1.3419,-0.3593,-0.3708,-0.3713,-0.3493,-0.364,-0.3745,-0.3509,-0.358,-0.3608,-0.3313,-0.3455,-0.3674,-0.3795,-0.4003,-0.4183,0.0,0.0,0.0,0.0,0.0,0.0,0.0,0.0,0.0,0.0,0.0,0.0,0.0,0.0,0.0,0.0,0.0,0.0,0.0,0.0,-0.512,-0.5202,-0.5149,-0.519,-0.5211,-0.5173,-0.5128,-0.5128,-0.5114,-0.5108,0.0,0.0,-0.4994,-0.4986,-0.4908,-0.4827,-0.4827,-0.4827,-0.4817,-0.4855,-0.4855,-0.4796,-0.4784,-0.4784,-0.4784,-0.4772,-0.4751,-0.4718,-0.4679,-0.4477,-0.4421,-0.444,-0.4363,-0.4385,-0.4372,-0.434,-0.431,-0.43,-0.43,-0.4389,-0.4788,-0.5988,-0.6432,-0.6918,-0.8208,-0.8395,-0.8272,-0.8089,-0.791,-0.7775,-0.7592,-0.75,-0.7484,-0.7484,-0.7484,-0.7484,-0.7484,-0.7484,-0.7484,-0.7484,-0.7484,-0.7484,-0.7484,-0.7484,-0.7565,-0.7761,-0.7761,-0.8025,-0.8589,-0.8851,-0.9193,-0.9544,-1.0475,-1.1186,-1.1706,-1.2415,-1.301,-0.3617,-0.3735,-0.3812,-0.3646,-0.3719,-0.3815,-0.37,-0.3613,-0.3564,-0.3519,-0.365,-0.3801,-0.3921,0.0,-0.4445,-0.4677,0.0,0.0,0.0,0.0,0.0,0.0,0.0,0.0,0.0,0.0,0.0,0.0,0.0,0.0,0.0,0.0,0.0,0.0,0.0,0.0,-0.5035,-0.4986,-0.503,-0.5169,-0.5077,-0.5035,-0.5032,-0.4983,-0.4961,0.0,0.0,-0.4898,-0.4894,-0.4802,-0.4784,-0.4784,-0.4784,-0.4784,-0.4784,-0.4784,-0.4784,-0.4784,-0.4784,-0.4756,-0.4761,-0.4722,-0.464,-0.4497,-0.4415,-0.4354,-0.4353,-0.431,-0.433,-0.4353,-0.431,-0.43,-0.43,-0.43,-0.4612,-0.5191,-0.6166,-0.6694,-0.7288,-0.8261,-0.8349,-0.8231,-0.8044,-0.787,-0.7771,-0.7686,-0.7584,-0.7484,-0.7484,-0.7484,-0.7484,-0.7484,-0.7484,-0.7484,-0.7484,-0.7484,-0.7484,-0.7484,-0.7484,-0.7522,-0.7642,-0.7838,-0.814,-0.8513,-0.8932,-0.9316,-0.9582,-1.0406,-1.1111,-1.1706,-1.2335,-1.2936,-0.3623,-0.3752,-0.3904,-0.3904,-0.3971,-0.3984,-0.3955,-0.3817,-0.3683,-0.3773,-0.3906,-0.4036,-0.4187,-0.4414,0.0,-0.4991,0.0,0.0,0.0,0.0,0.0,0.0,0.0,0.0,0.0,0.0,0.0,0.0,0.0,0.0,0.0,0.0,0.0,0.0,0.0,0.0,-0.4939,-0.4869,-0.4916,-0.5075,-0.4983,-0.4941,-0.4937,-0.4867,-0.4784,-0.4784,-0.4784,-0.4784,-0.4784,-0.4784,-0.4784,-0.4784,-0.4784,-0.4784,-0.4784,-0.4784,-0.4784,-0.478,-0.4762,-0.4763,-0.4702,-0.4659,-0.4503,-0.4384,-0.4364,-0.4355,-0.43,-0.43,-0.43,-0.43,-0.43,-0.43,-0.43,-0.43,-0.4746,-0.5369,-0.6207,-0.6801,-0.74,-0.8146,-0.8223,-0.8122,-0.7975,-0.7809,-0.7735,-0.7735,-0.7612,-0.7484,-0.7484,-0.7484,-0.7484,-0.7484,-0.7484,-0.7484,-0.7484,-0.7484,-0.7484,-0.7484,-0.7484,-0.7522,-0.7561,-0.7872,-0.8178,-0.8479,-0.8975,-0.9354,-0.9582,-1.0255,-1.0962,-1.1706,-1.215,-1.279,-0.3799,-0.3899,-0.4035,-0.4218,-0.4263,-0.4252,-0.4106,-0.4108,-0.41,-0.3844,-0.4205,-0.4551,-0.4551,-0.4932,-0.5188,0.0,0.0,0.0,0.0,0.0,0.0,0.0,0.0,0.0,0.0,0.0,0.0,0.0,0.0,0.0,0.0,0.0,0.0,0.0,0.0,0.0,-0.4794,-0.4788,-0.4883,-0.5031,-0.4888,-0.4794,-0.4794,-0.4788,-0.4784,-0.4784,-0.4784,-0.4784,-0.4784,-0.4784,-0.4784,-0.4784,-0.4784,-0.4784,-0.4784,-0.4784,-0.4784,-0.4772,-0.4745,-0.4714,-0.4679,-0.4463,-0.44,-0.4374,-0.4334,-0.4304,-0.43,-0.43,-0.43,-0.43,-0.43,-0.43,-0.43,-0.43,-0.4344,-0.4743,-0.6118,-0.6331,-0.6708,-0.8033,-0.8065,-0.7833,-0.782,-0.7665,-0.7539,-0.7539,-0.7492,-0.7484,-0.7484,-0.7484,-0.7484,-0.7484,-0.7484,-0.7484,-0.7484,-0.7484,-0.7484,-0.7484,-0.7484,-0.7603,-0.7765,-0.7804,-0.8102,-0.8665,-0.8889,-0.9198,-0.9582,-0.9846,-1.055,-1.1706,-1.1744,-1.2378,-0.3686,-0.3845,-0.4022,-0.4205,-0.4285,-0.4318,-0.4457,-0.4262,-0.4191,-0.4575,-0.4636,-0.4665,-0.4834,0.0,-0.4752,0.0,0.0,0.0,0.0,0.0,0.0,0.0,0.0,0.0,0.0,0.0,0.0,0.0,0.0,0.0,0.0,0.0,0.0,0.0,0.0,0.0,0.0,-0.4784,-0.4802,-0.4885,-0.48,-0.4784,-0.4784,-0.4784,-0.4784,-0.4784,-0.4784,-0.4784,-0.4784,-0.4784,-0.4784,-0.4784,-0.4784,-0.4784,-0.4784,-0.4784,-0.4752,-0.4751,-0.472,-0.4634,-0.4479,-0.441,-0.435,-0.4344,-0.431,-0.43,-0.43,-0.43,-0.43,-0.43,-0.43,-0.43,-0.43,-0.43,-0.43,-0.4567,-0.5547,-0.6083,-0.6564,-0.7319,-0.772,-0.7849,-0.7665,-0.7567,-0.7484,-0.7484,-0.7484,-0.7484,-0.7484,-0.7484,-0.7484,-0.7484,-0.7484,-0.7484,-0.7484,-0.7484,-0.7484,-0.7484,-0.7484,-0.7522,-0.7603,-0.7723,-0.7953,-0.8327,-0.8665,-0.8889,-0.9046,-0.9354,-0.9954,-1.0775,-1.1298,-1.204,-0.3712,-0.3878,-0.409,-0.4102,-0.4204,-0.437,-0.4704,-0.4412,-0.4286,-0.4922,-0.4926,-0.4793,-0.4928,-0.4746,0.0,0.0,0.0,0.0,0.0,0.0,0.0,0.0,0.0,0.0,0.0,0.0,0.0,0.0,0.0,0.0,0.0,0.0,0.0,0.0,0.0,0.0,0.0,-0.4767,-0.4767,-0.4744,-0.4744,-0.4758,-0.4784,-0.4784,-0.4784,-0.4784,-0.4784,-0.4784,-0.4784,-0.4784,-0.4784,-0.4784,-0.4784,-0.4768,-0.4744,-0.4744,-0.4741,-0.4661,-0.4632,-0.4493,-0.4384,-0.4356,-0.4351,-0.43,-0.43,-0.43,-0.43,-0.43,-0.43,-0.43,-0.43,-0.43,-0.43,-0.43,-0.43,-0.4469,-0.5193,-0.5813,-0.6365,-0.6833,-0.7436,-0.7784,-0.7641,-0.7608,-0.7608,-0.7608,-0.7608,-0.7588,-0.7492,-0.7484,-0.7484,-0.7484,-0.7484,-0.7484,-0.7484,-0.7484,-0.7484,-0.7484,-0.7484,-0.7484,-0.7484,-0.7642,-0.7799,-0.7991,-0.8327,-0.8551,-0.8589,-0.9008,-0.9544,-1.0218,-1.1037,-1.1818,-0.3987,-0.4107,-0.4227,-0.3961,-0.4044,-0.4332,-0.4783,-0.4588,-0.441,-0.4749,-0.4942,-0.5032,-0.4853,-0.4942,0.0,0.0,0.0,0.0,0.0,0.0,0.0,0.0,0.0,0.0,0.0,0.0,0.0,0.0,0.0,0.0,0.0,0.0,0.0,0.0,0.0,0.0,0.0,-0.4618,-0.4618,-0.4708,-0.4708,-0.4751,-0.4782,-0.4782,-0.4784,-0.4782,-0.4784,-0.4784,-0.4784,-0.4784,-0.4784,-0.4784,-0.4784,-0.4783,-0.4708,-0.4708,-0.4651,-0.4557,-0.4467,-0.4388,-0.4374,-0.4328,-0.43,-0.43,-0.43,-0.43,-0.43,-0.43,-0.43,-0.43,-0.43,-0.43,-0.43,-0.43,-0.43,-0.445,-0.505,-0.5577,-0.6074,-0.6655,-0.7172,-0.7545,-0.7767,-0.78,-0.78,-0.78,-0.7796,-0.7731,-0.7543,-0.7484,-0.7484,-0.7484,-0.7484,-0.7484,-0.7484,-0.7484,-0.7484,-0.7484,-0.7484,-0.7484,-0.7484,-0.7484,-0.7603,-0.7804,-0.7991,-0.8178,-0.8403,-0.8813,-0.942,-1.0218,-1.1037,-1.1818,-0.3807,-0.4017,-0.4282,-0.4199,-0.4435,-0.4771,-0.5155,-0.4958,-0.474,-0.4964,-0.4946,-0.4807,-0.4574,-0.4572,0.0,0.0,0.0,0.0,0.0,0.0,0.0,0.0,0.0,0.0,0.0,0.0,0.0,0.0,0.0,0.0,0.0,0.0,0.0,0.0,0.0,0.0,0.0,0.0,-0.4633,-0.4614,-0.4614,-0.4626,-0.4655,-0.4777,-0.4752,-0.4749,-0.4758,-0.4784,-0.4784,-0.4784,-0.4784,-0.4784,-0.4784,-0.4783,-0.4708,-0.4708,-0.461,-0.4471,-0.4398,-0.4348,-0.4334,-0.4308,-0.43,-0.43,-0.43,-0.43,-0.43,-0.43,-0.43,-0.43,-0.43,-0.43,-0.43,-0.43,-0.43,-0.4319,-0.445,-0.4963,-0.5557,-0.5994,-0.672,-0.7354,-0.7732,-0.78,-0.78,-0.78,-0.769,-0.7584,-0.7488,-0.7484,-0.7484,-0.7484,-0.7484,-0.7484,-0.7484,-0.7484,-0.7484,-0.7484,-0.7484,-0.7484,-0.7484,-0.7484,-0.7522,-0.7603,-0.7799,-0.7915,-0.7991,-0.8365,-0.8851,-0.9377,-1.0619,-1.1484,-0.3945,-0.4193,-0.4429,-0.4333,-0.453,-0.4845,-0.5218,-0.516,-0.5002,-0.4966,-0.4847,-0.4715,-0.4436,-0.4482,0.0,0.0,0.0,0.0,0.0,0.0,0.0,0.0,0.0,0.0,0.0,0.0,0.0,0.0,0.0,0.0,0.0,0.0,0.0,0.0,0.0,0.0,0.0,0.0,0.0,-0.4518,-0.4518,-0.4498,-0.4471,-0.4687,-0.4775,-0.4761,-0.4762,-0.4784,-0.4782,-0.475,-0.4783,-0.4781,-0.4745,-0.4677,-0.46,-0.46,-0.4506,-0.4381,-0.4381,-0.4344,-0.43,-0.43,-0.43,-0.43,-0.43,-0.43,-0.43,-0.43,-0.43,-0.43,-0.43,-0.4273,-0.4249,-0.4249,-0.4249,-0.4214,-0.4091,-0.4606,-0.5175,-0.5627,-0.6421,-0.7149,-0.7697,-0.7857,-0.7877,-0.7812,-0.7641,-0.7484,-0.7484,-0.7484,-0.7484,-0.7484,-0.7484,-0.7484,-0.7484,-0.7484,-0.7484,-0.7484,-0.7484,-0.7484,-0.7484,-0.7484,-0.7484,-0.7484,-0.7684,-0.7804,-0.7804,-0.8293,-0.8703,-0.9036,-1.0282,-1.1037,-0.4281,-0.4492,-0.4624,-0.4416,-0.4459,-0.4657,-0.5084,-0.5197,-0.5151,-0.4812,0.0,-0.4704,-0.4434,0.0,0.0,0.0,0.0,0.0,0.0,0.0,0.0,0.0,0.0,0.0,0.0,0.0,0.0,0.0,0.0,0.0,0.0,0.0,0.0,0.0,0.0,0.0,0.0,0.0,0.0,0.0,-0.438,-0.4383,-0.432,-0.4587,-0.4751,-0.4772,-0.4764,-0.476,-0.4756,-0.4728,-0.4696,-0.4687,-0.4606,-0.4516,-0.4388,-0.4388,-0.4377,-0.43,-0.43,-0.43,-0.43,-0.43,-0.43,-0.43,-0.43,-0.43,-0.43,-0.43,-0.43,-0.43,-0.43,-0.4236,-0.4214,-0.4206,-0.4204,-0.4114,-0.3938,-0.4337,-0.4906,-0.5491,-0.6205,-0.6947,-0.7676,-0.789,-0.7931,-0.78,-0.7629,-0.7484,-0.7484,-0.7484,-0.7484,-0.7484,-0.7484,-0.7484,-0.7484,-0.7484,-0.7484,-0.7484,-0.7484,-0.7484,-0.7484,-0.7484,-0.7484,-0.7484,-0.7684,-0.7804,-0.7842,-0.8441,-0.8813,-0.9074,-1.0062,-1.0625,-0.4097,-0.433,-0.4577,-0.4653,-0.486,-0.5015,-0.4924,-0.4915,-0.4937,-0.5048,-0.4726,-0.4396,0.0,0.0,0.0,0.0,0.0,0.0,0.0,0.0,0.0,0.0,0.0,0.0,0.0,0.0,0.0,0.0,0.0,0.0,0.0,0.0,0.0,0.0,0.0,0.0,-0.4621,-0.4461,-0.437,0.0,-0.4363,-0.4355,-0.4368,-0.4616,-0.4718,-0.4732,-0.4659,-0.4628,-0.4626,-0.461,-0.4602,-0.46,-0.4627,-0.4516,-0.4388,-0.4388,-0.4377,-0.43,-0.43,-0.43,-0.43,-0.43,-0.43,-0.43,-0.43,-0.43,-0.43,-0.43,-0.43,-0.43,-0.43,-0.4236,-0.4155,-0.4081,-0.4023,-0.4034,-0.3924,-0.4021,-0.439,-0.5416,-0.5853,-0.6471,-0.7597,-0.7829,-0.7792,-0.7608,-0.7547,-0.7484,-0.7484,-0.7484,-0.7484,-0.7484,-0.7484,-0.7484,-0.7484,-0.7484,-0.7484,-0.7484,-0.7484,-0.7484,-0.7484,-0.7484,-0.7484,-0.7484,-0.7684,-0.7953,-0.8289,-0.8551,-0.897,-0.9506,-1.018,-1.0625,-0.3958,-0.4256,-0.4564,-0.4826,-0.4953,-0.499,-0.4904,-0.4827,-0.4781,-0.4915,-0.4602,0.0,0.0,0.0,0.0,0.0,0.0,0.0,0.0,0.0,0.0,0.0,0.0,0.0,0.0,0.0,0.0,0.0,0.0,0.0,0.0,0.0,0.0,0.0,0.0,0.0,-0.4508,-0.4416,-0.4371,-0.4369,-0.4322,-0.4346,-0.4392,-0.4579,-0.4645,-0.464,-0.4594,-0.4621,-0.4616,-0.4524,-0.4508,-0.4502,-0.4459,-0.4412,-0.4371,-0.4371,-0.434,-0.43,-0.43,-0.43,-0.43,-0.43,-0.43,-0.43,-0.43,-0.43,-0.43,-0.43,-0.43,-0.4289,-0.4249,-0.4173,-0.4085,-0.3991,-0.3971,-0.3946,-0.3854,-0.3834,-0.4095,-0.4979,-0.558,-0.6168,-0.7053,-0.7469,-0.7633,-0.7496,-0.7484,-0.7484,-0.7484,-0.7484,-0.7484,-0.7484,-0.7484,-0.7484,-0.7484,-0.7484,-0.7484,-0.7484,-0.7484,-0.7484,-0.7484,-0.7484,-0.7484,-0.7484,-0.7684,-0.7919,-0.8106,-0.8403,-0.878,-0.9198,-0.9695,-1.003,-0.3778,-0.4191,-0.4601,-0.4839,-0.484,-0.4817,-0.4872,-0.4765,-0.4596,-0.4612,0.0,0.0,0.0,0.0,0.0,0.0,0.0,0.0,0.0,0.0,0.0,0.0,0.0,0.0,0.0,0.0,0.0,0.0,0.0,0.0,0.0,0.0,0.0,0.0,0.0,-0.4413,-0.4413,-0.4369,-0.4322,-0.4322,-0.4306,-0.4338,-0.4368,-0.4489,-0.4534,-0.4549,-0.4532,-0.4524,-0.452,-0.4442,-0.4366,-0.4358,-0.4328,-0.43,-0.43,-0.43,-0.43,-0.43,-0.43,-0.43,-0.43,-0.43,-0.43,-0.43,-0.43,-0.43,-0.43,-0.43,-0.43,-0.4283,-0.4214,-0.4116,-0.3974,-0.3942,-0.3897,-0.3854,-0.3818,-0.3802,-0.3997,-0.4582,-0.5404,-0.6195,-0.6659,-0.7176,-0.7484,-0.7484,-0.7484,-0.7484,-0.7484,-0.7484,-0.7484,-0.7484,-0.7484,-0.7484,-0.7484,-0.7484,-0.7484,-0.7484,-0.7484,-0.7484,-0.7484,-0.7484,-0.7484,-0.7484,-0.7684,-0.7804,-0.7842,-0.8217,-0.8518,-0.8703,-0.9051,-0.9284,-0.3527,-0.4132,-0.4648,-0.4597,-0.4644,-0.4709,0.0,0.0,-0.4299,0.0,0.0,0.0,0.0,0.0,0.0,0.0,0.0,0.0,0.0,0.0,0.0,0.0,0.0,0.0,0.0,0.0,0.0,0.0,0.0,0.0,0.0,0.0,-0.4621,-0.4621,-0.4561,0.0,-0.4555,-0.4463,-0.4372,-0.437,-0.4336,-0.4306,-0.4318,-0.433,-0.4379,-0.4402,-0.4371,-0.4336,-0.4334,-0.4322,-0.4316,-0.4316,-0.4304,-0.43,-0.43,-0.43,-0.43,-0.43,-0.43,-0.43,-0.43,-0.43,-0.43,-0.43,-0.43,-0.43,-0.43,-0.43,-0.43,-0.4297,-0.4285,-0.4161,-0.399,-0.3978,-0.3895,-0.3816,-0.3806,-0.3802,-0.3997,-0.4582,-0.5685,-0.6701,-0.7296,-0.7446,-0.7484,-0.7484,-0.7484,-0.7484,-0.7484,-0.7484,-0.7484,-0.7484,-0.7484,-0.7484,-0.7484,-0.7484,-0.7484,-0.7484,-0.7484,-0.7484,-0.7484,-0.7484,-0.7484,-0.7484,-0.7684,-0.7876,-0.8063,-0.8293,-0.8518,-0.8703,-0.8742,-0.878,-0.3484,-0.3951,-0.4364,-0.4528,-0.4501,-0.4438,-0.4449,-0.4263,-0.4122,0.0,0.0,0.0,0.0,0.0,0.0,0.0,0.0,0.0,0.0,0.0,0.0,0.0,0.0,0.0,0.0,0.0,0.0,0.0,0.0,0.0,0.0,-0.4418,-0.4418,-0.4418,-0.4418,0.0,-0.4418,-0.4379,-0.4359,-0.4359,-0.3778,-0.3719,-0.4078,-0.3674,-0.3825,-0.4357,-0.4316,-0.43,-0.43,-0.43,-0.43,-0.43,-0.43,-0.43,-0.43,-0.43,-0.43,-0.43,-0.43,-0.43,-0.43,-0.43,-0.43,-0.43,-0.43,-0.43,-0.43,-0.43,-0.43,-0.4287,-0.424,-0.4171,-0.4099,-0.4006,-0.3973,-0.3901,-0.385,-0.3839,-0.4075,-0.5007,-0.5667,-0.636,-0.7326,-0.7484,-0.7484,-0.7484,-0.7484,-0.7484,-0.7484,-0.7484,-0.7484,-0.7484,-0.7484,-0.7484,-0.7484,-0.7484,-0.7484,-0.7484,-0.7484,-0.7484,-0.7484,-0.7484,-0.7484,-0.7484,-0.7603,-0.768,-0.7757,-0.7868,-0.7983,-0.8217,-0.8327,-0.8441,-0.324,-0.3582,-0.3888,-0.4242,-0.4213,-0.4115,0.0,0.0,0.0,0.0,0.0,0.0,0.0,0.0,0.0,0.0,0.0,0.0,0.0,0.0,0.0,0.0,0.0,0.0,0.0,0.0,0.0,0.0,0.0,0.0,-0.43,-0.43,-0.43,-0.43,-0.43,-0.43,-0.43,-0.43,-0.43,-0.43,-0.3539,-0.3406,-0.3903,-0.3361,-0.3539,-0.421,-0.4255,-0.43,-0.43,-0.43,-0.43,-0.43,-0.43,-0.43,-0.43,-0.43,-0.43,-0.43,-0.43,-0.43,-0.43,-0.43,-0.43,-0.43,-0.43,-0.43,-0.43,-0.43,-0.43,-0.4283,-0.4222,-0.4233,-0.4157,-0.4087,-0.3992,-0.3942,-0.3914,-0.3846,-0.4189,-0.5442,-0.5674,-0.6067,-0.7359,-0.7516,-0.7484,-0.7484,-0.7484,-0.7484,-0.7484,-0.7484,-0.7484,-0.7484,-0.7484,-0.7484,-0.7484,-0.7484,-0.7484,-0.7484,-0.7484,-0.7484,-0.7484,-0.7484,-0.7484,-0.7484,-0.7484,-0.7484,-0.7484,-0.7484,-0.7565,-0.7723,-0.7872,-0.8025,-0.2661,-0.2952,-0.3304,-0.3504,-0.3636,-0.3777,0.0,0.0,0.0,0.0,0.0,0.0,0.0,0.0,0.0,0.0,0.0,0.0,0.0,0.0,0.0,0.0,0.0,0.0,0.0,0.0,0.0,0.0,0.0,0.0,-0.43,-0.43,-0.43,-0.43,-0.43,-0.43,-0.43,-0.43,-0.43,-0.43,-0.3991,-0.3859,-0.3903,-0.3859,-0.3859,-0.3946,-0.4212,-0.43,-0.43,-0.43,-0.43,-0.43,-0.43,-0.43,-0.43,-0.43,-0.43,-0.43,-0.43,-0.43,-0.43,-0.43,-0.43,-0.43,-0.43,-0.43,-0.43,-0.43,-0.43,-0.4297,-0.4293,-0.4232,-0.4214,-0.421,-0.4032,-0.3906,-0.3901,-0.3895,-0.4295,-0.562,-0.5817,-0.6218,-0.7545,-0.7641,-0.7484,-0.7484,-0.7484,-0.7484,-0.7484,-0.7484,-0.7484,-0.7484,-0.7484,-0.7484,-0.7484,-0.7484,-0.7484,-0.7484,-0.7484,-0.7484,-0.7484,-0.7484,-0.7484,-0.7484,-0.7484,-0.7484,-0.7484,-0.7484,-0.7522,-0.7522,-0.7522,-0.7522,-0.2704,-0.2839,0.0,-0.3192,-0.3387,-0.3545,-0.3669,0.0,0.0,0.0,0.0,0.0,0.0,0.0,0.0,0.0,0.0,0.0,0.0,0.0,0.0,0.0,0.0,0.0,0.0,0.0,0.0,0.0,0.0,0.0,-0.43,-0.43,-0.43,-0.43,-0.43,-0.43,-0.43,-0.43,-0.43,-0.43,-0.3585,-0.3317,-0.3452,-0.3002,-0.2642,-0.2329,-0.2596,-0.2864,-0.3133,-0.3133,-0.3133,-0.3224,-0.3808,-0.4168,-0.43,-0.43,-0.4121,-0.3853,-0.3853,-0.3673,-0.3403,-0.3403,-0.3403,-0.3403,-0.3403,-0.3403,-0.3403,-0.3403,-0.3494,-0.3628,-0.3808,-0.3924,-0.4036,-0.421,-0.4163,-0.4075,-0.4075,-0.3983,-0.4322,-0.5697,-0.5931,-0.63,-0.7699,-0.7816,-0.7698,-0.7698,-0.76,-0.7484,-0.7484,-0.7484,-0.7484,-0.7484,-0.7484,-0.7484,-0.7484,-0.7484,-0.7484,-0.7484,-0.7484,-0.7484,-0.7484,-0.7484,-0.7484,-0.7484,-0.7484,-0.7484,-0.7484,-0.7484,-0.7484,-0.7484,-0.7484,-0.7484,-0.26,-0.2639,-0.2755,0.0,0.0,-0.3189,-0.3399,0.0,0.0,0.0,0.0,0.0,0.0,0.0,0.0,0.0,0.0,0.0,0.0,0.0,0.0,0.0,0.0,0.0,0.0,0.0,0.0,0.0,0.0,0.0,-0.4212,-0.424,-0.4257,-0.4257,-0.4283,-0.43,-0.43,-0.4166,-0.4076,-0.4076,-0.3183,-0.2825,-0.2959,-0.2239,-0.1745,-0.1387,-0.1074,-0.1297,-0.1924,-0.2149,-0.2283,-0.2373,-0.3227,-0.3674,-0.3851,-0.3851,-0.3628,-0.3361,-0.3361,-0.3181,-0.2911,-0.2911,-0.2911,-0.2911,-0.2911,-0.2911,-0.2911,-0.3002,-0.3092,-0.3272,-0.3631,-0.3855,-0.4072,-0.4219,-0.4236,-0.4208,-0.4222,-0.4077,-0.434,-0.5496,-0.5859,-0.6363,-0.7541,-0.7796,-0.7865,-0.7808,-0.7694,-0.7592,-0.7492,-0.7484,-0.7484,-0.7484,-0.7484,-0.7484,-0.7484,-0.7484,-0.7484,-0.7484,-0.7484,-0.7484,-0.7484,-0.7484,-0.7484,-0.7484,-0.7484,-0.7484,-0.7484,-0.7484,-0.7484,-0.7484,-0.7484,-0.7633,0.0,0.0,0.0,0.0,0.0,0.0,0.0,0.0,0.0,0.0,0.0,0.0,0.0,0.0,0.0,0.0,0.0,0.0,0.0,0.0,0.0,0.0,0.0,0.0,0.0,0.0,0.0,0.0,0.0,-0.413,-0.3998,-0.412,-0.4212,-0.4212,-0.4249,-0.4293,-0.4295,-0.3851,-0.3585,-0.3542,-0.2827,-0.2469,-0.2423,-0.1702,-0.1342,-0.1208,0.0134,0.0224,-0.0671,-0.1431,-0.1745,-0.1835,-0.2597,-0.2911,-0.2911,-0.2911,-0.2911,-0.2867,-0.2867,-0.2867,-0.2867,-0.2867,-0.2867,-0.2867,-0.2867,-0.2867,-0.2911,-0.3092,-0.3181,-0.3272,-0.3767,-0.4078,-0.4277,-0.4239,-0.4238,-0.4277,-0.4237,-0.422,-0.4392,-0.5076,-0.5714,-0.6398,-0.7097,-0.7636,-0.7914,-0.7833,-0.7796,-0.7726,-0.7504,-0.7484,-0.7484,-0.7484,-0.7484,-0.7484,-0.7484,-0.7484,-0.7484,-0.7484,-0.7484,-0.7484,-0.7484,-0.7484,-0.7484,-0.7484,-0.7484,-0.7484,-0.7484,-0.7484,-0.7484,-0.7484,-0.7484,-0.7902,-0.2359,0.0,0.0,0.0,0.0,0.0,0.0,0.0,0.0,0.0,0.0,0.0,0.0,0.0,0.0,0.0,0.0,0.0,0.0,0.0,0.0,0.0,0.0,0.0,0.0,0.0,0.0,0.0,0.0,-0.4021,-0.3994,-0.4019,-0.4073,-0.4073,-0.4055,-0.414,-0.4208,-0.3769,-0.3266,-0.2777,-0.2239,-0.1522,-0.0671,-0.0492,0.009,0.0941,0.1345,0.1658,0.1793,0.0179,-0.0492,-0.0626,-0.2061,-0.2735,-0.2911,-0.2911,-0.2689,-0.2377,-0.2377,-0.2153,-0.1793,-0.1793,-0.1793,-0.1793,-0.1793,-0.1793,-0.1883,-0.2108,-0.2422,-0.2871,-0.3678,-0.4078,-0.4293,-0.4269,-0.4281,-0.4293,-0.4269,-0.4265,-0.4484,-0.5193,-0.5431,-0.5872,-0.7189,-0.7328,-0.742,-0.7869,-0.7724,-0.758,-0.7488,-0.7484,-0.7484,-0.7484,-0.7484,-0.7484,-0.7484,-0.7484,-0.7484,-0.7484,-0.7484,-0.7484,-0.7484,-0.7484,-0.7484,-0.7484,-0.7484,-0.7484,-0.7484,-0.7484,-0.7484,-0.7484,-0.7484,-0.7714,-0.2424,-0.2412,-0.2445,-0.2434,0.0,0.0,0.0,-0.2738,0.0,0.0,0.0,0.0,0.0,0.0,0.0,0.0,0.0,0.0,0.0,0.0,0.0,0.0,0.0,0.0,0.0,0.0,0.0,0.0,-0.3957,-0.3938,-0.3938,-0.3812,-0.3688,-0.3688,-0.3555,-0.3555,-0.3601,-0.2869,-0.2283,-0.1919,-0.1177,-0.0479,0.0218,0.0523,0.1047,0.1748,0.2073,0.248,0.2747,0.1284,0.0534,0.0179,-0.1121,-0.1884,-0.2285,-0.2285,-0.2108,-0.1884,-0.1884,-0.166,-0.1391,-0.1391,-0.1391,-0.1391,-0.1391,-0.1391,-0.1436,-0.1705,-0.2154,-0.2648,-0.3186,-0.3587,-0.3851,-0.3987,-0.4076,-0.4166,-0.4255,-0.43,-0.4433,-0.4879,-0.5142,-0.5539,-0.6387,-0.6856,-0.7163,-0.7475,-0.7569,-0.7608,-0.7492,-0.7484,-0.7484,-0.7484,-0.7484,-0.7484,-0.7484,-0.7484,-0.7484,-0.7484,-0.7484,-0.7484,-0.7484,-0.7484,-0.7484,-0.7484,-0.7484,-0.7484,-0.7484,-0.7484,-0.7484,-0.7484,-0.7484,-0.7561,-0.2516,-0.2462,-0.2446,-0.2535,0.0,0.0,-0.267,-0.2552,0.0,0.0,0.0,0.0,0.0,0.0,0.0,0.0,0.0,0.0,0.0,0.0,0.0,0.0,0.0,0.0,0.0,0.0,0.0,-0.3802,-0.3798,-0.3804,-0.3804,-0.3438,-0.3194,-0.3194,-0.2932,-0.2759,-0.2766,-0.1675,-0.1048,-0.0966,0.0126,0.0672,0.0756,0.1429,0.1723,0.1767,0.2491,0.2777,0.2739,0.208,0.1405,0.0762,-0.0089,-0.0759,-0.13,-0.1387,-0.1387,-0.1391,-0.1391,-0.1391,-0.1391,-0.1391,-0.1391,-0.1391,-0.1391,-0.1391,-0.148,-0.1749,-0.2154,-0.2513,-0.2558,-0.2869,-0.3227,-0.3452,-0.3671,-0.3887,-0.4105,-0.4186,-0.418,-0.418,-0.4767,-0.5232,-0.5218,-0.6163,-0.6902,-0.6827,-0.7295,-0.7631,-0.7504,-0.7484,-0.7484,-0.7484,-0.7484,-0.7484,-0.7484,-0.7484,-0.7484,-0.7484,-0.7484,-0.7484,-0.7484,-0.7484,-0.7484,-0.7484,-0.7484,-0.7484,-0.7484,-0.7484,-0.7484,-0.7484,-0.7484,-0.7522,-0.2461,-0.2484,-0.2523,-0.2393,0.0,0.0,-0.2358,-0.2354,0.0,0.0,0.0,0.0,0.0,0.0,0.0,0.0,0.0,0.0,0.0,0.0,0.0,0.0,0.0,0.0,0.0,0.0,-0.3802,-0.3802,-0.3467,-0.324,-0.324,-0.2884,-0.2646,-0.2646,-0.2579,-0.257,-0.2619,-0.1553,-0.0742,-0.021,0.0882,0.1681,0.2271,0.2439,0.2481,0.2482,0.2662,0.2737,0.2779,0.2601,0.2123,0.1475,0.0129,-0.0478,-0.0671,-0.1188,-0.1414,-0.1391,-0.1391,-0.1391,-0.1391,-0.1391,-0.1391,-0.1391,-0.1391,-0.1391,-0.148,-0.1974,-0.2289,-0.2558,-0.278,-0.2868,-0.2957,-0.3002,-0.314,-0.3232,-0.3099,-0.3359,-0.3574,-0.3574,-0.4058,-0.4583,-0.5119,-0.5254,-0.5598,-0.6635,-0.6802,-0.6983,-0.745,-0.7484,-0.7484,-0.7484,-0.7484,-0.7484,-0.7484,-0.7484,-0.7484,-0.7484,-0.7484,-0.7484,-0.7484,-0.7484,-0.7484,-0.7484,-0.7484,-0.7484,-0.7484,-0.7484,-0.7484,-0.7484,-0.7484,-0.7603,-0.2548,-0.2578,-0.2628,-0.2533,0.0,0.0,0.0,0.0,-0.2347,0.0,0.0,0.0,0.0,0.0,0.0,0.0,0.0,0.0,0.0,0.0,0.0,0.0,0.0,0.0,0.0,0.0,-0.3575,-0.3425,-0.3198,-0.2984,-0.2824,-0.2431,-0.2196,-0.2196,-0.2,-0.1935,-0.1959,-0.0798,-0.004,0.0325,0.1503,0.2234,0.2601,0.2601,0.2601,0.2604,0.2634,0.2665,0.2691,0.2659,0.2488,0.2128,0.0643,-0.0087,-0.0485,-0.1148,-0.1422,-0.1391,-0.1391,-0.1391,-0.1391,-0.1391,-0.1391,-0.1391,-0.1391,-0.1391,-0.1477,-0.1727,-0.1869,-0.1973,-0.2107,-0.2269,-0.2382,-0.2471,-0.2648,-0.2777,-0.2777,-0.3048,-0.3275,-0.3402,-0.3655,-0.4034,-0.4492,-0.469,-0.4999,-0.5656,-0.6103,-0.6521,-0.6822,-0.7223,-0.7496,-0.7484,-0.7484,-0.7484,-0.7484,-0.7484,-0.7484,-0.7484,-0.7484,-0.7484,-0.7484,-0.7484,-0.7484,-0.7484,-0.7484,-0.7484,-0.7484,-0.7484,-0.7484,-0.7484,-0.7484,-0.7561,0.0,0.0,0.0,0.0,0.0,-0.2446,0.0,0.0,0.0,-0.249,0.0,0.0,0.0,0.0,0.0,0.0,0.0,0.0,0.0,0.0,0.0,0.0,0.0,0.0,0.0,0.0,-0.3274,-0.3035,-0.2829,-0.2631,-0.2373,-0.1986,-0.1757,-0.1803,-0.1452,-0.1257,-0.11,0.0039,0.0667,0.0825,0.1961,0.2511,0.2511,0.2511,0.2511,0.2514,0.2563,0.259,0.2601,0.2589,0.262,0.2552,0.1272,0.0386,-0.0304,-0.097,-0.1292,-0.1391,-0.1391,-0.1391,-0.1389,-0.1383,-0.1382,-0.1382,-0.1382,-0.1386,-0.1385,-0.1406,-0.1412,-0.1382,-0.1382,-0.1536,-0.1728,-0.19,-0.2082,-0.2299,-0.2467,-0.2705,-0.2902,-0.3068,-0.3268,-0.3515,-0.3855,-0.4281,-0.4639,-0.4753,-0.5321,-0.5822,-0.6047,-0.6922,-0.7516,-0.7492,-0.7488,-0.7484,-0.7484,-0.7484,-0.7484,-0.7484,-0.7484,-0.7484,-0.7484,-0.7484,-0.7484,-0.7484,-0.7484,-0.7484,-0.7484,-0.7484,-0.7484,-0.7484,-0.7484,-0.7484,0.0,0.0,0.0,0.0,-0.2754,0.0,0.0,0.0,-0.2352,-0.2274,0.0,0.0,0.0,0.0,0.0,0.0,0.0,0.0,0.0,0.0,0.0,0.0,0.0,0.0,0.0,0.0,0.0,-0.2989,-0.2278,-0.1869,-0.1895,-0.1483,-0.1306,-0.1373,-0.1335,-0.1021,-0.0432,0.0275,0.0903,0.1489,0.2156,0.2511,0.2511,0.2511,0.2511,0.2511,0.2518,0.2552,0.2597,0.2544,0.2556,0.2525,0.1799,0.1071,0.039,-0.0256,-0.0911,-0.1391,-0.1391,-0.1391,-0.1386,-0.1403,-0.1395,-0.1395,-0.1395,-0.1414,-0.139,-0.1386,-0.1413,-0.1395,-0.1395,-0.1374,-0.1353,-0.1395,-0.1538,-0.1635,-0.1512,-0.1768,-0.2058,-0.2055,-0.2366,-0.2893,-0.3764,-0.3912,-0.4166,-0.4862,-0.4462,-0.4453,-0.5544,-0.6729,-0.7482,-0.7482,-0.7496,-0.7484,-0.7484,-0.7484,-0.7484,-0.7484,-0.7484,-0.7484,-0.7484,-0.7484,-0.7484,-0.7484,-0.7484,-0.7484,-0.7484,-0.7484,-0.7484,-0.7484,-0.7484,-0.7484,0.0,0.0,0.0,0.0,0.0,0.0,-0.2395,0.0,-0.2281,0.0,0.0,0.0,0.0,0.0,0.0,0.0,0.0,0.0,0.0,0.0,0.0,0.0,0.0,0.0,0.0,0.0,0.0,0.0,0.0,-0.1556,-0.1408,-0.1267,-0.1217,-0.123,-0.1287,-0.0982,-0.0314,0.0314,0.0942,0.1607,0.2196,0.2511,0.2511,0.2511,0.2511,0.2511,0.2511,0.2525,0.2546,0.252,0.2526,0.2507,0.2244,0.1489,0.0502,-0.017,-0.0817,-0.1344,-0.1403,-0.1354,-0.1339,-0.1327,-0.1323,-0.1362,-0.1344,-0.1361,-0.1341,-0.1341,-0.1333,-0.1369,-0.1386,-0.1356,-0.128,-0.128,-0.138,-0.1396,-0.1317,-0.1543,-0.1728,-0.1568,-0.1882,-0.2439,-0.3301,-0.3632,-0.3919,-0.4272,-0.4034,-0.399,-0.4494,-0.504,-0.5906,-0.7366,-0.7512,-0.75,-0.7484,-0.7484,-0.7484,-0.7484,-0.7484,-0.7484,-0.7484,-0.7484,-0.7484,-0.7484,-0.7484,-0.7484,-0.7484,-0.7484,-0.7484,-0.7484,-0.7484,-0.7484,-0.3078,0.0,0.0,0.0,0.0,0.0,0.0,0.0,0.0,0.0,0.0,0.0,0.0,0.0,0.0,0.0,0.0,0.0,0.0,0.0,0.0,0.0,0.0,0.0,0.0,0.0,0.0,0.0,0.0,0.0,-0.1104,-0.1158,-0.1195,-0.1211,-0.128,-0.0904,-0.0079,0.0393,0.102,0.1843,0.2275,0.2511,0.2511,0.2511,0.2511,0.2511,0.2511,0.2511,0.2511,0.2511,0.2511,0.2511,0.2511,0.1822,0.0808,0.0294,-0.0382,-0.1054,-0.1113,-0.1189,-0.1294,-0.1294,-0.1294,-0.129,-0.1309,-0.1282,-0.1305,-0.1305,-0.13,-0.1298,-0.1361,-0.1328,-0.129,-0.129,-0.1313,-0.1296,-0.1296,-0.1454,-0.1532,-0.1333,-0.1529,-0.1922,-0.2511,-0.3256,-0.3804,-0.3802,-0.3802,-0.38,-0.3795,-0.3793,-0.4494,-0.63,-0.7088,-0.7516,-0.7496,-0.7488,-0.7484,-0.7484,-0.7484,-0.7484,-0.7484,-0.7484,-0.7484,-0.7484,-0.7484,-0.7484,-0.7484,-0.7484,-0.7484,-0.7484,-0.7484,-0.7484,0.0,0.0,0.0,-0.2783,0.0,0.0,0.0,0.0,-0.2385,0.0,0.0,0.0,0.0,0.0,-0.238,-0.2319,0.0,0.0,0.0,0.0,0.0,0.0,0.0,0.0,0.0,0.0,0.0,0.0,0.0,0.0,-0.1103,-0.1107,-0.1151,-0.121,-0.128,-0.0707,0.055,0.0589,0.1217,0.247,0.251,0.2511,0.2511,0.2511,0.2511,0.2511,0.2511,0.2511,0.2511,0.2511,0.2511,0.2511,0.2511,0.2118,0.1574,0.1452,0.066,-0.042,-0.042,-0.083,-0.1304,-0.1304,-0.1304,-0.1304,-0.1303,-0.1282,-0.1305,-0.1305,-0.1285,-0.1304,-0.1305,-0.1322,-0.1298,-0.1298,-0.1297,-0.1296,-0.1296,-0.1296,-0.1296,-0.1296,-0.1296,-0.1335,-0.1372,-0.2707,-0.381,-0.3804,-0.3802,-0.3802,-0.3802,-0.3795,-0.383,-0.3908,-0.6064,-0.7486,-0.7482,-0.7496,-0.7484,-0.7484,-0.7484,-0.7484,-0.7484,-0.7484,-0.7484,-0.7484,-0.7484,-0.7484,-0.7484,-0.7484,-0.7484,-0.7484,-0.7484,-0.7484,0.0,0.0,-0.3136,-0.2956,0.0,0.0,0.0,0.0,0.0,0.0,0.0,0.0,0.0,0.0,-0.2387,-0.2319,-0.2189,0.0,0.0,0.0,0.0,0.0,0.0,0.0,0.0,0.0,0.0,0.0,0.0,0.0,0.0,-0.1053,-0.111,-0.1151,-0.0825,-0.0232,0.0589,0.1059,0.1686,0.2511,0.2511,0.2511,0.2511,0.2511,0.2511,0.2511,0.2511,0.2511,0.2511,0.2511,0.2511,0.2511,0.2511,0.2392,0.2124,0.1691,0.0727,-0.0402,-0.0844,-0.112,-0.1312,-0.1312,-0.1312,-0.1312,-0.1312,-0.132,-0.1292,-0.1312,-0.1296,-0.1317,-0.1297,-0.132,-0.1296,-0.1296,-0.1296,-0.1296,-0.1296,-0.1296,-0.1296,-0.1296,-0.1296,-0.1296,-0.1295,-0.2198,-0.3139,-0.3724,-0.3802,-0.3802,-0.3802,-0.38,-0.3798,-0.3791,-0.4535,-0.5709,-0.7366,-0.75,-0.7484,-0.7484,-0.7484,-0.7484,-0.7484,-0.7484,-0.7484,-0.7484,-0.7484,-0.7484,-0.7484,-0.7484,-0.7484,-0.7484,-0.7484,-0.7484,-0.3192,-0.3192,0.0,0.0,-0.2898,0.0,-0.2513,0.0,0.0,0.0,0.0,0.0,0.0,0.0,-0.2293,-0.2213,-0.2011,-0.1692,0.0,0.0,0.0,0.0,0.0,0.0,0.0,0.0,-0.0929,-0.0905,-0.087,0.0,0.0,0.0,-0.1079,-0.1084,-0.059,0.0,0.0589,0.1255,0.1921,0.2511,0.2511,0.2511,0.2511,0.2511,0.2511,0.2511,0.2511,0.2511,0.2511,0.2511,0.2511,0.2511,0.2511,0.2511,0.2437,0.2034,0.1073,-0.0079,-0.0707,-0.11,-0.1296,-0.1296,-0.1296,-0.1296,-0.1296,-0.1296,-0.1301,-0.1281,-0.1312,-0.1301,-0.1281,-0.1312,-0.1296,-0.1296,-0.1296,-0.1296,-0.1296,-0.1296,-0.1296,-0.1296,-0.1296,-0.1296,-0.1296,-0.1962,-0.2785,-0.3688,-0.3804,-0.3802,-0.3802,-0.3802,-0.38,-0.3795,-0.3793,-0.4807,-0.7289,-0.7508,-0.7492,-0.7484,-0.7484,-0.7484,-0.7484,-0.7484,-0.7484,-0.7484,-0.7484,-0.7484,-0.7484,-0.7484,-0.7484,-0.7484,-0.7484,-0.7452]}]]